[[{"header":{"parameterUnit":"m.s-1","parameterCategory":1,"la1":31.0,"la2":29.5877,"lo1":-88.7671,"lo2":-86.6584,"dx":0.0162,"dy":0.0185,"nx":115,"ny":88,"refTime":"2023-02-01T18:00:00:Z","depth":0,"parameterNumber":2,"parameterNumberName":"U-component_of_WINDS"},"data":[0.0,0.0,0.0,0.0,0.0,0.0,0.0,0.0,0.0,0.0,0.0,0.0,0.0,0.0,0.0,0.0,0.0,0.0,0.0,0.0,0.0,0.0,0.0,0.0,0.0,0.0,0.0,0.0,0.0,0.0,0.0,0.0,0.0,0.0,0.0,0.0,0.0,0.0,0.0,0.0,0.0,0.0,0.0,0.0,0.0,0.0,0.0,0.0,0.0,0.0,0.0,0.0,0.0,0.0,0.0,0.0,0.0,0.0,0.0,0.0,0.0,0.0,0.0,0.0,0.0,0.0,0.0,0.0,0.0,0.0,0.0,0.0,0.0,0.0,0.0,0.0,0.0,0.0,0.0,0.0,0.0,0.0,0.0,0.0,0.0,0.0,0.0,0.0,0.0,0.0,0.0,0.0,0.0,0.0,0.0,0.0,0.0,0.0,0.0,0.0,0.0,0.0,0.0,0.0,0.0,0.0,0.0,0.0,0.0,0.0,0.0,0.0,0.0,0.0,0.0,0.0,0.0,0.0,0.0,0.0,0.0,0.0,0.0,0.0,0.0,0.0,0.0,0.0,0.0,0.0,0.0,0.0,0.0,0.0,0.0,0.0,0.0,0.0,0.0,0.0,0.0,0.0,0.0,0.0,0.0,0.0,0.0,0.0,0.0,0.0,0.0,0.0,0.0,0.0,0.0,0.0,0.0,0.0,0.0,0.0,0.0,0.0,0.0,0.0,0.0,0.0,0.0,0.0,0.0,0.0,0.0,0.0,0.0,0.0,0.0,0.0,0.0,0.0,0.0,0.0,0.0,0.0,0.0,0.0,0.0,0.0,0.0,0.0,0.0,0.0,0.0,0.0,0.0,0.0,0.0,0.0,0.0,0.0,0.0,0.0,0.0,0.0,0.0,0.0,0.0,0.0,0.0,0.0,0.0,0.0,0.0,0.0,0.0,0.0,0.0,0.0,0.0,0.0,0.0,0.0,0.0,0.0,0.0,0.0,0.0,0.0,0.0,0.0,0.0,0.0,0.0,0.0,0.0,0.0,0.0,0.0,0.0,0.0,0.0,0.0,0.0,0.0,0.0,0.0,0.0,0.0,0.0,0.0,0.0,0.0,0.0,0.0,0.0,0.0,0.0,0.0,0.0,0.0,0.0,0.0,0.0,0.0,0.0,0.0,0.0,0.0,0.0,0.0,0.0,0.0,0.0,0.0,0.0,0.0,0.0,0.0,0.0,0.0,0.0,0.0,0.0,0.0,0.0,0.0,0.0,0.0,0.0,0.0,0.0,0.0,0.0,0.0,0.0,0.0,0.0,0.0,0.0,0.0,0.0,0.0,0.0,0.0,0.0,0.0,0.0,0.0,0.0,0.0,0.0,0.0,0.0,0.0,0.0,0.0,0.0,0.0,0.0,0.0,0.0,0.0,0.0,0.0,0.0,0.0,0.0,0.0,0.0,0.0,0.0,0.0,0.0,0.0,0.0,0.0,0.0,0.0,0.0,0.0,0.0,0.0,0.0,0.0,0.0,0.0,0.0,0.0,0.0,0.0,0.0,0.0,0.0,0.0,0.0,0.0,0.0,0.0,0.0,0.0,0.0,0.0,0.0,0.0,0.0,0.0,0.0,0.0,0.0,0.0,0.0,0.0,0.0,0.0,0.0,0.0,0.0,0.0,0.0,0.0,0.0,0.0,0.0,0.0,0.0,0.0,0.0,0.0,0.0,0.0,0.0,0.0,0.0,0.0,0.0,0.0,0.0,0.0,0.0,0.0,0.0,0.0,0.0,0.0,0.0,0.0,0.0,0.0,0.0,0.0,0.0,0.0,0.0,0.0,0.0,0.0,0.0,0.0,0.0,0.0,0.0,0.0,0.0,0.0,0.0,0.0,0.0,0.0,0.0,0.0,0.0,0.0,0.0,0.0,0.0,0.0,0.0,0.0,0.0,0.0,0.0,0.0,0.0,0.0,0.0,0.0,0.0,0.0,0.0,0.0,0.0,0.0,0.0,0.0,0.0,0.0,0.0,0.0,0.0,0.0,0.0,0.0,0.0,0.0,0.0,0.0,0.0,0.0,0.0,0.0,0.0,0.0,0.0,0.0,0.0,0.0,0.0,0.0,0.0,0.0,0.0,0.0,0.0,0.0,0.0,0.0,0.0,0.0,0.0,0.0,0.0,0.0,0.0,0.0,0.0,0.0,0.0,0.0,0.0,0.0,0.0,0.0,0.0,0.0,0.0,0.0,0.0,0.0,0.0,0.0,0.0,0.0,0.0,0.0,0.0,0.0,0.0,0.0,0.0,0.0,0.0,0.0,0.0,0.0,0.0,0.0,0.0,0.0,0.0,0.0,0.0,0.0,0.0,0.0,0.0,0.0,0.0,0.0,0.0,0.0,0.0,0.0,0.0,0.0,0.0,0.0,0.0,0.0,0.0,0.0,0.0,0.0,0.0,0.0,0.0,0.0,0.0,0.0,0.0,0.0,0.0,0.0,0.0,0.0,0.0,0.0,0.0,0.0,0.0,0.0,0.0,0.0,0.0,0.0,0.0,0.0,0.0,0.0,0.0,0.0,0.0,0.0,0.0,0.0,0.0,0.0,0.0,0.0,0.0,0.0,0.0,0.0,0.0,0.0,0.0,0.0,0.0,0.0,0.0,0.0,0.0,0.0,0.0,0.0,0.0,0.0,0.0,0.0,0.0,0.0,0.0,0.0,0.0,0.0,0.0,0.0,0.0,0.0,0.0,0.0,0.0,0.0,0.0,0.0,0.0,0.0,0.0,0.0,0.0,0.0,0.0,0.0,0.0,0.0,0.0,0.0,0.0,0.0,0.0,0.0,0.0,0.0,0.0,0.0,0.0,0.0,0.0,0.0,0.0,0.0,0.0,0.0,0.0,0.0,0.0,0.0,0.0,0.0,0.0,0.0,0.0,0.0,0.0,0.0,0.0,0.0,0.0,0.0,0.0,0.0,0.0,0.0,0.0,0.0,0.0,0.0,0.0,0.0,0.0,0.0,0.0,0.0,0.0,0.0,0.0,0.0,0.0,0.0,0.0,0.0,0.0,0.0,0.0,0.0,0.0,0.0,0.0,0.0,0.0,0.0,0.0,0.0,0.0,0.0,0.0,0.0,0.0,0.0,0.0,0.0,0.0,0.0,0.0,0.0,0.0,0.0,0.0,0.0,0.0,0.0,0.0,0.0,0.0,0.0,0.0,0.0,0.0,0.0,0.0,0.0,0.0,0.0,0.0,0.0,0.0,0.0,0.0,0.0,0.0,0.0,0.0,0.0,0.0,0.0,0.0,0.0,0.0,0.0,0.0,0.0,0.0,0.0,0.0,0.0,0.0,0.0,0.0,0.0,0.0,0.0,0.0,0.0,0.0,0.0,0.0,0.0,0.0,0.0,0.0,0.0,0.0,0.0,0.0,0.0,0.0,0.0,0.0,0.0,0.0,0.0,0.0,0.0,0.0,0.0,0.0,0.0,0.0,0.0,0.0,0.0,0.0,0.0,0.0,0.0,0.0,0.0,0.0,0.0,0.0,0.0,0.0,0.0,0.0,0.0,0.0,0.0,0.0,0.0,0.0,0.0,0.0,0.0,0.0,0.0,0.0,0.0,0.0,0.0,0.0,0.0,0.0,0.0,0.0,0.0,0.0,0.0,0.0,0.0,0.0,0.0,0.0,0.0,0.0,0.0,0.0,0.0,0.0,0.0,0.0,0.0,0.0,0.0,0.0,0.0,0.0,0.0,0.0,0.0,0.0,0.0,0.0,0.0,0.0,0.0,0.0,0.0,0.0,0.0,0.0,0.0,0.0,0.0,0.0,0.0,0.0,0.0,0.0,0.0,0.0,0.0,0.0,0.0,0.0,0.0,0.0,0.0,0.0,0.0,0.0,0.0,0.0,0.0,0.0,0.0,0.0,0.0,0.0,0.0,0.0,0.0,0.0,0.0,0.0,0.0,0.0,0.0,0.0,0.0,0.0,0.0,0.0,0.0,0.0,0.0,0.0,0.0,0.0,0.0,0.0,0.0,0.0,0.0,0.0,0.0,0.0,0.0,0.0,0.0,0.0,0.0,0.0,0.0,0.0,0.0,0.0,0.0,0.0,0.0,0.0,0.0,0.0,0.0,0.0,0.0,0.0,0.0,0.0,0.0,0.0,0.0,0.0,0.0,0.0,0.0,0.0,0.0,0.0,0.0,0.0,0.0,0.0,0.0,0.0,0.0,0.0,0.0,0.0,0.0,0.0,0.0,0.0,0.0,0.0,0.0,0.0,0.0,0.0,0.0,1.5173,0.0,0.0,0.0,0.0,0.0,0.0,0.0,0.0,0.0,0.0,0.0,0.0,0.0,0.0,0.0,0.0,0.0,0.0,0.0,0.0,0.0,0.0,0.0,0.0,0.0,0.0,0.0,0.0,0.0,0.0,0.0,0.0,0.0,0.0,0.0,0.0,0.0,0.0,0.0,0.0,0.0,0.0,0.0,0.0,0.0,0.0,0.0,0.0,0.0,0.0,0.0,0.0,0.0,0.0,0.0,0.0,0.0,0.0,0.0,0.0,0.0,0.0,0.0,0.0,0.0,0.0,0.0,0.0,0.0,0.0,0.0,0.0,0.0,0.0,0.0,0.0,0.0,0.0,0.0,0.0,0.0,0.0,0.0,0.0,0.0,0.0,0.0,0.0,0.0,0.0,0.0,0.0,0.0,0.0,0.0,0.0,0.0,0.0,0.0,0.0,0.0,0.0,0.0,0.0,0.0,0.0,0.0,0.0,0.0,0.0,1.7412,1.6584,1.6903,1.6625,1.5685,0.0,0.0,0.0,0.0,0.0,0.0,0.0,0.0,0.0,0.0,0.0,0.0,0.0,0.0,0.0,0.0,0.0,0.0,0.0,0.0,0.0,0.0,0.0,0.0,0.0,0.0,0.0,0.0,0.0,0.0,0.0,0.0,0.0,0.0,0.0,0.0,0.0,0.0,0.0,0.0,0.0,0.0,0.0,0.0,0.0,0.0,0.0,0.0,0.0,0.0,0.0,0.0,0.0,0.0,0.0,0.0,0.0,0.0,0.0,0.0,0.0,0.0,0.0,0.0,0.0,0.0,0.0,0.0,0.0,0.0,0.0,0.0,0.0,0.0,0.0,0.0,0.0,0.0,0.0,0.0,0.0,0.0,0.0,0.0,0.0,0.0,0.0,0.0,0.0,0.0,0.0,0.0,0.0,0.0,0.0,0.0,0.0,0.0,0.0,0.0,0.0,0.0,0.0,0.0,0.0,0.0,0.0,0.0,0.0,0.0,0.0,0.0,1.7311,1.7176,1.6253,0.0,0.0,0.0,0.0,0.0,0.0,0.0,0.0,0.0,0.0,0.0,0.0,0.0,0.0,0.0,0.0,0.0,0.0,0.0,0.0,0.0,0.0,0.0,0.0,0.0,0.0,0.0,0.0,0.0,0.0,0.0,0.0,0.0,0.0,0.0,0.0,0.0,0.0,0.0,0.0,0.0,0.0,0.0,0.0,0.0,0.0,0.0,0.0,0.0,0.0,0.0,0.0,0.0,0.0,0.0,0.0,0.0,0.0,0.0,0.0,0.0,0.0,0.0,0.0,0.0,0.0,0.0,0.0,0.0,0.0,0.0,0.0,0.0,0.0,0.0,0.0,0.0,0.0,0.0,0.0,0.0,0.0,0.0,0.0,0.0,0.0,0.0,0.0,0.0,0.0,0.0,0.0,0.0,0.0,0.0,0.0,0.0,0.0,0.0,0.0,0.0,0.0,0.0,0.0,0.0,0.0,0.0,0.0,0.0,0.0,1.7727,1.7586,1.7585,0.0,1.658,0.0,0.0,0.0,0.0,0.0,0.0,0.0,0.0,0.0,0.0,0.0,0.0,0.0,0.0,0.0,0.0,0.0,0.0,0.0,0.0,0.0,0.0,0.0,0.0,0.0,0.0,0.0,0.0,0.0,0.0,0.0,0.0,0.0,0.0,0.0,0.0,0.0,0.0,0.0,0.0,0.0,0.0,0.0,0.0,0.0,0.0,0.0,0.0,0.0,0.0,0.0,0.0,0.0,0.0,0.0,0.0,0.0,0.0,0.0,0.0,0.0,0.0,0.0,0.0,0.0,0.0,0.0,0.0,0.0,0.0,0.0,0.0,0.0,0.0,0.0,0.0,0.0,0.0,0.0,0.0,0.0,0.0,0.0,0.0,0.0,0.0,0.0,0.0,0.0,0.0,0.0,0.0,0.0,0.0,0.0,0.0,0.0,0.0,0.0,0.0,0.0,0.0,0.0,0.0,0.0,0.0,0.0,0.0,0.0,0.0,1.776,1.7698,1.7519,1.7167,0.0,0.0,0.0,0.0,0.0,0.0,0.0,0.0,0.0,0.0,0.0,0.0,0.0,0.0,0.0,0.0,0.0,0.0,0.0,0.0,0.0,0.0,0.0,0.0,0.0,0.0,0.0,0.0,0.0,0.0,0.0,0.0,0.0,0.0,0.0,0.0,0.0,0.0,0.0,0.0,0.0,0.0,0.0,0.0,0.0,0.0,0.0,0.0,0.0,0.0,0.0,0.0,0.0,0.0,0.0,0.0,0.0,0.0,0.0,0.0,0.0,0.0,0.0,0.0,0.0,0.0,0.0,0.0,0.0,0.0,0.0,0.0,0.0,0.0,0.0,0.0,0.0,0.0,0.0,0.0,0.0,0.0,0.0,0.0,0.0,0.0,0.0,0.0,0.0,0.0,0.0,0.0,0.0,0.0,0.0,0.0,0.0,0.0,0.0,0.0,0.0,0.0,0.0,0.0,0.0,0.0,0.0,0.0,0.0,0.0,1.7755,1.7766,1.7664,1.7432,1.7093,1.6623,0.0,0.0,0.0,0.0,0.0,0.0,0.0,0.0,0.0,0.0,0.0,0.0,0.0,0.0,0.0,0.0,0.0,0.0,0.0,0.0,0.0,0.0,0.0,0.0,0.0,0.0,0.0,0.0,0.0,0.0,0.0,0.0,0.0,0.0,0.0,0.0,0.0,0.0,0.0,0.0,0.0,0.0,0.0,0.0,0.0,0.0,0.0,0.0,0.0,0.0,0.0,0.0,0.0,0.0,0.0,0.0,0.0,0.0,0.0,0.0,0.0,0.0,0.0,0.0,0.0,0.0,0.0,0.0,0.0,0.0,0.0,0.0,0.0,0.0,0.0,0.0,0.0,0.0,0.0,0.0,0.0,0.0,0.0,0.0,0.0,0.0,0.0,0.0,0.0,0.0,0.0,0.0,0.0,0.0,0.0,0.0,0.0,0.0,0.0,0.0,0.0,0.0,0.0,0.0,0.0,0.0,0.0,0.0,1.7687,1.776,1.7743,1.7612,1.7455,1.7126,0.0,0.0,0.0,0.0,0.0,0.0,0.0,0.0,0.0,0.0,0.0,0.0,0.0,0.0,0.0,0.0,0.0,0.0,0.0,0.0,0.0,0.0,0.0,0.0,0.0,0.0,0.0,0.0,0.0,0.0,0.0,0.0,0.0,0.0,0.0,0.0,0.0,0.0,0.0,0.0,0.0,0.0,0.0,0.0,0.0,0.0,0.0,0.0,0.0,0.0,0.0,0.0,0.0,0.0,0.0,0.0,0.0,0.0,0.0,0.0,0.0,0.0,0.0,0.0,0.0,0.0,0.0,0.0,0.0,0.0,0.0,0.0,0.0,0.0,0.0,0.0,0.0,0.0,0.0,0.0,0.0,0.0,0.0,0.0,0.0,0.0,0.0,0.0,0.0,0.0,0.0,0.0,0.0,0.0,0.0,0.0,0.0,0.0,0.0,0.0,0.0,0.0,0.0,0.0,0.0,0.0,0.0,0.0,0.0,1.7698,1.776,1.7743,1.7601,1.7432,1.7089,0.0,0.0,0.0,0.0,0.0,0.0,0.0,0.0,0.0,0.0,0.0,0.0,0.0,0.0,0.0,0.0,0.0,0.0,0.0,0.0,0.0,0.0,0.0,0.0,0.0,0.0,0.0,0.0,0.0,0.0,0.0,0.0,0.0,0.0,0.0,0.0,0.0,0.0,0.0,0.0,0.0,0.0,0.0,0.0,0.0,0.0,0.0,0.0,0.0,0.0,0.0,0.0,0.0,0.0,0.0,0.0,0.0,0.0,0.0,0.0,0.0,0.0,0.0,0.0,0.0,0.0,0.0,0.0,0.0,0.0,0.0,0.0,0.0,0.0,0.0,0.0,0.0,0.0,0.0,0.0,0.0,0.0,0.0,0.0,0.0,0.0,0.0,0.0,0.0,0.0,0.0,0.0,0.0,0.0,0.0,0.0,0.0,0.0,0.0,0.0,0.0,0.0,0.0,0.0,0.0,0.0,0.0,0.0,0.0,1.7698,0.0,1.7356,1.7204,1.7002,1.6621,0.0,0.0,0.0,0.0,0.0,0.0,0.0,0.0,0.0,0.0,0.0,0.0,0.0,0.0,0.0,0.0,0.0,0.0,0.0,0.0,0.0,0.0,0.0,0.0,0.0,0.0,0.0,0.0,0.0,0.0,0.0,0.0,0.0,0.0,0.0,0.0,0.0,0.0,0.0,0.0,0.0,0.0,0.0,0.0,0.0,0.0,0.0,0.0,0.0,0.0,0.0,0.0,0.0,0.0,0.0,0.0,0.0,0.0,0.0,0.0,0.0,0.0,0.0,0.0,0.0,0.0,0.0,0.0,0.0,0.0,0.0,0.0,0.0,0.0,0.0,0.0,0.0,0.0,0.0,0.0,0.0,0.0,0.0,0.0,0.0,0.0,0.0,0.0,0.0,0.0,0.0,0.0,0.0,0.0,0.0,0.0,0.0,0.0,0.0,0.0,0.0,0.0,0.0,0.0,0.0,0.0,0.0,0.0,1.7647,1.7681,1.7014,1.6585,1.642,1.6177,1.5763,0.0,0.0,0.0,0.0,0.0,0.0,0.0,0.0,0.0,0.0,0.0,0.0,0.0,0.0,0.0,0.0,0.0,0.0,0.0,0.0,0.0,0.0,0.0,0.0,0.0,0.0,0.0,0.0,0.0,0.0,0.0,0.0,0.0,0.0,0.0,0.0,0.0,0.0,0.0,0.0,0.0,0.0,0.0,0.0,0.0,0.0,0.0,0.0,0.0,0.0,0.0,0.0,0.0,0.0,0.0,0.0,0.0,0.0,0.0,0.0,0.0,0.0,0.0,0.0,0.0,0.0,0.0,0.0,0.0,0.0,0.0,0.0,0.0,0.0,0.0,0.0,0.0,0.0,0.0,0.0,0.0,0.0,0.0,0.0,0.0,0.0,0.0,0.0,0.0,0.0,0.0,0.0,0.0,0.0,0.0,0.0,0.0,0.0,0.0,0.0,0.0,0.0,0.0,0.0,0.0,0.0,0.0,0.0,0.0,1.7698,1.6992,1.6525,1.6342,1.6045,1.5592,0.0,0.0,0.0,0.0,0.0,0.0,0.0,0.0,0.0,0.0,0.0,0.0,0.0,0.0,0.0,0.0,0.0,0.0,0.0,0.0,0.0,0.0,0.0,0.0,0.0,0.0,0.0,0.0,0.0,0.0,0.0,0.0,0.0,0.0,0.0,0.0,0.0,0.0,0.0,0.0,0.0,0.0,0.0,0.0,0.0,0.0,0.0,0.0,0.0,0.0,0.0,0.0,0.0,0.0,0.0,0.0,0.0,0.0,0.0,0.0,0.0,0.0,0.0,0.0,0.0,0.0,0.0,0.0,0.0,0.0,0.0,0.0,0.0,0.0,0.0,0.0,0.0,0.0,0.0,0.0,0.0,0.0,0.0,0.0,0.0,0.0,0.0,0.0,0.0,0.0,0.0,0.0,0.0,0.0,0.0,0.0,0.0,0.0,0.0,0.0,0.0,0.0,0.0,0.0,0.0,0.0,0.0,0.0,0.0,1.755,1.6597,1.5978,1.5747,1.5356,1.4866,1.4284,0.0,0.0,0.0,0.0,0.0,0.0,0.0,0.0,0.0,0.0,0.0,0.0,0.0,0.0,0.0,0.0,0.0,0.0,0.0,0.0,0.0,0.0,0.0,0.0,0.0,0.0,0.0,0.0,0.0,0.0,0.0,0.0,0.0,0.0,0.0,0.0,0.0,0.0,0.0,0.0,0.0,0.0,0.0,0.0,0.0,0.0,0.0,0.0,0.0,0.0,0.0,0.0,0.0,0.0,0.0,0.0,0.0,0.0,0.0,0.0,0.0,0.0,0.0,0.0,0.0,0.0,0.0,0.0,0.0,0.0,0.0,0.0,0.0,0.0,0.0,0.0,0.0,0.0,0.0,0.0,0.0,0.0,0.0,0.0,0.0,0.0,0.0,0.0,0.0,0.0,0.0,0.0,0.0,0.0,0.0,0.0,0.0,0.0,0.0,0.0,0.0,0.0,0.0,0.0,0.0,0.0,0.0,0.0,1.7384,1.5967,1.5103,1.4813,1.4334,1.378,0.0,0.0,0.0,0.0,0.0,0.0,0.0,0.0,0.0,0.0,0.0,0.0,0.0,0.0,0.0,0.0,0.0,0.0,0.0,0.0,0.0,0.0,0.0,0.0,0.0,0.0,0.0,0.0,0.0,0.0,0.0,0.0,0.0,0.0,0.0,0.0,0.0,0.0,0.0,0.0,0.0,0.0,0.0,0.0,0.0,0.0,0.0,0.0,0.0,0.0,0.0,0.0,0.0,0.0,0.0,0.0,0.0,0.0,0.0,0.0,0.0,0.0,0.0,0.0,0.0,0.0,0.0,0.0,0.0,0.0,0.0,0.0,0.0,0.0,0.0,0.0,0.0,0.0,0.0,0.0,0.0,0.0,0.0,0.0,0.0,0.0,0.0,0.0,0.0,0.0,0.0,0.0,0.0,0.0,0.0,0.0,0.0,0.0,0.0,0.0,0.0,0.0,0.0,0.0,0.0,0.0,0.0,0.0,0.0,1.7203,1.6144,1.5286,1.4692,1.4568,1.3989,0.0,0.0,0.0,0.0,0.0,0.0,0.0,0.0,0.0,0.0,0.0,0.0,0.0,0.0,0.0,0.0,0.0,0.0,0.0,0.0,0.0,0.0,0.0,0.0,0.0,0.0,0.0,0.0,0.0,0.0,0.0,0.0,0.0,0.0,0.0,0.0,0.0,0.0,0.0,0.0,0.0,0.0,0.0,0.0,0.0,0.0,0.0,0.0,0.0,0.0,0.0,0.0,0.0,0.0,0.0,0.0,0.0,0.0,0.0,0.0,0.0,0.0,0.0,0.0,0.0,0.0,0.0,0.0,0.0,0.0,0.0,0.0,0.0,0.0,0.0,0.0,0.0,0.0,0.0,0.0,0.0,0.0,0.0,0.0,0.0,0.0,0.0,0.0,0.0,0.0,0.0,0.0,0.0,0.0,0.0,0.0,0.0,0.0,0.0,0.0,0.0,0.0,0.0,0.0,0.0,0.0,0.0,0.0,1.7117,1.7076,1.6415,1.5628,1.4702,1.4566,1.3968,0.0,0.0,0.0,0.0,0.0,0.0,0.0,0.0,0.0,0.0,0.0,0.0,0.0,0.0,0.0,0.0,0.0,0.0,0.0,0.0,0.0,0.0,0.0,0.0,0.0,0.0,0.0,0.0,0.0,0.0,0.0,0.0,0.0,0.0,0.0,0.0,0.0,0.0,0.0,0.0,0.0,0.0,0.0,0.0,0.0,0.0,0.0,0.0,0.0,0.0,0.0,0.0,0.0,0.0,0.0,0.0,0.0,0.0,0.0,0.0,0.0,0.0,0.0,0.0,0.0,0.0,0.0,0.0,0.0,0.0,0.0,0.0,0.0,0.0,0.0,0.0,0.0,0.0,0.0,0.0,0.0,0.0,0.0,0.0,0.0,0.0,0.0,0.0,0.0,0.0,0.0,0.0,0.0,0.0,0.0,0.0,0.0,0.0,0.0,0.0,0.0,0.0,0.0,0.0,0.0,0.0,0.0,0.0,1.6917,1.6863,1.663,1.5975,1.4823,1.4454,1.3851,0.0,0.0,0.0,0.0,0.0,0.0,0.0,0.0,0.0,0.0,0.0,0.0,0.0,0.0,0.0,0.0,0.0,0.0,0.0,0.0,0.0,0.0,0.0,0.0,0.0,0.0,0.0,0.0,0.0,0.0,0.0,0.0,0.0,0.0,0.0,0.0,0.0,0.0,0.0,0.0,0.0,0.0,0.0,0.0,0.0,0.0,0.0,0.0,0.0,0.0,0.0,0.0,0.0,0.0,0.0,0.0,0.0,0.0,0.0,0.0,0.0,0.0,0.0,0.0,0.0,0.0,0.0,0.0,0.0,0.0,0.0,0.0,0.0,0.0,0.0,0.0,0.0,0.0,0.0,0.0,0.0,0.0,0.0,0.0,0.0,0.0,0.0,0.0,0.0,0.0,0.0,0.0,0.0,0.0,0.0,0.0,0.0,0.0,0.0,0.0,0.0,0.0,0.0,0.0,0.0,0.0,0.0,0.0,1.6557,1.6581,1.6248,1.5567,1.4591,1.4732,1.4134,0.0,0.0,0.0,0.0,0.0,0.0,0.0,0.0,0.0,0.0,0.0,0.0,0.0,0.0,0.0,0.0,0.0,0.0,0.0,0.0,0.0,0.0,0.0,0.0,0.0,0.0,0.0,0.0,0.0,0.0,0.0,0.0,0.0,0.0,0.0,0.0,0.0,0.0,0.0,0.0,0.0,0.0,0.0,0.0,0.0,0.0,0.0,0.0,1.0275,0.0,0.0,0.0,0.0,0.0,0.0,0.0,0.0,0.0,0.0,0.0,0.0,0.0,0.0,0.0,0.0,0.0,0.0,0.0,0.0,0.0,0.0,0.0,0.0,0.0,0.0,0.0,0.0,0.0,0.0,0.0,0.0,0.0,0.0,0.0,0.0,0.0,0.0,0.0,0.0,0.0,0.0,0.0,0.0,0.0,0.0,0.0,0.0,0.0,0.0,0.0,0.0,0.0,0.0,0.0,0.0,0.0,0.0,0.0,1.6275,1.6285,1.5954,1.5283,1.4312,1.4252,1.3647,0.0,0.0,0.0,0.0,0.0,0.0,0.0,0.0,0.0,0.0,0.0,0.0,0.0,0.0,0.0,0.0,0.0,0.0,0.0,0.0,0.0,0.0,0.0,0.0,0.0,0.0,0.0,0.0,0.0,0.0,0.0,0.0,0.0,0.0,0.0,0.0,0.0,0.0,0.0,0.0,0.0,0.0,0.0,0.0,0.0,0.0,0.0,0.0,0.0,0.0,0.0,0.0,0.0,0.0,0.0,0.0,0.0,0.0,0.0,0.0,0.0,0.0,0.0,0.0,0.0,0.0,0.0,0.0,0.0,0.0,0.0,0.0,0.0,0.0,0.0,0.0,0.0,0.0,0.0,0.0,0.0,0.0,0.0,0.0,0.0,0.0,0.0,0.0,0.0,0.0,0.0,0.0,0.0,0.0,0.0,0.0,0.0,0.0,0.0,0.0,0.0,0.0,0.0,0.0,0.0,0.0,0.0,1.608,1.6011,1.5997,1.5667,1.4936,1.3842,1.3459,1.2779,1.1814,0.0,0.0,0.0,0.0,0.0,0.0,0.0,0.0,0.0,0.0,0.0,0.0,0.0,0.0,0.0,0.0,0.0,0.0,0.0,0.0,0.0,0.0,0.0,0.0,0.0,0.0,0.0,0.0,0.0,0.0,0.0,0.0,0.0,0.0,0.0,0.0,0.0,0.0,0.9736,0.9658,0.0,0.0,0.0,0.0,0.0,0.0,0.0,0.0,1.0327,0.0,0.0,0.0,0.0,0.0,0.0,0.0,0.0,0.0,0.0,0.0,0.0,0.0,0.0,0.0,0.0,0.0,0.0,0.0,0.0,0.0,0.0,0.0,0.0,0.0,0.0,0.0,0.0,0.0,0.0,0.0,0.0,0.0,0.0,0.0,0.0,0.0,0.0,0.0,0.0,0.0,0.0,0.0,0.0,0.0,0.0,0.0,0.0,0.0,0.0,0.0,0.0,0.0,0.0,0.0,0.0,1.6038,1.5754,1.5595,1.561,1.5224,1.4351,1.2983,1.2735,1.1941,1.0478,0.0,0.0,0.0,0.0,0.0,0.0,0.0,0.0,0.0,0.0,0.0,0.0,0.0,0.0,0.0,0.0,0.0,0.0,0.0,0.0,0.0,0.0,0.0,0.0,0.0,0.0,0.0,0.0,0.0,0.0,0.0,0.0,0.0,0.0,0.0,0.0,0.0,0.0,0.0,0.9802,0.9736,0.0,0.0,0.0,0.0,0.0,0.0,0.0,0.0,1.1057,0.0,0.0,0.0,0.0,0.0,0.0,0.0,0.0,0.0,0.0,0.0,0.0,0.0,0.0,0.0,0.0,0.0,0.0,0.0,0.0,0.0,0.0,0.0,0.0,0.0,0.0,0.0,0.0,0.0,0.0,0.0,0.0,0.0,0.0,0.0,0.0,0.0,0.0,0.0,0.0,0.0,0.0,0.0,0.0,0.0,0.0,0.0,0.0,0.0,0.0,0.0,0.0,0.0,0.0,0.0,1.558,1.5329,1.5193,1.5164,1.4561,1.3631,1.2439,1.1928,1.1046,0.0,0.0,0.0,0.0,0.0,0.0,0.0,0.0,0.0,0.0,0.0,0.0,0.0,0.0,0.0,0.0,0.0,0.0,0.0,0.0,0.0,0.0,0.0,0.0,0.0,0.0,0.0,0.0,0.0,0.0,0.0,0.0,0.0,0.0,0.0,0.0,0.0,0.0,0.0,0.0,1.0386,1.0138,0.9667,0.0,0.0,0.0,0.0,0.0,0.0,1.1185,1.1406,0.0,0.0,0.0,0.0,0.0,0.0,0.0,0.0,0.0,0.0,0.0,0.0,0.0,0.0,0.0,0.0,0.0,0.0,0.0,0.0,0.0,0.0,0.0,0.0,0.0,0.0,0.0,0.0,0.0,0.0,0.0,0.0,0.0,0.0,0.0,0.0,0.0,0.0,0.0,0.0,0.0,0.0,0.0,0.0,0.0,0.0,0.0,0.0,0.0,0.0,0.0,0.0,0.0,0.0,0.0,1.513,1.4805,1.4682,1.4735,1.3793,1.2853,1.1981,1.1281,1.04,0.0,0.0,0.0,0.0,0.0,0.0,0.0,0.0,0.0,0.0,0.0,0.0,0.0,0.0,0.0,0.0,0.0,0.0,0.0,0.0,0.0,0.0,0.0,0.0,0.0,0.0,0.0,0.0,0.0,0.0,0.0,0.0,0.0,0.0,0.0,0.0,0.0,0.0,0.0,0.0,0.0,1.0626,0.9944,0.9829,0.0,0.0,0.0,0.0,1.149,1.1681,0.0,0.0,0.0,0.0,0.0,0.0,0.0,0.0,0.0,0.0,0.0,0.0,0.0,0.0,0.0,0.0,0.0,0.0,0.0,0.0,0.0,0.0,0.0,0.0,0.0,0.0,0.0,0.0,0.0,0.0,0.0,0.0,0.0,0.0,0.0,0.0,0.0,0.0,0.0,0.0,0.0,0.0,0.0,0.0,0.0,0.0,0.0,0.0,0.0,0.0,0.0,0.0,0.0,0.0,0.0,0.0,1.4839,1.4123,1.3972,1.4283,1.2934,1.1958,1.1497,1.1153,1.0301,0.0,0.0,0.0,0.0,0.0,0.0,0.0,0.0,0.0,0.0,0.0,0.0,0.0,0.0,0.0,0.0,0.0,0.0,0.0,0.0,0.0,0.0,0.0,0.0,0.0,0.0,0.0,0.0,0.0,0.0,0.0,0.0,0.0,0.0,0.0,0.0,0.0,0.0,0.0,0.0,0.0,1.1039,1.0699,1.0618,1.0575,0.0,0.0,1.1532,1.1445,1.1915,0.0,0.0,0.0,0.0,0.0,0.0,0.0,0.0,0.0,0.0,0.0,0.0,0.0,0.0,0.0,0.0,0.0,0.0,0.0,0.0,0.0,0.0,0.0,0.0,0.0,0.0,0.0,0.0,0.0,0.0,0.0,0.0,0.0,0.0,0.0,0.0,0.0,0.0,0.0,0.0,0.0,0.0,0.0,0.0,0.0,0.0,0.0,0.0,0.0,0.0,0.0,0.0,0.0,0.0,0.0,1.5179,1.3932,1.3479,1.3296,1.3338,1.1919,1.1106,1.0996,1.0344,0.9535,0.0,0.0,0.0,0.0,0.0,0.0,0.0,0.0,0.0,0.0,0.0,0.0,0.0,0.0,0.0,0.0,0.0,0.0,0.0,0.0,0.0,0.0,0.0,0.0,0.0,0.0,0.0,0.0,0.0,0.0,0.0,0.0,0.0,0.0,0.0,0.0,0.0,0.0,0.0,0.0,0.0,0.0,1.1332,1.1184,0.0,0.0,0.0,1.215,1.2582,0.0,0.0,0.0,0.0,0.0,0.0,0.0,0.0,0.0,0.0,0.0,0.0,0.0,0.0,0.0,0.0,0.0,0.0,0.0,0.0,0.0,0.0,0.0,0.0,0.0,0.0,0.0,0.0,0.0,0.0,0.0,0.0,0.0,0.0,0.0,0.0,0.0,0.0,0.0,0.0,0.0,0.0,0.0,0.0,0.0,0.0,0.0,0.0,0.0,0.0,0.0,0.0,0.0,0.0,0.0,0.0,0.0,1.3183,1.283,1.2644,1.2469,1.0915,1.0217,1.0468,0.9617,0.0,0.0,0.0,0.0,0.0,0.0,0.0,0.0,0.0,0.0,0.0,0.0,0.0,0.0,0.0,0.0,0.0,0.0,0.0,0.0,0.0,0.0,0.0,0.0,0.0,0.0,0.0,1.171,0.0,0.0,0.0,0.0,0.0,0.0,0.0,0.0,0.0,0.0,0.0,0.0,0.0,0.0,1.2753,1.2005,1.1837,1.2102,0.0,0.0,1.2849,1.3484,1.307,1.2627,0.0,0.0,0.0,0.0,0.0,0.0,0.0,0.0,0.0,0.0,0.0,0.0,0.0,0.0,0.0,0.0,0.0,0.0,0.0,0.0,0.0,0.0,0.0,0.0,0.0,0.0,0.0,0.0,0.0,0.0,0.0,0.0,0.0,0.0,0.0,0.0,0.0,0.0,0.0,0.0,0.0,0.0,0.0,0.0,0.0,0.0,0.0,0.0,0.0,0.0,0.0,0.0,0.0,0.0,0.0,1.297,1.2241,1.1951,1.1989,1.0041,0.9306,0.9923,0.9362,0.8822,0.0,0.0,0.0,0.0,0.0,0.0,0.0,0.0,0.0,0.0,0.0,0.0,0.0,0.0,0.0,0.0,0.0,0.0,0.0,0.0,0.0,0.0,0.0,0.0,0.0,0.0,0.0,0.0,0.0,0.0,0.0,0.0,0.0,0.0,0.0,0.0,0.0,0.0,0.0,0.0,0.0,1.3006,1.274,1.2662,1.2769,0.0,0.0,1.3809,1.3549,1.3363,1.2981,1.2237,0.0,0.0,0.0,0.0,0.0,0.0,0.0,0.0,0.0,0.0,0.0,0.0,0.0,0.0,0.0,0.0,0.0,0.0,0.0,0.0,0.0,0.0,0.0,0.0,0.0,0.0,0.0,0.0,0.0,0.0,0.0,0.0,0.0,0.0,0.0,0.0,0.0,0.0,0.0,0.0,0.0,0.0,0.0,0.0,0.0,0.0,0.0,0.0,0.0,0.0,0.0,0.0,0.0,1.4459,1.2558,1.2143,1.1652,1.1059,0.9968,0.9446,0.9512,0.9203,0.8965,0.0,0.0,0.0,0.0,0.0,0.0,0.0,0.0,0.0,0.0,0.0,0.0,0.0,0.0,0.0,0.0,0.0,0.0,0.0,0.0,0.0,0.0,0.0,0.0,0.0,0.0,0.0,0.0,1.1515,1.1459,1.1586,0.0,0.0,0.0,0.0,0.0,0.0,0.0,0.0,0.0,0.0,1.35,1.3324,1.3242,0.0,0.0,1.4007,1.3988,1.4433,1.3779,1.3127,1.2834,1.2632,0.0,0.0,0.0,0.0,0.0,0.0,0.0,0.0,0.0,0.0,0.0,0.0,0.0,0.0,0.0,0.0,0.0,0.0,0.0,0.0,0.0,0.0,0.0,0.0,0.0,0.0,0.0,0.0,0.0,0.0,0.0,0.0,0.0,0.0,0.0,0.0,0.0,0.0,0.0,0.0,0.0,0.0,0.0,0.0,0.0,0.0,0.0,0.0,0.0,0.0,0.0,0.0,1.4183,1.2254,1.2045,1.1491,1.0575,0.996,0.9551,0.9363,0.9194,0.9087,0.0,0.0,0.0,0.0,0.0,0.0,0.0,0.0,0.0,0.0,0.0,0.0,0.0,0.0,0.0,0.0,0.0,0.0,0.0,0.0,0.0,0.0,0.0,0.0,0.0,0.0,0.0,0.0,1.1528,1.145,1.165,0.0,0.0,0.0,0.0,0.0,0.0,0.0,0.0,0.0,0.0,1.3745,1.3644,1.3514,1.3722,1.4469,1.4056,1.3928,1.4699,1.3986,1.3369,1.3337,0.0,0.0,0.0,0.0,0.0,0.0,0.0,0.0,0.0,0.0,0.0,0.0,0.0,0.0,0.0,0.0,0.0,0.0,0.0,0.0,0.0,0.0,0.0,0.0,0.0,0.0,0.0,0.0,0.0,0.0,0.0,0.0,0.0,0.0,0.0,0.0,0.0,0.0,0.0,0.0,0.0,0.0,0.0,0.0,0.0,0.0,0.0,0.0,0.0,0.0,0.0,0.0,0.0,1.4061,1.2152,1.1916,1.1444,1.069,0.9923,0.9513,0.9482,0.9291,0.918,0.9115,0.0,0.0,0.0,0.0,0.0,0.0,0.0,0.0,0.0,0.0,0.0,0.0,0.0,0.0,0.0,0.0,0.0,0.0,0.0,0.0,0.0,0.0,0.0,0.0,0.0,0.0,1.194,1.1951,1.205,0.0,0.0,0.0,0.0,0.0,0.0,0.0,0.0,0.0,0.0,1.3678,1.3615,1.3598,1.3463,1.3542,1.3955,1.3785,1.3724,1.4114,1.394,1.3755,0.0,0.0,0.0,0.0,0.0,0.0,0.0,0.0,0.0,0.0,0.0,0.0,0.0,0.0,0.0,0.0,0.0,0.0,0.0,0.0,0.0,0.0,0.0,0.0,0.0,0.0,0.0,0.0,1.4499,0.0,0.0,0.0,0.0,0.0,0.0,0.0,0.0,0.0,0.0,0.0,1.2861,1.273,0.0,0.0,0.0,0.0,0.0,0.0,0.0,0.0,0.0,0.0,0.0,0.0,1.4072,1.2745,1.2147,1.1371,1.034,1.015,0.9841,0.9319,0.9449,0.964,0.9897,0.0,0.0,0.0,0.0,0.0,0.0,0.0,0.0,0.0,0.0,0.0,0.0,0.0,0.0,0.0,0.0,0.0,0.0,0.0,0.0,0.0,0.0,0.0,0.0,0.0,1.2294,0.0,0.0,0.0,0.0,0.0,0.0,0.0,0.0,0.0,0.0,0.0,1.3472,1.3522,1.3493,1.3463,1.3459,1.3318,1.3435,0.0,0.0,0.0,0.0,0.0,0.0,0.0,0.0,0.0,0.0,0.0,0.0,0.0,0.0,1.5971,1.633,1.6338,1.6351,1.6534,0.0,0.0,0.0,0.0,0.0,0.0,0.0,0.0,0.0,0.0,0.0,0.0,0.0,0.0,0.0,0.0,1.4344,0.0,0.0,0.0,0.0,0.0,0.0,0.0,0.0,1.3204,1.2973,1.2627,1.2505,1.2397,0.0,1.2397,1.2584,0.0,0.0,0.0,0.0,0.0,0.0,0.0,0.0,1.4066,1.2923,1.2302,1.1452,1.0356,1.0337,1.007,0.9422,0.9536,0.9721,0.9905,1.0062,1.0252,0.0,0.0,0.0,0.0,0.0,0.0,0.0,0.0,0.0,0.0,0.0,0.0,0.0,0.0,0.0,0.0,0.0,0.0,0.0,0.0,0.0,0.0,0.0,1.226,0.0,0.0,0.0,0.0,0.0,0.0,0.0,0.0,0.0,1.3373,1.3343,1.3293,1.3176,1.3301,1.3316,1.3112,0.0,0.0,0.0,0.0,0.0,0.0,0.0,1.4202,1.4427,1.4166,1.4138,1.4721,1.5191,1.5525,1.5657,0.0,0.0,1.5986,1.6098,1.611,1.6204,1.5945,1.5605,1.5335,1.5081,1.466,0.0,0.0,0.0,0.0,0.0,0.0,0.0,0.0,1.4537,1.455,0.0,1.4094,0.0,0.0,0.0,0.0,0.0,0.0,0.0,0.0,1.2759,1.2612,1.2499,1.2385,1.2262,1.2162,1.228,1.2345,1.2385,1.3316,0.0,0.0,0.0,0.0,0.0,0.0,1.4046,1.2785,1.2381,1.17,1.0642,1.0419,1.0137,0.9774,0.9565,0.9395,0.9214,0.9567,0.9759,0.9768,1.0149,0.0,0.0,0.0,0.0,0.0,0.0,0.0,0.0,0.0,0.0,0.0,0.0,0.0,0.0,0.0,0.0,0.0,0.0,0.0,0.0,1.2168,0.0,0.0,0.0,0.0,0.0,0.0,0.0,0.0,0.0,0.0,1.3194,1.3399,1.338,1.2812,0.0,0.0,0.0,0.0,1.2557,1.2912,1.2815,1.3051,1.3881,1.3916,1.3949,1.4332,0.0,0.0,1.4651,1.48,1.4949,1.504,1.4697,1.4663,1.5533,1.57,1.5788,1.5962,1.593,1.5888,1.5732,1.5241,1.4789,1.3397,0.0,0.0,0.0,0.0,1.4566,1.4701,1.4465,1.4675,1.4513,1.4084,1.3676,0.0,0.0,0.0,0.0,0.0,0.0,1.2578,1.2455,1.2431,1.2507,1.2651,1.26,1.2706,1.2964,1.3,1.287,1.261,1.3159,1.355,1.38,0.0,0.0,0.0,0.0,1.3934,1.3141,1.2616,1.1851,1.0834,1.0702,1.0264,0.9457,0.9246,0.9056,0.8923,0.8967,0.9047,0.9084,0.9281,0.0,0.0,0.0,0.0,0.0,0.0,0.0,0.0,0.0,0.0,0.0,0.0,0.0,0.0,0.0,0.0,0.0,0.0,0.0,1.1945,1.2238,1.2453,0.0,0.0,0.0,0.0,0.0,0.0,0.0,0.0,0.0,1.3202,1.3374,1.3488,0.0,0.0,1.3559,1.338,1.3187,1.3159,1.3512,0.0,0.0,0.0,1.3969,1.4012,1.4235,1.4326,1.4419,1.4477,1.4523,1.4512,1.4489,1.428,1.4174,1.4316,1.4605,1.4812,1.488,1.4869,1.4777,1.4558,1.4396,1.4201,1.3818,1.3625,1.3492,1.3587,1.3879,1.4725,1.4953,1.4689,1.4748,1.4541,1.4134,1.3442,1.2999,1.2728,1.2259,0.0,0.0,0.0,1.2244,1.2304,1.2295,1.2403,1.2556,1.2636,1.2797,1.3031,1.3123,1.3068,1.2822,1.3306,1.3588,1.3741,0.0,0.0,1.4351,1.4146,1.3759,1.314,1.2713,1.2059,1.1203,1.0807,1.0182,0.9306,0.9056,0.8862,0.8659,0.8549,0.8549,0.8639,0.8753,0.9193,0.0,0.0,0.0,0.0,0.0,0.0,0.0,0.0,0.0,0.0,0.0,1.1666,1.1626,0.0,0.0,0.0,1.1874,1.2068,1.2221,1.2388,0.0,0.0,0.0,0.0,0.0,0.0,0.0,1.3959,1.3834,1.3673,1.3532,1.3619,1.3616,1.3393,1.3538,1.3573,1.3339,0.0,1.318,1.3554,1.3464,1.349,1.3865,1.3915,1.3905,1.3871,1.3941,1.3999,1.4012,1.4012,1.3988,1.3941,1.3834,1.3668,1.3597,1.3716,1.3915,1.4197,1.4291,1.4233,1.4044,1.3915,1.3773,1.4738,1.4383,1.3873,1.389,1.4261,1.5107,1.5517,1.5577,1.4807,1.4639,1.4805,1.3382,1.2708,1.2598,1.1864,0.0,0.0,1.1802,1.1988,1.229,1.2307,1.2349,1.2403,1.2591,1.2711,1.2746,1.3017,1.3147,1.312,1.3726,1.3941,1.3892,1.3741,1.3717,1.3854,1.3865,1.3577,1.2983,1.279,1.233,1.1609,1.0775,0.9986,0.9261,0.9037,0.8758,0.844,0.8292,0.8255,0.8413,0.8487,0.9089,1.0306,0.0,0.0,0.0,0.0,0.0,0.0,0.0,0.0,0.0,0.0,0.0,0.0,0.0,0.0,0.0,1.2244,0.0,1.2626,1.2574,0.0,0.0,0.0,1.2647,1.2688,1.3387,1.3773,1.363,0.0,0.0,0.0,0.0,1.3713,1.3043,1.3358,1.3422,1.2883,1.284,1.2915,1.3339,1.3326,1.3452,1.3724,1.3773,1.3692,1.3491,1.3396,1.3409,1.3409,1.3409,1.3443,1.3539,1.3338,1.317,1.318,1.3069,1.3089,1.376,1.3986,1.4046,1.3868,1.3702,1.3491,1.5254,1.5407,1.5186,1.5022,1.4972,1.5606,1.5861,1.5841,1.5268,1.4999,1.4874,1.37,1.2805,1.2213,1.1786,1.1542,1.1528,1.1876,1.206,1.2157,1.2527,1.2849,1.3151,1.3353,1.3596,1.3903,1.4268,1.4267,1.3957,1.4472,1.4429,1.3876,1.4013,1.4214,1.4316,1.4419,1.417,1.3526,1.3477,1.2856,1.1709,1.0975,1.0268,0.9584,0.9294,0.9002,0.8709,0.8386,0.8324,0.8606,0.8733,0.9259,1.0197,1.0623,0.0,0.0,0.0,0.0,0.0,0.0,0.0,0.0,0.0,1.2328,1.2071,0.0,1.179,0.0,1.1834,1.2018,1.2157,1.2476,0.0,0.0,1.3209,1.3522,1.3675,1.3929,1.4049,1.3936,1.3924,1.3915,1.3844,1.3763,1.3643,1.346,1.3719,1.3854,1.369,1.3577,1.3563,1.3634,1.3585,1.3567,1.3637,1.3563,1.3491,1.3396,1.3314,1.3242,1.3242,1.3266,1.3266,1.3266,1.3118,1.2983,1.2958,1.2847,1.2798,1.2983,1.3152,1.3238,1.3196,1.3196,1.3172,1.5794,1.5869,1.6131,1.619,1.6059,1.6445,1.6562,1.6445,1.5833,1.5423,1.5083,1.3671,1.2632,1.1916,1.1683,1.1533,1.1564,1.1811,1.2126,1.2479,1.272,1.297,1.3189,1.3437,1.366,1.3866,1.428,1.4465,1.4405,1.4916,1.5005,1.4647,1.4969,1.5088,1.4972,1.4498,1.4069,1.3704,1.3526,1.2934,1.1909,1.1217,1.0507,0.9713,0.9313,0.9012,0.8803,0.8555,0.8573,0.8926,0.9171,0.9647,1.04,1.0789,1.1197,0.0,0.0,0.0,0.0,0.0,0.0,0.0,0.0,0.0,0.0,0.0,1.2047,0.0,0.0,0.0,1.2296,1.2616,1.2816,1.2913,1.329,1.3644,1.3973,1.401,1.3975,1.3844,1.3821,1.3773,1.3716,1.3644,1.361,1.361,1.375,1.381,1.3821,1.375,1.3716,1.3726,1.3644,1.3563,1.3515,1.3467,1.3372,1.3286,1.319,1.3118,1.2997,1.2963,1.2939,1.2866,1.2715,1.2529,1.2554,1.2372,1.2274,1.2348,1.252,1.2725,1.2881,1.2964,1.2978,1.616,1.5951,1.6628,1.6945,1.6995,1.7171,1.7169,1.6999,1.6233,1.5633,1.5086,1.3454,1.2381,1.1822,1.1647,1.1626,1.1758,1.1826,1.2214,1.2912,1.2963,1.3042,1.3035,1.3362,1.3479,1.3407,1.3884,1.4271,1.458,1.5175,1.5501,1.5609,1.5974,1.5929,1.551,1.4392,1.381,1.3788,1.3363,1.2845,1.2159,1.1549,1.0779,0.9845,0.933,0.9047,0.8906,0.8805,0.8901,0.9237,0.9623,1.0088,1.0653,1.097,1.1283,0.0,1.1778,0.0,0.0,0.0,0.0,0.0,0.0,0.0,0.0,1.2529,1.2406,1.2431,1.2529,1.2603,1.2627,1.2759,1.2881,1.2983,1.3142,1.3409,1.3858,1.3844,1.3716,1.3563,1.3644,1.3692,1.3563,1.3549,1.3539,1.3539,1.3539,1.3539,1.3563,1.3597,1.3586,1.3586,1.3573,1.3491,1.3396,1.3372,1.3296,1.3148,1.3075,1.2978,1.2759,1.2691,1.2627,1.2505,1.2274,1.2101,1.2101,1.1927,1.1803,1.1977,1.2224,1.248,1.2749,1.2891,1.2915,1.5665,1.5741,1.5924,1.611,1.6297,1.6315,1.6519,1.679,1.5848,1.4865,1.391,1.3171,1.2683,1.2433,1.2121,1.2005,1.206,1.2479,1.2769,1.2903,1.3395,1.3628,1.3673,1.4026,1.4049,1.3852,1.4543,1.472,1.445,1.5295,1.5489,1.5061,1.5566,1.5611,0.0,0.0,0.0,0.0,1.3797,1.3223,1.2468,1.2085,1.1405,1.038,0.9893,0.0,0.9456,0.9058,0.9092,0.9585,0.9835,0.0,0.0,0.0,0.0,0.0,0.0,0.0,0.0,0.0,0.0,0.0,1.2215,1.2338,1.2372,1.2042,1.1902,1.2002,1.2017,1.2101,1.22,1.2421,1.2676,1.2895,1.319,1.3443,1.3644,1.3644,1.3539,1.329,1.329,1.3314,1.329,1.3266,1.3266,1.3266,1.3266,1.3266,1.3276,1.3443,1.3539,1.3467,1.3372,1.3266,1.3242,1.32,1.3138,1.3075,1.3012,1.2881,1.271,1.2588,1.248,1.2348,1.211,1.1977,1.2051,1.1952,1.1902,1.2184,1.2323,1.248,1.2578,1.2759,1.2881,1.5333,0.0,1.5533,1.5643,0.0,1.565,1.5751,1.5904,1.5338,1.4487,1.3533,1.3303,1.3089,1.2898,1.2712,1.2638,1.2651,1.2951,1.3101,1.3251,1.3551,1.3695,1.3695,1.4022,1.4052,1.3863,1.4469,1.4736,1.4748,1.5388,1.5531,1.5188,1.5613,1.5549,1.5015,1.4774,1.4577,1.4398,1.3904,1.3296,1.2609,1.2042,1.1313,1.0435,0.0,0.0,0.0,0.0,0.0,0.0,0.0,0.0,0.0,0.0,0.0,1.1192,1.1452,1.1603,1.1628,1.1877,1.1943,1.1828,1.1803,1.1852,1.2002,1.1828,1.1728,1.1803,1.1794,1.1877,1.2076,1.2283,1.2554,1.2895,1.3138,1.3344,1.3549,1.343,1.3166,1.2924,1.2924,1.2949,1.2939,1.29,1.2876,1.2852,1.2852,1.2842,1.289,1.318,1.3372,1.3314,1.3242,1.3204,1.3142,1.3065,1.2978,1.2905,1.2725,1.2544,1.2431,1.2224,1.2051,1.1927,1.1694,1.1553,1.1669,1.1594,1.1578,1.1852,1.2002,1.2135,1.22,1.2505,1.2749,1.4922,1.4915,1.511,1.5186,1.5151,1.5006,1.4922,1.4901,0.0,0.0,0.0,1.345,1.3358,1.3206,1.3206,1.3206,1.3213,1.3267,1.338,1.36,1.366,1.368,1.368,1.3878,1.3933,1.3829,1.4223,1.454,1.4786,1.5266,1.5424,1.5335,1.5642,1.5494,1.4865,1.4655,1.4515,1.4406,1.3922,1.3356,1.2704,1.1896,1.1102,1.034,0.971,0.9387,0.9361,0.9237,0.9309,0.9666,1.0061,1.0344,1.0531,1.0947,1.1116,1.1099,1.1326,1.1477,1.1502,1.1619,1.1704,1.175,1.166,1.1642,1.1671,1.1628,1.1603,1.1578,1.1594,1.1703,1.1977,1.2126,1.2431,1.2861,1.2978,1.3138,1.3358,1.3142,1.2764,1.2471,1.2495,1.2569,1.2578,1.2505,1.2406,1.2406,1.2397,1.2372,1.2455,1.2754,1.3011,1.3001,1.2929,1.2963,1.292,1.2798,1.2725,1.2588,1.2397,1.2224,1.2026,1.1828,1.1628,1.1427,1.1192,1.115,1.1226,1.1226,1.1226,1.1494,1.1653,1.1778,1.1918,1.2224,1.2446,1.4264,1.4257,1.425,1.4292,1.4292,1.425,1.4257,1.4223,1.4173,1.3933,1.3567,1.3353,1.3246,1.3206,1.3206,1.3206,1.3227,1.3427,1.3567,0.0,1.3908,1.4021,1.4028,1.4218,1.4186,1.3926,1.4344,1.4362,1.408,1.4723,1.4988,1.4881,1.5083,1.5033,1.4683,1.479,1.4602,1.4079,1.3965,1.3529,1.2721,1.2059,1.1284,1.0336,0.9715,0.9342,0.9237,0.908,0.9113,0.929,0.9543,0.9769,0.9925,1.0352,1.0718,1.0922,1.1167,1.1368,1.1502,1.1619,1.1769,1.1948,1.2028,1.1943,1.1564,1.1326,1.1175,1.1175,1.1209,1.1301,1.1544,1.1828,1.2126,1.2529,1.2676,1.2749,1.2754,1.2642,1.2397,1.1959,1.2067,1.2184,1.215,1.2126,1.2051,1.2002,1.1902,1.1943,1.1977,1.2249,1.2421,1.2397,1.2323,1.2274,1.2298,1.2224,1.2224,1.2175,1.215,1.1977,1.1744,1.1553,1.1352,1.1049,1.0922,1.0922,1.0947,1.115,1.1276,1.1494,1.1678,1.1794,1.1902,1.1893,1.1843,1.4606,1.4563,1.4606,1.4563,1.4563,1.4606,1.4606,1.4593,1.4545,1.4302,1.3881,1.3748,1.3687,1.3687,1.3687,1.3687,1.3694,1.3821,1.3888,1.3901,1.4028,1.4088,1.4088,1.4201,1.4176,1.4061,1.4324,1.4378,1.4199,1.4631,1.4706,1.4479,1.4477,1.4415,1.433,1.4488,1.4353,1.39,1.389,1.3424,1.2513,1.1839,1.1102,1.0228,0.9681,0.9272,0.8989,0.8844,0.8817,0.887,0.9133,0.9335,0.9484,1.0017,1.0385,1.0539,1.0863,1.1183,1.1438,1.1667,1.1854,1.1932,1.2,1.1939,1.174,1.1442,1.1272,1.1264,1.1174,1.12,1.1469,1.1678,1.1952,1.2348,1.2332,1.2298,1.2289,1.2092,1.1803,1.1426,1.141,1.1452,1.1452,1.1326,1.1226,1.115,1.115,1.115,1.1141,1.1251,1.1544,1.2051,1.215,1.2101,1.2076,1.1952,1.1902,1.1877,1.1628,1.1427,1.1242,1.1074,1.0794,1.0616,1.0488,1.047,1.0539,1.0675,1.0845,1.0964,1.1065,1.1167,1.12,1.1124,1.115,1.5015,1.5015,1.5015,1.5015,1.5015,1.5015,1.5015,1.5015,1.5001,1.4754,1.4365,1.4289,1.4331,1.4282,1.4222,1.4182,1.4182,1.4115,1.4122,1.4182,1.4188,1.4215,1.4282,1.4282,1.4255,1.4231,1.4338,1.4389,1.4363,1.4573,1.4586,1.4328,1.4132,1.4052,1.4096,1.4263,1.4156,1.3846,1.3762,1.3282,1.232,1.163,1.0858,1.0143,0.9667,0.9287,0.891,0.8802,0.8682,0.8631,0.8811,0.9024,0.9184,0.9757,1.0169,1.0388,1.0797,1.1163,1.1504,1.183,1.2036,1.2036,1.2081,1.2102,1.2077,1.1758,1.1513,1.145,1.1326,1.1318,1.1464,1.1591,1.1775,1.1995,1.1908,1.1801,1.1755,1.1564,1.1277,1.0964,1.0837,1.082,1.0769,1.0616,1.0539,1.0514,1.0411,1.0385,1.0445,1.047,1.0854,1.1427,1.1728,1.1678,1.1728,1.1553,1.1402,1.1427,1.1099,1.0871,1.0744,1.0496,1.029,1.0213,1.0128,1.0102,1.0187,1.0298,1.0375,1.0514,1.0565,1.0573,1.0547,1.0522,1.0514,1.5022,1.5015,1.5035,1.5015,1.5035,1.5028,1.5035,1.5035,1.5022,1.4988,1.4934,1.4928,1.4921,1.4888,1.4589,1.4482,1.4456,1.4208,1.4235,1.4462,1.4482,1.4623,1.4888,1.4914,1.4743,1.4509,1.4469,1.4372,1.42,1.4489,1.4611,1.4496,1.445,1.432,1.4175,1.4322,1.4206,1.3819,1.3677,1.3201,1.2317,1.1531,1.0772,1.0124,0.9773,0.9453,0.917,0.9144,0.8966,0.8642,0.875,0.8882,0.9041,0.9494,1.0109,1.0842,1.1232,1.1559,1.1852,1.2221,1.2418,1.2435,1.2595,1.2668,1.2659,1.2241,1.1876,1.1748,1.1671,1.1579,1.1442,1.1525,1.1539,1.137,1.1445,1.1365,1.1045,1.1029,1.0971,1.0579,1.0611,1.053,1.0561,1.0486,1.0419,1.0265,1.0128,1.0102,1.0239,1.029,1.0316,1.059,1.0641,1.0693,1.0744,1.0641,1.0701,1.0675,1.059,1.0462,1.0368,1.0316,1.0213,0.9947,0.9947,0.9947,0.9947,1.0058,1.0272,1.0231,1.0308,1.0411,1.0342,1.029,1.0316,1.5471,1.5471,1.5478,1.5478,1.5478,1.5471,1.5478,1.5478,1.5478,1.5478,1.5471,1.5478,1.5291,1.5008,1.4836,1.4783,1.4776,1.4656,1.4663,1.4776,1.4776,1.485,1.5001,1.5015,1.489,1.477,1.4471,1.4289,1.4157,1.4113,1.4186,1.4387,1.4504,1.4665,1.4849,1.4969,1.476,1.4265,1.3799,1.3045,1.2135,1.1567,1.0946,1.0276,0.9983,0.9592,0.9135,0.9097,0.8953,0.8698,0.8829,0.8972,0.9109,0.9706,1.025,1.0779,1.1406,1.1842,1.1965,1.2325,1.2556,1.2556,1.2625,1.2683,1.2683,1.2477,1.2304,1.2212,1.1909,1.1651,1.1597,1.1636,1.1598,1.1456,1.1382,1.1225,1.1032,1.1119,1.1123,1.0989,1.072,1.0553,1.0495,1.021,0.9981,0.9888,0.9803,0.9836,0.9888,0.988,0.9914,0.9958,0.9958,1.0146,1.0385,1.0419,1.0368,1.0342,1.0213,1.0058,1.0032,0.9921,0.9836,0.9706,0.9758,0.9784,0.9706,0.9758,0.9888,0.9914,0.9906,0.9932,0.988,0.9888,0.9888,1.5825,1.5825,1.5825,1.5825,1.5825,1.5825,1.5825,1.5825,1.5825,1.5825,1.5825,1.5825,1.5598,1.5231,1.5162,1.5084,1.5077,1.5042,1.5055,1.5115,1.5129,1.5176,1.5197,1.5158,1.5112,1.4921,1.4513,1.4286,1.4261,1.4101,1.4169,1.4464,1.4691,1.4979,1.5343,1.5273,1.4981,1.4607,1.3918,1.3046,1.2184,1.1761,1.1201,1.0444,1.0243,0.9919,0.9383,0.9285,0.915,0.8963,0.9039,0.9197,0.9404,1.0021,1.0588,1.1063,1.1754,1.217,1.2178,1.2447,1.259,1.259,1.256,1.2521,1.259,1.256,1.256,1.2543,1.2188,1.1949,1.1805,1.1797,1.1744,1.1571,1.1355,1.1251,1.1066,1.1155,1.1251,1.1143,1.0842,1.0603,1.0423,1.0067,0.9779,0.9669,0.9614,0.9614,0.9614,0.9614,0.9621,0.9614,0.9614,0.9777,1.0146,1.0154,1.0102,1.0076,0.9888,0.9784,0.9766,0.9647,0.9614,0.9647,0.9621,0.9621,0.9647,0.9647,0.9647,0.9621,0.9614,0.964,0.9673,0.9621,0.9621,1.5825,1.5825,1.5825,1.5825,1.5825,1.5825,1.5825,1.5825,1.5825,1.5825,1.5778,1.5778,1.5764,1.5698,1.5438,1.5378,1.5344,1.5169,1.5196,1.5364,1.5378,1.5524,1.5738,1.5548,1.5303,1.5008,1.4667,1.4495,1.4469,1.4639,1.4803,1.4877,1.5153,1.5319,1.5382,1.5019,1.4683,1.4587,1.3968,1.3213,1.254,1.2235,1.1638,1.0748,1.0566,1.0414,1.0216,1.0001,0.9727,0.9492,0.942,0.9553,0.9864,1.0409,1.1164,1.2058,1.2412,1.2551,1.2551,1.2574,1.2598,1.256,1.2436,1.2406,1.256,1.2467,1.2436,1.2582,1.2549,1.2343,1.2089,1.2003,1.176,1.1324,1.1385,1.1225,1.0739,1.1152,1.1151,1.0964,1.0866,1.0673,1.0217,1.0097,0.9958,0.9768,0.965,0.9643,0.9658,0.9643,0.9614,0.9614,0.9614,0.964,0.9666,0.9751,0.9718,0.9718,0.9725,0.9614,0.9614,0.9614,0.9614,0.9614,0.9614,0.9614,0.9614,0.9614,0.9614,0.9614,0.9614,0.9614,0.9614,0.9614,0.9614,1.5825,1.5825,1.5825,1.5825,1.5825,1.5825,1.5825,1.5825,1.5825,1.573,1.5642,1.5588,1.5499,1.5356,1.5259,1.5349,1.5618,1.5565,1.5571,1.5624,1.553,1.5543,1.5575,1.5356,1.5181,1.5012,1.4599,1.4368,1.4346,1.4574,1.4902,1.5297,1.5673,1.5884,1.5799,1.5646,1.5228,1.4464,1.3912,1.322,1.2379,1.2137,1.1752,1.1192,1.0827,1.0531,1.0298,1.0202,1.0112,1.0009,1.0013,1.0193,1.0559,1.1214,1.1874,1.2421,1.256,1.259,1.259,1.2459,1.2398,1.2398,1.2336,1.2352,1.2398,1.2467,1.2529,1.2598,1.2598,1.2511,1.2417,1.227,1.2071,1.1835,1.17,1.1601,1.1465,1.1616,1.176,1.1594,1.1368,1.0937,1.0571,1.0411,1.0368,1.0243,1.006,0.9916,0.9885,0.976,0.9636,0.9614,0.9614,0.9614,0.9614,0.9614,0.9614,0.9614,0.9614,0.9614,0.9614,0.9614,0.9614,0.9614,0.9614,0.9614,0.9614,0.9614,0.9614,0.9614,0.9614,0.9614,0.9614,0.9614,0.9614,1.5825,1.5784,1.573,1.5683,1.5689,1.5594,1.5594,1.5601,1.5547,1.5499,1.5404,1.5356,1.5261,1.5131,1.5131,1.5274,1.5553,1.5594,1.5594,1.5547,1.5452,1.5356,1.5309,1.5124,1.4981,1.4908,1.4508,1.4313,1.4475,1.4812,1.5287,1.5893,1.6297,1.6397,1.6244,1.5933,1.5258,1.4406,1.3804,1.3162,1.2435,1.2249,1.1966,1.1636,1.1176,1.0821,1.0557,1.0466,1.0489,1.0633,1.0712,1.0989,1.1428,1.1894,1.2305,1.2567,1.2529,1.249,1.249,1.2344,1.2259,1.2359,1.2382,1.2437,1.2609,1.2775,1.2877,1.2925,1.2917,1.2901,1.2758,1.2633,1.243,1.2158,1.1965,1.184,1.1747,1.1895,1.1957,1.1904,1.1661,1.1271,1.085,1.0784,1.0682,1.0616,1.0382,1.025,1.0089,0.9936,0.9683,0.961,0.9621,0.9614,0.9614,0.9614,0.9614,0.9614,0.9614,0.9614,0.9614,0.9614,0.9614,0.9614,0.9614,0.9614,0.9614,0.9614,0.9614,0.9588,0.9614,0.9614,0.9614,0.9614,0.9595,1.5778,1.5737,1.5594,1.5493,1.5452,1.5274,1.5131,1.5131,1.5131,1.5124,1.5131,1.5083,1.5077,1.5035,1.4987,1.5083,1.5083,1.5083,1.5131,1.5172,1.5131,1.5083,1.5083,1.4831,1.4688,1.4688,1.4436,1.4574,1.4988,1.5417,1.5952,1.6603,1.6903,1.6817,1.6568,1.5621,1.4894,1.4266,1.3655,1.3092,1.2737,1.2655,1.2402,1.1892,1.1588,1.1351,1.1068,1.0852,1.0899,1.1268,1.1381,1.1843,1.2318,1.2397,1.2421,1.2545,1.2452,1.2321,1.2321,1.2266,1.2317,1.2525,1.2561,1.2781,1.3129,1.3273,1.3365,1.3465,1.3498,1.3442,1.3147,1.302,1.2751,1.2227,1.2058,1.1934,1.1747,1.1747,1.1809,1.1833,1.1726,1.1568,1.124,1.1107,1.1019,1.0814,1.0638,1.0507,1.0287,1.0133,0.9943,0.9712,0.9636,0.9614,0.9614,0.9614,0.9614,0.9614,0.9614,0.9614,0.9614,0.9614,0.9614,0.9621,0.955,0.9543,0.9536,0.9536,0.951,0.951,0.9536,0.9543,0.9517,0.9491,0.9517,1.5588,1.5588,1.5315,1.522,1.522,1.5131,1.5131,1.5083,1.5131,1.4981,1.4838,1.4838,1.4736,1.4586,1.4538,1.4544,1.4544,1.4544,1.4742,1.4987,1.4933,1.4838,1.479,1.4544,1.4394,1.4394,1.4346,1.4638,1.5267,1.5812,1.6412,1.695,1.7116,1.681,1.6177,1.5346,1.4534,1.3819,1.3404,1.3012,1.2717,1.2711,1.2457,1.2011,1.1869,1.1626,1.1189,1.1173,1.1402,1.175,1.1848,1.2087,1.2473,1.2726,1.2822,1.2727,1.2695,1.2684,1.2747,1.2646,1.2676,1.2856,1.292,1.3066,1.3325,1.349,1.3557,1.36,1.3618,1.3521,1.3425,1.3114,1.2686,1.2158,1.2096,1.1996,1.1771,1.1771,1.1809,1.1802,1.1709,1.1595,1.1497,1.143,1.1364,1.1254,1.1048,1.088,1.077,1.0382,1.0104,0.9958,0.9811,0.9636,0.9614,0.9614,0.9614,0.9614,0.9614,0.9614,0.9614,0.9614,0.9614,0.9569,0.9498,0.9446,0.9439,0.9413,0.9361,0.9328,0.9309,0.9309,0.9335,0.9335,0.9342,1.5452,1.5309,1.5077,1.4939,1.4933,1.4838,1.4831,1.479,1.4783,1.4694,1.4586,1.4538,1.4442,1.4346,1.4298,1.4298,1.4298,1.4298,1.4496,1.4736,1.464,1.4544,1.4544,1.44,1.4298,1.4298,1.4298,1.4682,1.5384,1.5859,1.643,1.6977,1.704,1.6598,1.5899,1.514,1.4345,1.3561,1.3157,1.2856,1.2643,1.2497,1.2292,1.2014,1.1909,1.1741,1.1494,1.1467,1.1671,1.2094,1.242,1.2686,1.2858,1.3067,1.3087,1.2916,1.2825,1.2844,1.2908,1.2759,1.2795,1.3021,1.3188,1.3401,1.3615,1.381,1.3913,1.3913,1.3826,1.3721,1.3546,1.3282,1.2856,1.2406,1.2101,1.1925,1.1778,1.1716,1.1716,1.1716,1.1654,1.1622,1.1591,1.1591,1.1591,1.1555,1.1423,1.1195,1.1085,1.0726,1.047,1.0207,0.9965,0.9797,0.9643,0.9614,0.9614,0.9614,0.9614,0.9614,0.9614,0.9588,0.9588,0.9517,0.9453,0.9323,0.929,0.9211,0.9133,0.9106,0.9001,0.9054,0.9061,0.9061,0.9061,1.5309,1.5083,1.4783,1.4688,1.464,1.4448,1.4352,1.4346,1.4346,1.4346,1.4346,1.4346,1.4346,1.4298,1.4298,1.4298,1.4298,1.4298,1.425,1.4298,1.425,1.4298,1.4298,1.4298,1.4298,1.4298,1.4298,1.4675,1.5343,1.5635,1.617,1.6842,1.6619,1.6254,1.5662,1.5015,1.4215,1.3456,1.3013,1.2671,1.2416,1.2166,1.1989,1.1966,1.1773,1.1702,1.1694,1.1589,1.1751,1.2281,1.2956,1.3354,1.3388,1.3366,1.323,1.3028,1.2893,1.2897,1.2829,1.279,1.2802,1.3114,1.3439,1.3757,1.3984,1.4142,1.4213,1.4229,1.4145,1.391,1.3645,1.3438,1.3203,1.2766,1.2188,1.1827,1.1659,1.1652,1.1622,1.1622,1.1591,1.1591,1.1591,1.1591,1.1591,1.1584,1.1562,1.1415,1.1246,1.1004,1.0777,1.0513,1.0214,0.9958,0.9804,0.955,0.955,0.951,0.9517,0.9517,0.9595,0.9588,0.951,0.9446,0.9237,0.914,0.9035,0.8896,0.8738,0.8606,0.8613,0.8725,0.8672,0.856,0.856,1.4879,1.479,1.4544,1.4394,1.4394,1.4352,1.4298,1.4298,1.4298,1.4298,1.4298,1.4298,1.4298,1.4298,1.4298,1.4298,1.4298,1.4298,1.416,1.4022,1.4022,1.4118,1.425,1.4298,1.4298,1.4298,1.4298,1.4586,1.5166,1.5343,1.5778,1.6386,1.5913,1.5548,1.5214,1.4325,1.3653,1.3181,1.2754,1.2486,1.2382,1.2129,1.1914,1.1774,1.1712,1.1488,1.1275,1.1387,1.1737,1.2308,1.3048,1.335,1.3186,1.3319,1.337,1.3231,1.3212,1.3212,1.3276,1.3249,1.3344,1.3569,1.3661,1.3837,1.4078,1.4137,1.4165,1.4165,1.4129,1.4063,1.3897,1.358,1.3135,1.2649,1.2255,1.1958,1.1875,1.1699,1.1591,1.1591,1.1613,1.1613,1.1621,1.1599,1.1591,1.1591,1.1584,1.1562,1.1401,1.1209,1.0938,1.077,1.0514,1.0207,0.9924,0.9607,0.9446,0.9413,0.9387,0.9394,0.9465,0.9569,0.9439,0.9316,0.8863,0.8653,0.8547,0.8435,0.8256,0.8103,0.7996,0.8002,0.7895,0.7809,0.7842,1.4708,1.4661,1.4394,1.4298,1.4298,1.4298,1.4298,1.4298,1.4298,1.4298,1.4298,1.4298,1.4298,1.4298,1.4298,1.425,1.416,1.4112,1.3968,1.3786,1.3732,1.3877,1.407,1.4112,1.416,1.425,1.416,1.4352,1.4688,1.4771,1.5003,1.5242,1.5003,1.4717,1.4555,1.3921,1.3337,1.3117,1.2757,1.2468,1.2237,1.1921,1.1668,1.1429,1.1343,1.1102,1.0868,1.109,1.1505,1.2094,1.277,1.3169,1.3042,1.3285,1.347,1.3392,1.3392,1.3416,1.3477,1.3492,1.3528,1.3674,1.3754,1.3863,1.3928,1.3964,1.3964,1.4,1.3928,1.3884,1.3789,1.3531,1.3247,1.2993,1.2636,1.2368,1.2229,1.2094,1.1984,1.1941,1.1853,1.1758,1.1743,1.1687,1.1613,1.1591,1.1591,1.1584,1.1547,1.1325,1.1104,1.0871,1.0653,1.0315,0.9944,0.9627,0.9221,0.916,0.9047,0.9054,0.9178,0.9302,0.9204,0.8942,0.8494,0.8143,0.8064,0.7931,0.7777,0.7595,0.7408,0.7327,0.73,0.7246,0.7279,1.471,1.4696,1.4449,1.4322,1.4304,1.4298,1.4298,1.4298,1.4298,1.4298,1.4298,1.4298,1.425,1.425,1.4208,1.4118,1.3883,1.3835,1.3684,1.3491,1.3443,1.3534,1.3732,1.3835,1.3973,1.4058,1.3973,1.4016,1.416,1.401,1.4004,1.4196,1.4004,1.3854,1.3806,1.3511,1.3259,1.2959,1.2617,1.2311,1.1943,1.1639,1.1355,1.118,1.0868,1.074,1.0646,1.0784,1.1098,1.1585,1.2415,1.2848,1.2966,1.3344,1.3535,1.3587,1.3579,1.3543,1.3499,1.3492,1.3492,1.3528,1.3681,1.3754,1.3754,1.3754,1.379,1.379,1.3601,1.3564,1.3557,1.3477,1.344,1.3338,1.3162,1.2928,1.2701,1.257,1.2526,1.2511,1.22,1.2083,1.1937,1.1809,1.1635,1.1591,1.1591,1.156,1.1498,1.1356,1.1095,1.0838,1.0594,1.0359,0.998,0.9639,0.9173,0.8845,0.8619,0.858,0.8679,0.8778,0.8758,0.8521,0.8037,0.7723,0.7563,0.7434,0.73,0.7112,0.6928,0.695,0.6977,0.6901,0.6847,1.4903,1.4708,1.4654,1.4497,1.4322,1.4298,1.4298,1.4298,1.4304,1.4322,1.4304,1.4304,1.4172,1.3991,1.3985,1.3829,1.3588,1.3545,1.3448,1.3201,1.3007,1.3055,1.3249,1.3443,1.3588,1.3678,1.3636,1.3636,1.3636,1.363,1.3582,1.3582,1.3389,1.3292,1.3195,1.2899,1.2603,1.2507,1.213,1.1905,1.1765,1.1492,1.1298,1.1166,1.0811,1.0529,1.0404,1.0398,1.0646,1.1147,1.1864,1.2635,1.3231,1.3687,1.3894,1.3886,1.3872,1.3777,1.3572,1.3536,1.3506,1.3558,1.3594,1.3535,1.3564,1.3609,1.3594,1.3572,1.3528,1.3521,1.3492,1.3492,1.3492,1.3462,1.3411,1.3331,1.3214,1.2833,1.2614,1.2514,1.2448,1.2288,1.2036,1.201,1.1845,1.1672,1.1575,1.1505,1.1397,1.1303,1.1037,1.0733,1.0363,1.0067,0.9689,0.9247,0.8675,0.835,0.8148,0.7996,0.8123,0.8229,0.8203,0.7931,0.753,0.7295,0.7139,0.7004,0.6869,0.6685,0.6522,0.6549,0.6549,0.6495,0.6495,1.4914,1.4877,1.463,1.4431,1.431,1.4298,1.4298,1.4322,1.4443,1.4394,1.4345,1.4296,1.4156,1.39,1.3748,1.3539,1.3298,1.3055,1.2905,1.271,1.2565,1.2467,1.2565,1.2759,1.2953,1.3346,1.3346,1.334,1.3249,1.3104,1.2958,1.2953,1.271,1.2613,1.2613,1.2322,1.2224,1.2204,1.1971,1.1768,1.1594,1.1405,1.1162,1.1,1.0731,1.049,1.0303,1.0318,1.0589,1.1091,1.1773,1.2475,1.3259,1.3738,1.4006,1.4214,1.4209,1.415,1.402,1.3858,1.3836,1.3931,1.3866,1.3843,1.3894,1.3983,1.3857,1.377,1.3718,1.3682,1.3514,1.3492,1.3492,1.3492,1.3492,1.3492,1.3433,1.3177,1.2972,1.2936,1.2828,1.2674,1.2507,1.2257,1.1963,1.1721,1.1528,1.1468,1.1185,1.1028,1.0807,1.0474,1.0113,0.9742,0.9308,0.8779,0.81,0.7786,0.7601,0.7456,0.7408,0.7515,0.7622,0.7348,0.7106,0.6896,0.6707,0.6571,0.6517,0.6413,0.6309,0.6228,0.6228,0.6309,0.6337,1.4944,1.5065,1.457,1.4334,1.4298,1.4298,1.4298,1.434,1.4497,1.4343,1.4248,1.4205,1.3981,1.3741,1.3528,1.3298,1.2953,1.2565,1.237,1.2322,1.2247,1.2173,1.2157,1.2271,1.2515,1.3206,1.3001,1.2899,1.2754,1.2559,1.2419,1.2322,1.217,1.2127,1.2024,1.1975,1.1927,1.1922,1.1814,1.1696,1.1519,1.1326,1.1076,1.0823,1.0729,1.0569,1.0412,1.0436,1.0617,1.1277,1.177,1.2445,1.311,1.3712,1.4112,1.4567,1.4545,1.4465,1.4379,1.424,1.4203,1.4489,1.4269,1.4225,1.4394,1.4408,1.4298,1.4188,1.4078,1.3968,1.3623,1.3609,1.3572,1.3514,1.3463,1.3455,1.3455,1.3463,1.3244,1.3324,1.3021,1.2812,1.2633,1.2392,1.21,1.1784,1.1589,1.13,1.0983,1.0681,1.0396,1.0079,0.9648,0.9188,0.8771,0.8437,0.775,0.7345,0.7139,0.6982,0.6825,0.6874,0.6977,0.695,0.6734,0.6571,0.644,0.6386,0.6305,0.62,0.62,0.62,0.62,0.62,0.62,1.527,1.5083,1.4775,1.4515,1.4316,1.4298,1.4304,1.4256,1.4141,1.4002,1.3971,1.3759,1.3545,1.3262,1.3186,1.2953,1.2516,1.2224,1.2088,1.2134,1.2093,1.2123,1.1998,1.2063,1.2251,1.2211,1.2219,1.2219,1.2219,1.2073,1.2078,1.2029,1.198,1.1932,1.1883,1.178,1.1683,1.1634,1.1487,1.14,1.1322,1.1249,1.1134,1.0858,1.0887,1.0777,1.0626,1.0605,1.0788,1.1311,1.1905,1.2596,1.3338,1.4082,1.4534,1.4757,1.4827,1.4787,1.4636,1.4504,1.4452,1.4482,1.446,1.4445,1.4526,1.4548,1.4555,1.4467,1.4386,1.4276,1.3938,1.3901,1.3755,1.3572,1.3419,1.3324,1.3353,1.3083,1.2783,1.2732,1.2729,1.2804,1.2607,1.2368,1.202,1.1601,1.1283,1.083,1.0393,1.0123,0.9849,0.9498,0.9134,0.8656,0.8178,0.7921,0.7486,0.7036,0.6776,0.6606,0.6465,0.6341,0.6337,0.6413,0.6495,0.6413,0.6332,0.6255,0.6228,0.62,0.62,0.62,0.62,0.62,0.62,1.5228,1.5071,1.4666,1.4425,1.4268,1.4166,1.4118,1.4087,1.3963,1.3831,1.3684,1.3532,1.3281,1.2953,1.2797,1.2516,1.2219,1.1927,1.1845,1.1959,1.1914,1.1901,1.1869,1.1937,1.1859,1.1746,1.1658,1.1731,1.1932,1.1834,1.1785,1.1731,1.1688,1.159,1.159,1.1438,1.1389,1.134,1.1292,1.1194,1.1194,1.1194,1.1127,1.1129,1.1178,1.1182,1.1023,1.1115,1.1333,1.1676,1.2199,1.2824,1.3565,1.4226,1.4768,1.4979,1.51,1.5138,1.4948,1.4845,1.4787,1.4933,1.4831,1.4823,1.4918,1.4984,1.4874,1.4721,1.4555,1.4452,1.4245,1.4231,1.4032,1.3716,1.351,1.3364,1.3103,1.2606,1.2201,1.1935,1.2111,1.2291,1.244,1.2168,1.185,1.1471,1.0983,1.043,0.9852,0.9547,0.9332,0.8994,0.8668,0.8249,0.7843,0.7613,0.73,0.6856,0.6506,0.6341,0.6169,0.6064,0.6037,0.6064,0.6119,0.6168,0.6255,0.6228,0.62,0.62,0.62,0.62,0.62,0.62,0.62,1.5077,1.4986,1.4455,1.4202,1.4154,1.3925,1.3835,1.3827,1.3733,1.361,1.3435,1.327,1.3007,1.2634,1.2366,1.2078,1.1883,1.1668,1.1662,1.1747,1.1735,1.1732,1.1676,1.1657,1.1575,1.1458,1.1373,1.1389,1.1639,1.159,1.1541,1.1487,1.1292,1.1194,1.1243,1.1243,1.1194,1.1194,1.1194,1.1194,1.1194,1.1194,1.1194,1.1243,1.1487,1.1502,1.136,1.1675,1.1884,1.2191,1.2643,1.3203,1.3762,1.4394,1.4888,1.5126,1.5307,1.5396,1.5309,1.5163,1.5131,1.5284,1.5119,1.5177,1.5258,1.5306,1.5236,1.5009,1.4867,1.4662,1.4596,1.4521,1.4282,1.3904,1.363,1.3379,1.2861,1.2234,1.129,1.1203,1.154,1.165,1.1723,1.1795,1.1446,1.0972,1.0502,1.0046,0.9484,0.9119,0.8827,0.8518,0.82,0.7869,0.7569,0.7419,0.7101,0.6714,0.643,0.622,0.6032,0.5864,0.5786,0.5709,0.5782,0.5864,0.6005,0.6173,0.62,0.62,0.62,0.62,0.62,0.62,0.62,1.4974,1.4689,1.4152,1.3931,1.3925,1.369,1.3545,1.3497,1.3288,1.3191,1.3121,1.2715,1.2525,1.2319,1.1913,1.1683,1.1639,1.1572,1.1582,1.1641,1.1822,1.178,1.1647,1.1686,1.1534,1.1354,1.1236,1.1198,1.134,1.134,1.1292,1.1243,1.1243,1.1194,1.1194,1.1194,1.1194,1.1194,1.1194,1.1194,1.1194,1.1194,1.1194,1.1292,1.1487,1.1668,1.1759,1.2131,1.2427,1.254,1.3263,1.3716,1.4,1.4697,1.5052,1.5241,1.5318,1.5389,1.5374,1.5309,1.5279,1.5416,1.5316,1.5345,1.5374,1.5389,1.536,1.5352,1.5243,1.5097,1.4852,1.4688,1.4428,1.3987,1.3572,1.3244,1.277,1.184,1.0875,1.0343,1.0637,1.0775,1.087,1.0995,1.0972,1.0496,0.9989,0.956,0.9135,0.8705,0.8435,0.8136,0.795,0.7663,0.7405,0.726,0.6907,0.6572,0.6298,0.6028,0.5743,0.5488,0.5403,0.5352,0.5426,0.5532,0.5673,0.5868,0.6091,0.6173,0.6173,0.6173,0.62,0.62,0.6173,1.4568,1.4444,1.4085,1.3835,1.3642,1.3389,1.3292,1.3201,1.2856,1.271,1.2662,1.2322,1.2073,1.1883,1.1541,1.1389,1.1393,1.147,1.1586,1.1661,1.1808,1.1917,1.1855,1.1723,1.1501,1.1392,1.126,1.1194,1.1194,1.1194,1.1194,1.1194,1.1194,1.1194,1.1194,1.1194,1.1194,1.1194,1.1194,1.1194,1.1194,1.1194,1.1292,1.1443,1.1834,1.2078,1.2365,1.2894,1.3241,1.3381,1.4002,1.4362,1.4604,1.5109,1.5549,1.566,1.5662,1.5593,1.5418,1.5403,1.5389,1.5389,1.5389,1.5382,1.5389,1.5389,1.5389,1.5382,1.5389,1.526,1.5076,1.493,1.4451,1.3966,1.3454,1.3068,1.2525,1.1447,1.0611,1.0122,0.9738,1.0046,1.0272,1.0389,1.0435,1.012,0.9599,0.9094,0.8641,0.8193,0.7969,0.7807,0.7683,0.7536,0.733,0.7117,0.673,0.6378,0.608,0.5761,0.5345,0.5095,0.5018,0.4934,0.4936,0.5097,0.5289,0.5595,0.5873,0.6037,0.6146,0.6119,0.6091,0.6173,0.6146,1.4065,1.3999,1.3765,1.3588,1.3346,1.305,1.2905,1.2856,1.2516,1.2273,1.2224,1.2029,1.1731,1.1487,1.1296,1.1243,1.1208,1.142,1.1586,1.1709,1.1798,1.1865,1.1798,1.1633,1.1496,1.1439,1.126,1.1198,1.1194,1.1194,1.1194,1.1194,1.1194,1.1194,1.1194,1.1194,1.1194,1.1194,1.1194,1.1194,1.1194,1.1194,1.134,1.1683,1.2078,1.2516,1.2856,1.3576,1.395,1.404,1.4543,1.4912,1.512,1.5504,1.5791,1.5944,1.598,1.5891,1.5657,1.5476,1.5411,1.5389,1.5389,1.5389,1.5389,1.5389,1.5389,1.5389,1.5305,1.5257,1.5124,1.495,1.4365,1.378,1.3246,1.2934,1.241,1.1301,1.0359,0.9816,0.9585,0.9677,0.9851,0.9933,0.9863,0.9712,0.9238,0.8689,0.8275,0.787,0.7832,0.7788,0.7583,0.745,0.7247,0.6977,0.659,0.6137,0.5835,0.5456,0.5035,0.4745,0.4626,0.4568,0.4514,0.4581,0.4743,0.5238,0.5681,0.5732,0.5809,0.5955,0.6009,0.6037,0.6037,1.3417,1.3169,1.3158,1.3147,1.3055,1.2613,1.2467,1.2467,1.2175,1.2024,1.198,1.1731,1.1487,1.1292,1.1243,1.1194,1.1203,1.142,1.1524,1.1614,1.1699,1.1709,1.1638,1.1529,1.1406,1.1269,1.1198,1.1198,1.1194,1.1194,1.1194,1.1194,1.1194,1.1194,1.1194,1.1194,1.1194,1.1194,1.1194,1.1194,1.1194,1.1243,1.134,1.1683,1.2127,1.2516,1.2813,1.3727,1.425,1.4244,1.4905,1.5306,1.543,1.5816,1.6099,1.6211,1.6342,1.6228,1.6001,1.563,1.5418,1.5396,1.5389,1.5389,1.5389,1.5389,1.5389,1.5347,1.5215,1.509,1.488,1.458,1.4077,1.3442,1.2915,1.2542,1.1944,1.1059,1.0171,0.9578,0.9402,0.9563,0.955,0.9634,0.9625,0.948,0.8976,0.8436,0.8198,0.7917,0.7925,0.7842,0.7573,0.7391,0.7195,0.6789,0.6204,0.5737,0.537,0.5034,0.4694,0.4477,0.4358,0.4249,0.4234,0.421,0.4206,0.4598,0.4968,0.5278,0.5445,0.5563,0.5622,0.565,0.5677,1.3007,1.2662,1.2662,1.2662,1.2662,1.2467,1.2322,1.2127,1.1878,1.1683,1.1541,1.1394,1.1292,1.1194,1.1194,1.1194,1.1227,1.1416,1.1487,1.1534,1.1576,1.1581,1.1491,1.1383,1.1269,1.1208,1.1194,1.1194,1.1194,1.1194,1.1194,1.1194,1.1194,1.1194,1.1194,1.1194,1.1194,1.1194,1.1194,1.1194,1.1194,1.1243,1.1394,1.1883,1.237,1.2856,1.3298,1.4064,1.4352,1.4538,1.5064,1.5302,1.554,1.6013,1.6392,1.6543,1.6646,1.6608,1.6389,1.6001,1.5615,1.5411,1.5389,1.5389,1.5389,1.5305,1.5215,1.5131,1.4999,1.479,1.4419,1.4075,1.3639,1.3003,1.2443,1.2063,1.1519,1.0651,1.0228,0.9706,0.9478,0.9467,0.9421,0.9369,0.9362,0.9258,0.8731,0.8253,0.8049,0.777,0.7717,0.7566,0.7297,0.6941,0.671,0.6232,0.5727,0.536,0.4961,0.472,0.4445,0.4299,0.4145,0.4027,0.3911,0.3887,0.3903,0.3989,0.4286,0.4712,0.4983,0.5148,0.5203,0.5207,0.5207,1.2662,1.2273,1.2273,1.2273,1.2273,1.2175,1.2078,1.1834,1.159,1.1389,1.1194,1.1194,1.1194,1.1194,1.1194,1.1194,1.1227,1.1335,1.1392,1.1416,1.1416,1.1425,1.1368,1.1298,1.1217,1.1194,1.1194,1.1194,1.1194,1.1194,1.1194,1.1194,1.1194,1.1194,1.1194,1.1194,1.1194,1.1194,1.1194,1.1194,1.1194,1.1194,1.1394,1.1883,1.237,1.2759,1.3244,1.3871,1.4148,1.4346,1.4682,1.5159,1.5486,1.5913,1.6541,1.68,1.6965,1.6967,1.6771,1.6294,1.5739,1.5447,1.5389,1.5389,1.5347,1.5222,1.5131,1.5048,1.4748,1.4279,1.3913,1.3476,1.296,1.2272,1.1666,1.1278,1.0999,1.0396,1.0161,0.9868,0.9715,0.9581,0.9409,0.935,0.9053,0.8922,0.8427,0.8056,0.7864,0.7596,0.7276,0.7096,0.6838,0.6436,0.6046,0.5642,0.5276,0.5041,0.4713,0.4504,0.4289,0.4135,0.402,0.3924,0.376,0.36,0.3575,0.369,0.3946,0.4237,0.4411,0.4484,0.457,0.4543,0.4598,1.2273,1.2029,1.2029,1.198,1.1975,1.1731,1.1634,1.1585,1.1345,1.1243,1.1194,1.1194,1.1194,1.1194,1.1194,1.1194,1.1194,1.1222,1.1236,1.125,1.1269,1.1231,1.1227,1.1203,1.1194,1.1194,1.1194,1.1194,1.1194,1.1194,1.1194,1.1194,1.1194,1.1194,1.1194,1.1194,1.1194,1.1194,1.1194,1.1194,1.1194,1.1194,1.1394,1.1736,1.2224,1.2619,1.305,1.363,1.3817,1.3715,1.4346,1.4729,1.4825,1.5717,1.6339,1.6615,1.7023,1.7096,1.6895,1.6257,1.579,1.5462,1.5389,1.5389,1.5347,1.5222,1.4957,1.4748,1.4237,1.3779,1.3307,1.279,1.2186,1.1628,1.1063,1.0674,1.0443,1.0303,1.0067,0.9919,0.9898,0.9832,0.9617,0.9343,0.8915,0.8556,0.8111,0.7838,0.7632,0.7297,0.6905,0.6609,0.635,0.5984,0.5587,0.5156,0.4824,0.4628,0.4489,0.4339,0.4183,0.4044,0.393,0.3815,0.3661,0.3499,0.3416,0.3361,0.3461,0.3551,0.3666,0.3738,0.3824,0.391,0.3962,1.198,1.1731,1.1731,1.1634,1.1487,1.1585,1.1487,1.134,1.1243,1.1194,1.1194,1.1194,1.1194,1.1194,1.1194,1.1194,1.1194,1.1194,1.1194,1.1194,1.1194,1.1194,1.1194,1.1194,1.1194,1.1194,1.1194,1.1194,1.1194,1.1194,1.1194,1.1194,1.1194,1.1194,1.1194,1.1194,1.1194,1.1194,1.1194,1.1194,1.1194,1.1194,1.1345,1.159,1.2078,1.2473,1.271,1.3292,1.3335,1.3184,1.3865,1.4298,1.449,1.533,1.6292,1.6629,1.699,1.7179,1.6819,1.633,1.5807,1.5523,1.5347,1.5305,1.5222,1.4957,1.4657,1.4195,1.3639,1.3137,1.2485,1.2015,1.1456,1.102,1.0593,1.0381,1.0197,1.0115,0.9995,0.9895,0.9852,0.9396,0.9069,0.8697,0.8266,0.8033,0.7631,0.7387,0.7176,0.6859,0.6481,0.6166,0.5855,0.5491,0.513,0.4827,0.4631,0.4464,0.4364,0.4259,0.4135,0.3977,0.3871,0.3775,0.3596,0.3445,0.331,0.3142,0.2805,0.2754,0.2955,0.3077,0.316,0.3244,0.3325,1.1731,1.1438,1.1443,1.1389,1.1243,1.1389,1.134,1.1194,1.1194,1.1194,1.1194,1.1194,1.1194,1.1194,1.1194,1.1194,1.1194,1.1194,1.1194,1.1194,1.1194,1.1194,1.1194,1.1194,1.1194,1.1194,1.1194,1.1194,1.1194,1.1194,1.1194,1.1194,1.1194,1.1194,1.1194,1.1194,1.1194,1.1194,1.1194,1.1194,1.1194,1.1243,1.1296,1.1541,1.1834,1.2181,1.2419,1.2662,1.2861,1.2807,1.319,1.3817,1.4238,1.5099,1.615,1.6581,1.6983,1.7072,1.6735,1.6326,1.5755,1.5213,1.5168,1.509,1.4922,1.4664,1.4243,1.373,1.3088,1.2485,1.1923,1.1413,1.0895,1.0463,1.0337,1.0125,1.0077,0.999,0.9903,0.9846,0.9481,0.8985,0.8404,0.795,0.755,0.7335,0.7115,0.6916,0.6751,0.642,0.6093,0.5791,0.5483,0.5162,0.4882,0.4664,0.4464,0.4334,0.4233,0.4167,0.4061,0.3939,0.3851,0.3692,0.3493,0.3285,0.314,0.2915,0.2628,0.2456,0.243,0.2503,0.2495,0.2631,0.2796,1.1438,1.1194,1.1194,1.1194,1.1194,1.1243,1.1243,1.1194,1.1194,1.1194,1.1194,1.1194,1.1194,1.1194,1.1194,1.1194,1.1194,1.1194,1.1194,1.1194,1.1194,1.1194,1.1194,1.1194,1.1194,1.1194,1.1194,1.1194,1.1194,1.1194,1.1194,1.1194,1.1194,1.1194,1.1194,1.1194,1.1194,1.1194,1.1194,1.1194,1.1194,1.1194,1.1243,1.1389,1.1585,1.1736,1.1878,1.2024,1.198,1.2175,1.2608,1.3141,1.3908,1.501,1.5866,1.6581,1.7091,1.6918,1.6567,1.6161,1.5532,1.4881,1.4577,1.4614,1.4531,1.4201,1.3779,1.3215,1.2528,1.2057,1.1542,1.0939,1.0381,1.0207,1.0125,1.0038,0.999,0.9907,0.9777,0.9548,0.9099,0.8569,0.7837,0.7322,0.6916,0.6702,0.6525,0.6401,0.6227,0.6027,0.5739,0.5435,0.5124,0.4845,0.4625,0.4441,0.4313,0.4162,0.4144,0.4097,0.3995,0.3828,0.3661,0.3493,0.3293,0.3115,0.287,0.2676,0.2514,0.2352,0.2198,0.2146,0.2226,0.227,0.2408,1.1247,1.1194,1.1194,1.1194,1.1194,1.1194,1.1194,1.1194,1.1194,1.1194,1.1194,1.1194,1.1194,1.1194,1.1194,1.1194,1.1194,1.1194,1.1194,1.1194,1.1194,1.1194,1.1194,1.1194,1.1194,1.1194,1.1194,1.1194,1.1194,1.1194,1.1194,1.1194,1.1194,1.1194,1.1194,1.1194,1.1194,1.1194,1.1194,1.1194,1.1194,1.1194,1.1194,1.1292,1.1438,1.1536,1.1639,1.178,1.1785,1.1834,1.2559,1.319,1.3613,1.4956,1.6109,1.6958,1.7117,1.6883,1.643,1.5718,1.5007,1.4311,1.3758,1.3551,1.3603,1.3519,1.3143,1.2534,1.1923,1.1451,1.1025,1.0511,1.0164,1.0081,0.9994,0.9951,0.9859,0.9646,0.9467,0.8922,0.8527,0.7838,0.7158,0.6746,0.6375,0.6114,0.5915,0.5805,0.5753,0.5616,0.5428,0.5172,0.4918,0.4629,0.4453,0.4315,0.4156,0.4045,0.4029,0.3948,0.3763,0.3596,0.3426,0.3259,0.3092,0.2816,0.2494,0.2378,0.2374,0.217,0.2022,0.1967,0.1952,0.2027,0.213,1.1194,1.1194,1.11,1.1002,1.09,1.09,1.09,1.09,1.11,1.1194,1.1194,1.1194,1.1194,1.1194,1.1194,1.1194,1.1194,1.1194,1.1194,1.1194,1.1194,1.1194,1.1194,1.1194,1.1194,1.1194,1.1194,1.1194,1.1194,1.1194,1.1194,1.1194,1.1194,1.1194,1.1194,1.1194,1.1194,1.1194,1.1194,1.1194,1.1194,1.1194,1.1194,1.1243,1.1389,1.1438,1.1492,1.1683,1.1585,1.159,1.2365,1.2996,1.3565,1.486,1.6062,1.6817,1.6904,1.6521,1.6017,1.5305,1.4518,1.3692,1.2899,1.2527,1.2448,1.2448,1.2149,1.1714,1.1278,1.0852,1.0467,1.0168,1.0081,0.9994,0.9907,0.982,0.9602,0.934,0.886,0.8289,0.769,0.7067,0.6511,0.6131,0.5798,0.5513,0.5358,0.5281,0.5278,0.5273,0.5154,0.5002,0.4726,0.4468,0.4331,0.422,0.4121,0.4018,0.3963,0.3846,0.3596,0.3431,0.3326,0.309,0.2855,0.2586,0.2327,0.2297,0.2262,0.2031,0.1838,0.1759,0.1767,0.1922,0.1998,1.1145,1.1145,1.0904,1.0654,1.0413,1.0462,1.0462,1.0462,1.09,1.1149,1.1096,1.1096,1.1096,1.1096,1.1096,1.1145,1.1194,1.1194,1.1194,1.1194,1.1194,1.1194,1.1194,1.1194,1.1194,1.1194,1.1194,1.1194,1.1194,1.1194,1.1194,1.1194,1.1194,1.1194,1.1194,1.1194,1.1194,1.1194,1.1194,1.1194,1.1194,1.1194,1.1194,1.1194,1.1243,1.1243,1.1243,1.1243,1.1194,1.1492,1.1932,1.2657,1.3757,1.4717,1.5818,1.6251,1.6393,1.5918,1.5351,1.4618,1.3741,1.2947,1.2189,1.1705,1.1499,1.1677,1.1499,1.1198,1.0766,1.0549,1.025,1.0081,1.0038,0.9864,0.9733,0.9471,0.9161,0.8671,0.7899,0.7388,0.6819,0.6227,0.58,0.5419,0.5378,0.5011,0.4926,0.4862,0.4872,0.4969,0.4892,0.4811,0.4703,0.4517,0.4321,0.4205,0.4094,0.4006,0.3864,0.3664,0.3387,0.3299,0.3261,0.2857,0.242,0.2388,0.2235,0.2108,0.1922,0.1775,0.1612,0.1536,0.1582,0.1625,0.1781,1.09,1.0855,1.0609,1.0458,1.0413,1.0413,1.0413,1.0413,1.0511,1.0605,1.0605,1.0609,1.0708,1.085,1.0949,1.0998,1.1149,1.1194,1.1194,1.1194,1.1194,1.1194,1.1194,1.1194,1.1194,1.1194,1.1194,1.1194,1.1194,1.1194,1.1194,1.1194,1.1194,1.1194,1.1194,1.1194,1.1194,1.1194,1.1194,1.1194,1.1194,1.1194,1.1194,1.1194,1.1194,1.1194,1.1194,1.1194,1.1194,1.134,1.2024,1.2996,1.4298,1.4914,1.5439,1.5825,1.5615,1.5124,1.4485,1.3752,1.2939,1.2135,1.1408,1.0911,1.0766,1.1025,1.1025,1.0684,1.0424,1.025,1.012,0.9994,0.9864,0.9689,0.9428,0.9074,0.8679,0.783,0.698,0.6454,0.5933,0.5528,0.5109,0.4954,0.4904,0.482,0.4756,0.4739,0.4673,0.4678,0.459,0.4561,0.4775,0.4639,0.4387,0.4169,0.4027,0.3766,0.3542,0.3372,0.3121,0.2797,0.252,0.2252,0.1985,0.1918,0.1816,0.1609,0.1462,0.1351,0.1238,0.1109,0.1024,0.106,0.134,1.0609,1.0605,1.0364,1.0167,1.0072,1.0019,1.0072,1.0072,1.0019,1.0068,1.0117,1.0265,1.0511,1.0654,1.0752,1.085,1.1051,1.1149,1.1194,1.1194,1.1194,1.1194,1.1194,1.1194,1.1194,1.1194,1.1194,1.1194,1.1194,1.1194,1.1194,1.1194,1.1194,1.1194,1.1194,1.1194,1.1194,1.1194,1.1194,1.1194,1.1194,1.1194,1.1194,1.1194,1.1194,1.1194,1.1194,1.1194,1.1194,1.134,1.1878,1.2559,1.3474,1.3944,1.4328,1.4573,1.4464,1.4104,1.3505,1.2865,1.2114,1.1361,1.0868,1.0482,1.0294,1.0511,1.0511,1.025,1.0207,1.0077,0.982,0.9694,0.9384,0.9117,0.8636,0.8201,0.7536,0.6735,0.611,0.5669,0.5361,0.5218,0.4907,0.4819,0.4669,0.4297,0.4272,0.4225,0.4233,0.4304,0.4224,0.4245,0.4346,0.4511,0.4333,0.4113,0.3894,0.3629,0.3237,0.2812,0.2475,0.2067,0.1748,0.158,0.1445,0.1378,0.1244,0.1076,0.0941,0.08,0.0727,0.0653,0.0577,0.044,0.0579,1.0314,1.0265,1.0068,0.9821,0.9628,0.9624,0.9624,0.9628,0.9628,0.9628,0.9677,1.0122,1.0314,1.0462,1.056,1.0708,1.0855,1.1002,1.1096,1.1194,1.1194,1.1194,1.1194,1.1194,1.1194,1.1194,1.1194,1.1194,1.1194,1.1194,1.1194,1.1194,1.1194,1.1194,1.1194,1.1194,1.1194,1.1194,1.1194,1.1194,1.1194,1.1194,1.1194,1.1194,1.1194,1.1194,1.1194,1.1194,1.1194,1.1389,1.1683,1.2268,1.2705,1.313,1.3323,1.3516,1.3516,1.3134,1.2568,1.2227,1.1544,1.0928,1.0543,1.028,1.0109,1.0047,1.0095,0.9998,0.9998,0.9834,0.9577,0.927,0.8915,0.8384,0.7816,0.7289,0.6488,0.5777,0.5377,0.4975,0.4839,0.4748,0.4659,0.4572,0.4309,0.3898,0.3723,0.3599,0.3535,0.3624,0.3629,0.3669,0.3749,0.3871,0.409,0.3891,0.3572,0.321,0.2784,0.2281,0.1815,0.1378,0.1088,0.1076,0.0941,0.0807,0.074,0.0605,0.0437,0.0302,0.0134,0.0033,-0.0065,-0.0193,-0.0254,0.9974,0.9776,0.9677,0.9628,0.9624,0.9624,0.9624,0.9624,0.9624,0.9624,0.9628,0.9677,0.9826,1.0064,1.0117,1.0314,1.0654,1.085,1.1051,1.1198,1.1096,1.1145,1.1145,1.1096,1.1194,1.1194,1.1194,1.1194,1.1194,1.1194,1.1194,1.1194,1.1194,1.1194,1.1194,1.1194,1.1194,1.1194,1.1194,1.1194,1.1194,1.1194,1.1194,1.1194,1.1194,1.1194,1.1194,1.1194,1.1194,1.1292,1.1487,1.1878,1.217,1.2414,1.2554,1.2651,1.2657,1.2395,1.2005,1.1687,1.1124,1.0869,1.0605,1.044,1.0282,1.0216,1.0117,0.9875,0.9798,0.9522,0.9283,0.8838,0.8392,0.7546,0.6882,0.6349,0.5681,0.5233,0.4831,0.4555,0.4324,0.4187,0.4002,0.3954,0.3941,0.3625,0.3547,0.3469,0.3269,0.3203,0.3053,0.3053,0.3054,0.3356,0.3611,0.335,0.3056,0.2718,0.2215,0.1551,0.0972,0.0596,0.038,0.044,0.0336,0.0202,0.0134,0.0101,-0.0067,-0.0235,-0.0471,-0.0635,-0.0762,-0.092,-0.1037]},{"header":{"parameterUnit":"m.s-1","parameterCategory":1,"la1":31.0,"la2":29.5877,"lo1":-88.7671,"lo2":-86.6584,"dx":0.0162,"dy":0.0185,"nx":115,"ny":88,"refTime":"2023-02-01T18:00:00:Z","depth":0,"parameterNumber":3,"parameterNumberName":"V-component_of_WINDS"},"data":[0.0,0.0,0.0,0.0,0.0,0.0,0.0,0.0,0.0,0.0,0.0,0.0,0.0,0.0,0.0,0.0,0.0,0.0,0.0,0.0,0.0,0.0,0.0,0.0,0.0,0.0,0.0,0.0,0.0,0.0,0.0,0.0,0.0,0.0,0.0,0.0,0.0,0.0,0.0,0.0,0.0,0.0,0.0,0.0,0.0,0.0,0.0,0.0,0.0,0.0,0.0,0.0,0.0,0.0,0.0,0.0,0.0,0.0,0.0,0.0,0.0,0.0,0.0,0.0,0.0,0.0,0.0,0.0,0.0,0.0,0.0,0.0,0.0,0.0,0.0,0.0,0.0,0.0,0.0,0.0,0.0,0.0,0.0,0.0,0.0,0.0,0.0,0.0,0.0,0.0,0.0,0.0,0.0,0.0,0.0,0.0,0.0,0.0,0.0,0.0,0.0,0.0,0.0,0.0,0.0,0.0,0.0,0.0,0.0,0.0,0.0,0.0,0.0,0.0,0.0,0.0,0.0,0.0,0.0,0.0,0.0,0.0,0.0,0.0,0.0,0.0,0.0,0.0,0.0,0.0,0.0,0.0,0.0,0.0,0.0,0.0,0.0,0.0,0.0,0.0,0.0,0.0,0.0,0.0,0.0,0.0,0.0,0.0,0.0,0.0,0.0,0.0,0.0,0.0,0.0,0.0,0.0,0.0,0.0,0.0,0.0,0.0,0.0,0.0,0.0,0.0,0.0,0.0,0.0,0.0,0.0,0.0,0.0,0.0,0.0,0.0,0.0,0.0,0.0,0.0,0.0,0.0,0.0,0.0,0.0,0.0,0.0,0.0,0.0,0.0,0.0,0.0,0.0,0.0,0.0,0.0,0.0,0.0,0.0,0.0,0.0,0.0,0.0,0.0,0.0,0.0,0.0,0.0,0.0,0.0,0.0,0.0,0.0,0.0,0.0,0.0,0.0,0.0,0.0,0.0,0.0,0.0,0.0,0.0,0.0,0.0,0.0,0.0,0.0,0.0,0.0,0.0,0.0,0.0,0.0,0.0,0.0,0.0,0.0,0.0,0.0,0.0,0.0,0.0,0.0,0.0,0.0,0.0,0.0,0.0,0.0,0.0,0.0,0.0,0.0,0.0,0.0,0.0,0.0,0.0,0.0,0.0,0.0,0.0,0.0,0.0,0.0,0.0,0.0,0.0,0.0,0.0,0.0,0.0,0.0,0.0,0.0,0.0,0.0,0.0,0.0,0.0,0.0,0.0,0.0,0.0,0.0,0.0,0.0,0.0,0.0,0.0,0.0,0.0,0.0,0.0,0.0,0.0,0.0,0.0,0.0,0.0,0.0,0.0,0.0,0.0,0.0,0.0,0.0,0.0,0.0,0.0,0.0,0.0,0.0,0.0,0.0,0.0,0.0,0.0,0.0,0.0,0.0,0.0,0.0,0.0,0.0,0.0,0.0,0.0,0.0,0.0,0.0,0.0,0.0,0.0,0.0,0.0,0.0,0.0,0.0,0.0,0.0,0.0,0.0,0.0,0.0,0.0,0.0,0.0,0.0,0.0,0.0,0.0,0.0,0.0,0.0,0.0,0.0,0.0,0.0,0.0,0.0,0.0,0.0,0.0,0.0,0.0,0.0,0.0,0.0,0.0,0.0,0.0,0.0,0.0,0.0,0.0,0.0,0.0,0.0,0.0,0.0,0.0,0.0,0.0,0.0,0.0,0.0,0.0,0.0,0.0,0.0,0.0,0.0,0.0,0.0,0.0,0.0,0.0,0.0,0.0,0.0,0.0,0.0,0.0,0.0,0.0,0.0,0.0,0.0,0.0,0.0,0.0,0.0,0.0,0.0,0.0,0.0,0.0,0.0,0.0,0.0,0.0,0.0,0.0,0.0,0.0,0.0,0.0,0.0,0.0,0.0,0.0,0.0,0.0,0.0,0.0,0.0,0.0,0.0,0.0,0.0,0.0,0.0,0.0,0.0,0.0,0.0,0.0,0.0,0.0,0.0,0.0,0.0,0.0,0.0,0.0,0.0,0.0,0.0,0.0,0.0,0.0,0.0,0.0,0.0,0.0,0.0,0.0,0.0,0.0,0.0,0.0,0.0,0.0,0.0,0.0,0.0,0.0,0.0,0.0,0.0,0.0,0.0,0.0,0.0,0.0,0.0,0.0,0.0,0.0,0.0,0.0,0.0,0.0,0.0,0.0,0.0,0.0,0.0,0.0,0.0,0.0,0.0,0.0,0.0,0.0,0.0,0.0,0.0,0.0,0.0,0.0,0.0,0.0,0.0,0.0,0.0,0.0,0.0,0.0,0.0,0.0,0.0,0.0,0.0,0.0,0.0,0.0,0.0,0.0,0.0,0.0,0.0,0.0,0.0,0.0,0.0,0.0,0.0,0.0,0.0,0.0,0.0,0.0,0.0,0.0,0.0,0.0,0.0,0.0,0.0,0.0,0.0,0.0,0.0,0.0,0.0,0.0,0.0,0.0,0.0,0.0,0.0,0.0,0.0,0.0,0.0,0.0,0.0,0.0,0.0,0.0,0.0,0.0,0.0,0.0,0.0,0.0,0.0,0.0,0.0,0.0,0.0,0.0,0.0,0.0,0.0,0.0,0.0,0.0,0.0,0.0,0.0,0.0,0.0,0.0,0.0,0.0,0.0,0.0,0.0,0.0,0.0,0.0,0.0,0.0,0.0,0.0,0.0,0.0,0.0,0.0,0.0,0.0,0.0,0.0,0.0,0.0,0.0,0.0,0.0,0.0,0.0,0.0,0.0,0.0,0.0,0.0,0.0,0.0,0.0,0.0,0.0,0.0,0.0,0.0,0.0,0.0,0.0,0.0,0.0,0.0,0.0,0.0,0.0,0.0,0.0,0.0,0.0,0.0,0.0,0.0,0.0,0.0,0.0,0.0,0.0,0.0,0.0,0.0,0.0,0.0,0.0,0.0,0.0,0.0,0.0,0.0,0.0,0.0,0.0,0.0,0.0,0.0,0.0,0.0,0.0,0.0,0.0,0.0,0.0,0.0,0.0,0.0,0.0,0.0,0.0,0.0,0.0,0.0,0.0,0.0,0.0,0.0,0.0,0.0,0.0,0.0,0.0,0.0,0.0,0.0,0.0,0.0,0.0,0.0,0.0,0.0,0.0,0.0,0.0,0.0,0.0,0.0,0.0,0.0,0.0,0.0,0.0,0.0,0.0,0.0,0.0,0.0,0.0,0.0,0.0,0.0,0.0,0.0,0.0,0.0,0.0,0.0,0.0,0.0,0.0,0.0,0.0,0.0,0.0,0.0,0.0,0.0,0.0,0.0,0.0,0.0,0.0,0.0,0.0,0.0,0.0,0.0,0.0,0.0,0.0,0.0,0.0,0.0,0.0,0.0,0.0,0.0,0.0,0.0,0.0,0.0,0.0,0.0,0.0,0.0,0.0,0.0,0.0,0.0,0.0,0.0,0.0,0.0,0.0,0.0,0.0,0.0,0.0,0.0,0.0,0.0,0.0,0.0,0.0,0.0,0.0,0.0,0.0,0.0,0.0,0.0,0.0,0.0,0.0,0.0,0.0,0.0,0.0,0.0,0.0,0.0,0.0,0.0,0.0,0.0,0.0,0.0,0.0,0.0,0.0,0.0,0.0,0.0,0.0,0.0,0.0,0.0,0.0,0.0,0.0,0.0,0.0,0.0,0.0,0.0,0.0,0.0,0.0,0.0,0.0,0.0,0.0,0.0,0.0,0.0,0.0,0.0,0.0,0.0,0.0,0.0,0.0,0.0,0.0,0.0,0.0,0.0,0.0,0.0,0.0,0.0,0.0,0.0,0.0,0.0,0.0,0.0,0.0,0.0,0.0,0.0,0.0,0.0,0.0,0.0,0.0,0.0,0.0,0.0,0.0,0.0,0.0,0.0,0.0,0.0,0.0,0.0,0.0,0.0,0.0,0.0,0.0,0.0,0.0,0.0,0.0,0.0,0.0,0.0,0.0,0.0,0.0,0.0,0.0,0.0,0.0,0.0,0.0,0.0,0.0,0.0,0.0,0.0,0.0,0.0,0.0,0.0,0.0,0.0,0.0,0.0,0.0,0.0,0.0,0.0,0.0,0.0,0.0,0.0,0.0,0.0,0.0,0.0,0.0,0.0,0.0,0.0,0.0,0.0,0.0,0.0,0.0,0.0,0.0,0.0,0.0,0.0,0.0,0.0,0.0,0.0,0.0,0.0,0.0,0.0,0.0,0.0,0.0,0.0,0.0,0.0,0.0,0.0,0.0,0.0,0.0,0.0,0.9807,0.0,0.0,0.0,0.0,0.0,0.0,0.0,0.0,0.0,0.0,0.0,0.0,0.0,0.0,0.0,0.0,0.0,0.0,0.0,0.0,0.0,0.0,0.0,0.0,0.0,0.0,0.0,0.0,0.0,0.0,0.0,0.0,0.0,0.0,0.0,0.0,0.0,0.0,0.0,0.0,0.0,0.0,0.0,0.0,0.0,0.0,0.0,0.0,0.0,0.0,0.0,0.0,0.0,0.0,0.0,0.0,0.0,0.0,0.0,0.0,0.0,0.0,0.0,0.0,0.0,0.0,0.0,0.0,0.0,0.0,0.0,0.0,0.0,0.0,0.0,0.0,0.0,0.0,0.0,0.0,0.0,0.0,0.0,0.0,0.0,0.0,0.0,0.0,0.0,0.0,0.0,0.0,0.0,0.0,0.0,0.0,0.0,0.0,0.0,0.0,0.0,0.0,0.0,0.0,0.0,0.0,0.0,0.0,0.0,0.0,1.0154,0.9866,1.0131,1.0288,1.0308,0.0,0.0,0.0,0.0,0.0,0.0,0.0,0.0,0.0,0.0,0.0,0.0,0.0,0.0,0.0,0.0,0.0,0.0,0.0,0.0,0.0,0.0,0.0,0.0,0.0,0.0,0.0,0.0,0.0,0.0,0.0,0.0,0.0,0.0,0.0,0.0,0.0,0.0,0.0,0.0,0.0,0.0,0.0,0.0,0.0,0.0,0.0,0.0,0.0,0.0,0.0,0.0,0.0,0.0,0.0,0.0,0.0,0.0,0.0,0.0,0.0,0.0,0.0,0.0,0.0,0.0,0.0,0.0,0.0,0.0,0.0,0.0,0.0,0.0,0.0,0.0,0.0,0.0,0.0,0.0,0.0,0.0,0.0,0.0,0.0,0.0,0.0,0.0,0.0,0.0,0.0,0.0,0.0,0.0,0.0,0.0,0.0,0.0,0.0,0.0,0.0,0.0,0.0,0.0,0.0,0.0,0.0,0.0,0.0,0.0,0.0,0.0,1.0401,1.0733,1.104,0.0,0.0,0.0,0.0,0.0,0.0,0.0,0.0,0.0,0.0,0.0,0.0,0.0,0.0,0.0,0.0,0.0,0.0,0.0,0.0,0.0,0.0,0.0,0.0,0.0,0.0,0.0,0.0,0.0,0.0,0.0,0.0,0.0,0.0,0.0,0.0,0.0,0.0,0.0,0.0,0.0,0.0,0.0,0.0,0.0,0.0,0.0,0.0,0.0,0.0,0.0,0.0,0.0,0.0,0.0,0.0,0.0,0.0,0.0,0.0,0.0,0.0,0.0,0.0,0.0,0.0,0.0,0.0,0.0,0.0,0.0,0.0,0.0,0.0,0.0,0.0,0.0,0.0,0.0,0.0,0.0,0.0,0.0,0.0,0.0,0.0,0.0,0.0,0.0,0.0,0.0,0.0,0.0,0.0,0.0,0.0,0.0,0.0,0.0,0.0,0.0,0.0,0.0,0.0,0.0,0.0,0.0,0.0,0.0,0.0,1.0312,1.0359,1.0514,0.0,1.1936,0.0,0.0,0.0,0.0,0.0,0.0,0.0,0.0,0.0,0.0,0.0,0.0,0.0,0.0,0.0,0.0,0.0,0.0,0.0,0.0,0.0,0.0,0.0,0.0,0.0,0.0,0.0,0.0,0.0,0.0,0.0,0.0,0.0,0.0,0.0,0.0,0.0,0.0,0.0,0.0,0.0,0.0,0.0,0.0,0.0,0.0,0.0,0.0,0.0,0.0,0.0,0.0,0.0,0.0,0.0,0.0,0.0,0.0,0.0,0.0,0.0,0.0,0.0,0.0,0.0,0.0,0.0,0.0,0.0,0.0,0.0,0.0,0.0,0.0,0.0,0.0,0.0,0.0,0.0,0.0,0.0,0.0,0.0,0.0,0.0,0.0,0.0,0.0,0.0,0.0,0.0,0.0,0.0,0.0,0.0,0.0,0.0,0.0,0.0,0.0,0.0,0.0,0.0,0.0,0.0,0.0,0.0,0.0,0.0,0.0,1.0332,1.0399,1.0736,1.1255,0.0,0.0,0.0,0.0,0.0,0.0,0.0,0.0,0.0,0.0,0.0,0.0,0.0,0.0,0.0,0.0,0.0,0.0,0.0,0.0,0.0,0.0,0.0,0.0,0.0,0.0,0.0,0.0,0.0,0.0,0.0,0.0,0.0,0.0,0.0,0.0,0.0,0.0,0.0,0.0,0.0,0.0,0.0,0.0,0.0,0.0,0.0,0.0,0.0,0.0,0.0,0.0,0.0,0.0,0.0,0.0,0.0,0.0,0.0,0.0,0.0,0.0,0.0,0.0,0.0,0.0,0.0,0.0,0.0,0.0,0.0,0.0,0.0,0.0,0.0,0.0,0.0,0.0,0.0,0.0,0.0,0.0,0.0,0.0,0.0,0.0,0.0,0.0,0.0,0.0,0.0,0.0,0.0,0.0,0.0,0.0,0.0,0.0,0.0,0.0,0.0,0.0,0.0,0.0,0.0,0.0,0.0,0.0,0.0,0.0,1.038,1.0361,1.0457,1.084,1.1367,1.2077,0.0,0.0,0.0,0.0,0.0,0.0,0.0,0.0,0.0,0.0,0.0,0.0,0.0,0.0,0.0,0.0,0.0,0.0,0.0,0.0,0.0,0.0,0.0,0.0,0.0,0.0,0.0,0.0,0.0,0.0,0.0,0.0,0.0,0.0,0.0,0.0,0.0,0.0,0.0,0.0,0.0,0.0,0.0,0.0,0.0,0.0,0.0,0.0,0.0,0.0,0.0,0.0,0.0,0.0,0.0,0.0,0.0,0.0,0.0,0.0,0.0,0.0,0.0,0.0,0.0,0.0,0.0,0.0,0.0,0.0,0.0,0.0,0.0,0.0,0.0,0.0,0.0,0.0,0.0,0.0,0.0,0.0,0.0,0.0,0.0,0.0,0.0,0.0,0.0,0.0,0.0,0.0,0.0,0.0,0.0,0.0,0.0,0.0,0.0,0.0,0.0,0.0,0.0,0.0,0.0,0.0,0.0,0.0,1.0418,1.0332,1.04,1.0582,1.0802,1.1282,0.0,0.0,0.0,0.0,0.0,0.0,0.0,0.0,0.0,0.0,0.0,0.0,0.0,0.0,0.0,0.0,0.0,0.0,0.0,0.0,0.0,0.0,0.0,0.0,0.0,0.0,0.0,0.0,0.0,0.0,0.0,0.0,0.0,0.0,0.0,0.0,0.0,0.0,0.0,0.0,0.0,0.0,0.0,0.0,0.0,0.0,0.0,0.0,0.0,0.0,0.0,0.0,0.0,0.0,0.0,0.0,0.0,0.0,0.0,0.0,0.0,0.0,0.0,0.0,0.0,0.0,0.0,0.0,0.0,0.0,0.0,0.0,0.0,0.0,0.0,0.0,0.0,0.0,0.0,0.0,0.0,0.0,0.0,0.0,0.0,0.0,0.0,0.0,0.0,0.0,0.0,0.0,0.0,0.0,0.0,0.0,0.0,0.0,0.0,0.0,0.0,0.0,0.0,0.0,0.0,0.0,0.0,0.0,0.0,1.0399,1.0332,1.04,1.0602,1.084,1.1338,0.0,0.0,0.0,0.0,0.0,0.0,0.0,0.0,0.0,0.0,0.0,0.0,0.0,0.0,0.0,0.0,0.0,0.0,0.0,0.0,0.0,0.0,0.0,0.0,0.0,0.0,0.0,0.0,0.0,0.0,0.0,0.0,0.0,0.0,0.0,0.0,0.0,0.0,0.0,0.0,0.0,0.0,0.0,0.0,0.0,0.0,0.0,0.0,0.0,0.0,0.0,0.0,0.0,0.0,0.0,0.0,0.0,0.0,0.0,0.0,0.0,0.0,0.0,0.0,0.0,0.0,0.0,0.0,0.0,0.0,0.0,0.0,0.0,0.0,0.0,0.0,0.0,0.0,0.0,0.0,0.0,0.0,0.0,0.0,0.0,0.0,0.0,0.0,0.0,0.0,0.0,0.0,0.0,0.0,0.0,0.0,0.0,0.0,0.0,0.0,0.0,0.0,0.0,0.0,0.0,0.0,0.0,0.0,0.0,1.0399,0.0,1.0249,1.0465,1.0753,1.1264,0.0,0.0,0.0,0.0,0.0,0.0,0.0,0.0,0.0,0.0,0.0,0.0,0.0,0.0,0.0,0.0,0.0,0.0,0.0,0.0,0.0,0.0,0.0,0.0,0.0,0.0,0.0,0.0,0.0,0.0,0.0,0.0,0.0,0.0,0.0,0.0,0.0,0.0,0.0,0.0,0.0,0.0,0.0,0.0,0.0,0.0,0.0,0.0,0.0,0.0,0.0,0.0,0.0,0.0,0.0,0.0,0.0,0.0,0.0,0.0,0.0,0.0,0.0,0.0,0.0,0.0,0.0,0.0,0.0,0.0,0.0,0.0,0.0,0.0,0.0,0.0,0.0,0.0,0.0,0.0,0.0,0.0,0.0,0.0,0.0,0.0,0.0,0.0,0.0,0.0,0.0,0.0,0.0,0.0,0.0,0.0,0.0,0.0,0.0,0.0,0.0,0.0,0.0,0.0,0.0,0.0,0.0,0.0,1.0525,1.0389,1.0022,0.9941,1.0211,1.0556,1.1063,0.0,0.0,0.0,0.0,0.0,0.0,0.0,0.0,0.0,0.0,0.0,0.0,0.0,0.0,0.0,0.0,0.0,0.0,0.0,0.0,0.0,0.0,0.0,0.0,0.0,0.0,0.0,0.0,0.0,0.0,0.0,0.0,0.0,0.0,0.0,0.0,0.0,0.0,0.0,0.0,0.0,0.0,0.0,0.0,0.0,0.0,0.0,0.0,0.0,0.0,0.0,0.0,0.0,0.0,0.0,0.0,0.0,0.0,0.0,0.0,0.0,0.0,0.0,0.0,0.0,0.0,0.0,0.0,0.0,0.0,0.0,0.0,0.0,0.0,0.0,0.0,0.0,0.0,0.0,0.0,0.0,0.0,0.0,0.0,0.0,0.0,0.0,0.0,0.0,0.0,0.0,0.0,0.0,0.0,0.0,0.0,0.0,0.0,0.0,0.0,0.0,0.0,0.0,0.0,0.0,0.0,0.0,0.0,0.0,1.0399,1.0059,1.0003,1.0261,1.0721,1.1302,0.0,0.0,0.0,0.0,0.0,0.0,0.0,0.0,0.0,0.0,0.0,0.0,0.0,0.0,0.0,0.0,0.0,0.0,0.0,0.0,0.0,0.0,0.0,0.0,0.0,0.0,0.0,0.0,0.0,0.0,0.0,0.0,0.0,0.0,0.0,0.0,0.0,0.0,0.0,0.0,0.0,0.0,0.0,0.0,0.0,0.0,0.0,0.0,0.0,0.0,0.0,0.0,0.0,0.0,0.0,0.0,0.0,0.0,0.0,0.0,0.0,0.0,0.0,0.0,0.0,0.0,0.0,0.0,0.0,0.0,0.0,0.0,0.0,0.0,0.0,0.0,0.0,0.0,0.0,0.0,0.0,0.0,0.0,0.0,0.0,0.0,0.0,0.0,0.0,0.0,0.0,0.0,0.0,0.0,0.0,0.0,0.0,0.0,0.0,0.0,0.0,0.0,0.0,0.0,0.0,0.0,0.0,0.0,0.0,1.0571,1.0071,0.996,1.025,1.0827,1.1459,1.2146,0.0,0.0,0.0,0.0,0.0,0.0,0.0,0.0,0.0,0.0,0.0,0.0,0.0,0.0,0.0,0.0,0.0,0.0,0.0,0.0,0.0,0.0,0.0,0.0,0.0,0.0,0.0,0.0,0.0,0.0,0.0,0.0,0.0,0.0,0.0,0.0,0.0,0.0,0.0,0.0,0.0,0.0,0.0,0.0,0.0,0.0,0.0,0.0,0.0,0.0,0.0,0.0,0.0,0.0,0.0,0.0,0.0,0.0,0.0,0.0,0.0,0.0,0.0,0.0,0.0,0.0,0.0,0.0,0.0,0.0,0.0,0.0,0.0,0.0,0.0,0.0,0.0,0.0,0.0,0.0,0.0,0.0,0.0,0.0,0.0,0.0,0.0,0.0,0.0,0.0,0.0,0.0,0.0,0.0,0.0,0.0,0.0,0.0,0.0,0.0,0.0,0.0,0.0,0.0,0.0,0.0,0.0,0.0,1.0916,1.0123,0.9878,1.0205,1.09,1.1563,0.0,0.0,0.0,0.0,0.0,0.0,0.0,0.0,0.0,0.0,0.0,0.0,0.0,0.0,0.0,0.0,0.0,0.0,0.0,0.0,0.0,0.0,0.0,0.0,0.0,0.0,0.0,0.0,0.0,0.0,0.0,0.0,0.0,0.0,0.0,0.0,0.0,0.0,0.0,0.0,0.0,0.0,0.0,0.0,0.0,0.0,0.0,0.0,0.0,0.0,0.0,0.0,0.0,0.0,0.0,0.0,0.0,0.0,0.0,0.0,0.0,0.0,0.0,0.0,0.0,0.0,0.0,0.0,0.0,0.0,0.0,0.0,0.0,0.0,0.0,0.0,0.0,0.0,0.0,0.0,0.0,0.0,0.0,0.0,0.0,0.0,0.0,0.0,0.0,0.0,0.0,0.0,0.0,0.0,0.0,0.0,0.0,0.0,0.0,0.0,0.0,0.0,0.0,0.0,0.0,0.0,0.0,0.0,0.0,1.1092,1.0889,1.0654,1.048,1.1459,1.216,0.0,0.0,0.0,0.0,0.0,0.0,0.0,0.0,0.0,0.0,0.0,0.0,0.0,0.0,0.0,0.0,0.0,0.0,0.0,0.0,0.0,0.0,0.0,0.0,0.0,0.0,0.0,0.0,0.0,0.0,0.0,0.0,0.0,0.0,0.0,0.0,0.0,0.0,0.0,0.0,0.0,0.0,0.0,0.0,0.0,0.0,0.0,0.0,0.0,0.0,0.0,0.0,0.0,0.0,0.0,0.0,0.0,0.0,0.0,0.0,0.0,0.0,0.0,0.0,0.0,0.0,0.0,0.0,0.0,0.0,0.0,0.0,0.0,0.0,0.0,0.0,0.0,0.0,0.0,0.0,0.0,0.0,0.0,0.0,0.0,0.0,0.0,0.0,0.0,0.0,0.0,0.0,0.0,0.0,0.0,0.0,0.0,0.0,0.0,0.0,0.0,0.0,0.0,0.0,0.0,0.0,0.0,0.0,1.133,1.1356,1.1494,1.1485,1.1256,1.2114,1.2828,0.0,0.0,0.0,0.0,0.0,0.0,0.0,0.0,0.0,0.0,0.0,0.0,0.0,0.0,0.0,0.0,0.0,0.0,0.0,0.0,0.0,0.0,0.0,0.0,0.0,0.0,0.0,0.0,0.0,0.0,0.0,0.0,0.0,0.0,0.0,0.0,0.0,0.0,0.0,0.0,0.0,0.0,0.0,0.0,0.0,0.0,0.0,0.0,0.0,0.0,0.0,0.0,0.0,0.0,0.0,0.0,0.0,0.0,0.0,0.0,0.0,0.0,0.0,0.0,0.0,0.0,0.0,0.0,0.0,0.0,0.0,0.0,0.0,0.0,0.0,0.0,0.0,0.0,0.0,0.0,0.0,0.0,0.0,0.0,0.0,0.0,0.0,0.0,0.0,0.0,0.0,0.0,0.0,0.0,0.0,0.0,0.0,0.0,0.0,0.0,0.0,0.0,0.0,0.0,0.0,0.0,0.0,0.0,1.1627,1.1671,1.2,1.2258,1.2355,1.2844,1.3464,0.0,0.0,0.0,0.0,0.0,0.0,0.0,0.0,0.0,0.0,0.0,0.0,0.0,0.0,0.0,0.0,0.0,0.0,0.0,0.0,0.0,0.0,0.0,0.0,0.0,0.0,0.0,0.0,0.0,0.0,0.0,0.0,0.0,0.0,0.0,0.0,0.0,0.0,0.0,0.0,0.0,0.0,0.0,0.0,0.0,0.0,0.0,0.0,0.0,0.0,0.0,0.0,0.0,0.0,0.0,0.0,0.0,0.0,0.0,0.0,0.0,0.0,0.0,0.0,0.0,0.0,0.0,0.0,0.0,0.0,0.0,0.0,0.0,0.0,0.0,0.0,0.0,0.0,0.0,0.0,0.0,0.0,0.0,0.0,0.0,0.0,0.0,0.0,0.0,0.0,0.0,0.0,0.0,0.0,0.0,0.0,0.0,0.0,0.0,0.0,0.0,0.0,0.0,0.0,0.0,0.0,0.0,0.0,1.2168,1.2102,1.2609,1.2804,1.2628,1.3382,1.4012,0.0,0.0,0.0,0.0,0.0,0.0,0.0,0.0,0.0,0.0,0.0,0.0,0.0,0.0,0.0,0.0,0.0,0.0,0.0,0.0,0.0,0.0,0.0,0.0,0.0,0.0,0.0,0.0,0.0,0.0,0.0,0.0,0.0,0.0,0.0,0.0,0.0,0.0,0.0,0.0,0.0,0.0,0.0,0.0,0.0,0.0,0.0,0.0,1.1537,0.0,0.0,0.0,0.0,0.0,0.0,0.0,0.0,0.0,0.0,0.0,0.0,0.0,0.0,0.0,0.0,0.0,0.0,0.0,0.0,0.0,0.0,0.0,0.0,0.0,0.0,0.0,0.0,0.0,0.0,0.0,0.0,0.0,0.0,0.0,0.0,0.0,0.0,0.0,0.0,0.0,0.0,0.0,0.0,0.0,0.0,0.0,0.0,0.0,0.0,0.0,0.0,0.0,0.0,0.0,0.0,0.0,0.0,0.0,1.2573,1.2496,1.2948,1.3111,1.2972,1.3554,1.4163,0.0,0.0,0.0,0.0,0.0,0.0,0.0,0.0,0.0,0.0,0.0,0.0,0.0,0.0,0.0,0.0,0.0,0.0,0.0,0.0,0.0,0.0,0.0,0.0,0.0,0.0,0.0,0.0,0.0,0.0,0.0,0.0,0.0,0.0,0.0,0.0,0.0,0.0,0.0,0.0,0.0,0.0,0.0,0.0,0.0,0.0,0.0,0.0,0.0,0.0,0.0,0.0,0.0,0.0,0.0,0.0,0.0,0.0,0.0,0.0,0.0,0.0,0.0,0.0,0.0,0.0,0.0,0.0,0.0,0.0,0.0,0.0,0.0,0.0,0.0,0.0,0.0,0.0,0.0,0.0,0.0,0.0,0.0,0.0,0.0,0.0,0.0,0.0,0.0,0.0,0.0,0.0,0.0,0.0,0.0,0.0,0.0,0.0,0.0,0.0,0.0,0.0,0.0,0.0,0.0,0.0,0.0,1.2791,1.2908,1.2925,1.3263,1.3331,1.3135,1.3637,1.4224,1.4885,0.0,0.0,0.0,0.0,0.0,0.0,0.0,0.0,0.0,0.0,0.0,0.0,0.0,0.0,0.0,0.0,0.0,0.0,0.0,0.0,0.0,0.0,0.0,0.0,0.0,0.0,0.0,0.0,0.0,0.0,0.0,0.0,0.0,0.0,0.0,0.0,0.0,0.0,1.197,1.2033,0.0,0.0,0.0,0.0,0.0,0.0,0.0,0.0,1.1621,0.0,0.0,0.0,0.0,0.0,0.0,0.0,0.0,0.0,0.0,0.0,0.0,0.0,0.0,0.0,0.0,0.0,0.0,0.0,0.0,0.0,0.0,0.0,0.0,0.0,0.0,0.0,0.0,0.0,0.0,0.0,0.0,0.0,0.0,0.0,0.0,0.0,0.0,0.0,0.0,0.0,0.0,0.0,0.0,0.0,0.0,0.0,0.0,0.0,0.0,0.0,0.0,0.0,0.0,0.0,0.0,1.2843,1.319,1.3378,1.3391,1.3828,1.3648,1.287,1.3868,1.4582,1.4861,0.0,0.0,0.0,0.0,0.0,0.0,0.0,0.0,0.0,0.0,0.0,0.0,0.0,0.0,0.0,0.0,0.0,0.0,0.0,0.0,0.0,0.0,0.0,0.0,0.0,0.0,0.0,0.0,0.0,0.0,0.0,0.0,0.0,0.0,0.0,0.0,0.0,0.0,0.0,1.1891,1.197,0.0,0.0,0.0,0.0,0.0,0.0,0.0,0.0,1.2226,0.0,0.0,0.0,0.0,0.0,0.0,0.0,0.0,0.0,0.0,0.0,0.0,0.0,0.0,0.0,0.0,0.0,0.0,0.0,0.0,0.0,0.0,0.0,0.0,0.0,0.0,0.0,0.0,0.0,0.0,0.0,0.0,0.0,0.0,0.0,0.0,0.0,0.0,0.0,0.0,0.0,0.0,0.0,0.0,0.0,0.0,0.0,0.0,0.0,0.0,0.0,0.0,0.0,0.0,0.0,1.3455,1.3711,1.3861,1.3865,1.3909,1.3631,1.2994,1.3905,1.4592,0.0,0.0,0.0,0.0,0.0,0.0,0.0,0.0,0.0,0.0,0.0,0.0,0.0,0.0,0.0,0.0,0.0,0.0,0.0,0.0,0.0,0.0,0.0,0.0,0.0,0.0,0.0,0.0,0.0,0.0,0.0,0.0,0.0,0.0,0.0,0.0,0.0,0.0,0.0,0.0,1.2268,1.2272,1.2126,0.0,0.0,0.0,0.0,0.0,0.0,1.2895,1.3092,0.0,0.0,0.0,0.0,0.0,0.0,0.0,0.0,0.0,0.0,0.0,0.0,0.0,0.0,0.0,0.0,0.0,0.0,0.0,0.0,0.0,0.0,0.0,0.0,0.0,0.0,0.0,0.0,0.0,0.0,0.0,0.0,0.0,0.0,0.0,0.0,0.0,0.0,0.0,0.0,0.0,0.0,0.0,0.0,0.0,0.0,0.0,0.0,0.0,0.0,0.0,0.0,0.0,0.0,0.0,1.4017,1.4049,1.4178,1.4292,1.3883,1.3544,1.3365,1.4087,1.4749,0.0,0.0,0.0,0.0,0.0,0.0,0.0,0.0,0.0,0.0,0.0,0.0,0.0,0.0,0.0,0.0,0.0,0.0,0.0,0.0,0.0,0.0,0.0,0.0,0.0,0.0,0.0,0.0,0.0,0.0,0.0,0.0,0.0,0.0,0.0,0.0,0.0,0.0,0.0,0.0,0.0,1.2552,1.2279,1.2247,0.0,0.0,0.0,0.0,1.3663,1.3859,0.0,0.0,0.0,0.0,0.0,0.0,0.0,0.0,0.0,0.0,0.0,0.0,0.0,0.0,0.0,0.0,0.0,0.0,0.0,0.0,0.0,0.0,0.0,0.0,0.0,0.0,0.0,0.0,0.0,0.0,0.0,0.0,0.0,0.0,0.0,0.0,0.0,0.0,0.0,0.0,0.0,0.0,0.0,0.0,0.0,0.0,0.0,0.0,0.0,0.0,0.0,0.0,0.0,0.0,0.0,0.0,1.4268,1.3939,1.4064,1.4662,1.387,1.3516,1.3732,1.4902,1.5526,0.0,0.0,0.0,0.0,0.0,0.0,0.0,0.0,0.0,0.0,0.0,0.0,0.0,0.0,0.0,0.0,0.0,0.0,0.0,0.0,0.0,0.0,0.0,0.0,0.0,0.0,0.0,0.0,0.0,0.0,0.0,0.0,0.0,0.0,0.0,0.0,0.0,0.0,0.0,0.0,0.0,1.2504,1.2694,1.2711,1.2772,0.0,0.0,1.3652,1.3853,1.4326,0.0,0.0,0.0,0.0,0.0,0.0,0.0,0.0,0.0,0.0,0.0,0.0,0.0,0.0,0.0,0.0,0.0,0.0,0.0,0.0,0.0,0.0,0.0,0.0,0.0,0.0,0.0,0.0,0.0,0.0,0.0,0.0,0.0,0.0,0.0,0.0,0.0,0.0,0.0,0.0,0.0,0.0,0.0,0.0,0.0,0.0,0.0,0.0,0.0,0.0,0.0,0.0,0.0,0.0,0.0,1.548,1.424,1.408,1.4227,1.4587,1.3681,1.3473,1.4137,1.505,1.5598,0.0,0.0,0.0,0.0,0.0,0.0,0.0,0.0,0.0,0.0,0.0,0.0,0.0,0.0,0.0,0.0,0.0,0.0,0.0,0.0,0.0,0.0,0.0,0.0,0.0,0.0,0.0,0.0,0.0,0.0,0.0,0.0,0.0,0.0,0.0,0.0,0.0,0.0,0.0,0.0,0.0,0.0,1.3386,1.3358,0.0,0.0,0.0,1.4739,1.5572,0.0,0.0,0.0,0.0,0.0,0.0,0.0,0.0,0.0,0.0,0.0,0.0,0.0,0.0,0.0,0.0,0.0,0.0,0.0,0.0,0.0,0.0,0.0,0.0,0.0,0.0,0.0,0.0,0.0,0.0,0.0,0.0,0.0,0.0,0.0,0.0,0.0,0.0,0.0,0.0,0.0,0.0,0.0,0.0,0.0,0.0,0.0,0.0,0.0,0.0,0.0,0.0,0.0,0.0,0.0,0.0,0.0,1.4199,1.4125,1.4292,1.4599,1.3479,1.3406,1.4508,1.5132,0.0,0.0,0.0,0.0,0.0,0.0,0.0,0.0,0.0,0.0,0.0,0.0,0.0,0.0,0.0,0.0,0.0,0.0,0.0,0.0,0.0,0.0,0.0,0.0,0.0,0.0,0.0,1.6454,0.0,0.0,0.0,0.0,0.0,0.0,0.0,0.0,0.0,0.0,0.0,0.0,0.0,0.0,1.4195,1.3994,1.3983,1.4423,0.0,0.0,1.5832,1.6951,1.6805,1.653,0.0,0.0,0.0,0.0,0.0,0.0,0.0,0.0,0.0,0.0,0.0,0.0,0.0,0.0,0.0,0.0,0.0,0.0,0.0,0.0,0.0,0.0,0.0,0.0,0.0,0.0,0.0,0.0,0.0,0.0,0.0,0.0,0.0,0.0,0.0,0.0,0.0,0.0,0.0,0.0,0.0,0.0,0.0,0.0,0.0,0.0,0.0,0.0,0.0,0.0,0.0,0.0,0.0,0.0,0.0,1.4341,1.3866,1.4117,1.4971,1.3416,1.3321,1.4886,1.5314,1.5632,0.0,0.0,0.0,0.0,0.0,0.0,0.0,0.0,0.0,0.0,0.0,0.0,0.0,0.0,0.0,0.0,0.0,0.0,0.0,0.0,0.0,0.0,0.0,0.0,0.0,0.0,0.0,0.0,0.0,0.0,0.0,0.0,0.0,0.0,0.0,0.0,0.0,0.0,0.0,0.0,0.0,1.4256,1.4337,1.4406,1.4754,0.0,0.0,1.6789,1.7149,1.722,1.707,1.6651,0.0,0.0,0.0,0.0,0.0,0.0,0.0,0.0,0.0,0.0,0.0,0.0,0.0,0.0,0.0,0.0,0.0,0.0,0.0,0.0,0.0,0.0,0.0,0.0,0.0,0.0,0.0,0.0,0.0,0.0,0.0,0.0,0.0,0.0,0.0,0.0,0.0,0.0,0.0,0.0,0.0,0.0,0.0,0.0,0.0,0.0,0.0,0.0,0.0,0.0,0.0,0.0,0.0,1.6415,1.4703,1.4568,1.4615,1.4777,1.4336,1.4476,1.5222,1.6021,1.6468,0.0,0.0,0.0,0.0,0.0,0.0,0.0,0.0,0.0,0.0,0.0,0.0,0.0,0.0,0.0,0.0,0.0,0.0,0.0,0.0,0.0,0.0,0.0,0.0,0.0,0.0,0.0,0.0,1.4872,1.4568,1.4468,0.0,0.0,0.0,0.0,0.0,0.0,0.0,0.0,0.0,0.0,1.4862,1.4994,1.5066,0.0,0.0,1.6954,1.7273,1.8267,1.7836,1.7302,1.7108,1.6649,0.0,0.0,0.0,0.0,0.0,0.0,0.0,0.0,0.0,0.0,0.0,0.0,0.0,0.0,0.0,0.0,0.0,0.0,0.0,0.0,0.0,0.0,0.0,0.0,0.0,0.0,0.0,0.0,0.0,0.0,0.0,0.0,0.0,0.0,0.0,0.0,0.0,0.0,0.0,0.0,0.0,0.0,0.0,0.0,0.0,0.0,0.0,0.0,0.0,0.0,0.0,0.0,1.668,1.4932,1.5076,1.5112,1.5032,1.512,1.5359,1.5815,1.6587,1.7001,0.0,0.0,0.0,0.0,0.0,0.0,0.0,0.0,0.0,0.0,0.0,0.0,0.0,0.0,0.0,0.0,0.0,0.0,0.0,0.0,0.0,0.0,0.0,0.0,0.0,0.0,0.0,0.0,1.4788,1.4427,1.4291,0.0,0.0,0.0,0.0,0.0,0.0,0.0,0.0,0.0,0.0,1.5299,1.5388,1.5477,1.5995,1.7282,1.7243,1.7471,1.8729,1.8269,1.7781,1.778,0.0,0.0,0.0,0.0,0.0,0.0,0.0,0.0,0.0,0.0,0.0,0.0,0.0,0.0,0.0,0.0,0.0,0.0,0.0,0.0,0.0,0.0,0.0,0.0,0.0,0.0,0.0,0.0,0.0,0.0,0.0,0.0,0.0,0.0,0.0,0.0,0.0,0.0,0.0,0.0,0.0,0.0,0.0,0.0,0.0,0.0,0.0,0.0,0.0,0.0,0.0,0.0,0.0,1.6757,1.504,1.5252,1.5537,1.5924,1.5539,1.5794,1.6717,1.6935,1.6996,1.7053,0.0,0.0,0.0,0.0,0.0,0.0,0.0,0.0,0.0,0.0,0.0,0.0,0.0,0.0,0.0,0.0,0.0,0.0,0.0,0.0,0.0,0.0,0.0,0.0,0.0,0.0,1.5283,1.5126,1.5047,0.0,0.0,0.0,0.0,0.0,0.0,0.0,0.0,0.0,0.0,1.5359,1.5389,1.5404,1.5522,1.5891,1.6668,1.6985,1.7409,1.8269,1.85,1.8589,0.0,0.0,0.0,0.0,0.0,0.0,0.0,0.0,0.0,0.0,0.0,0.0,0.0,0.0,0.0,0.0,0.0,0.0,0.0,0.0,0.0,0.0,0.0,0.0,0.0,0.0,0.0,0.0,1.8065,0.0,0.0,0.0,0.0,0.0,0.0,0.0,0.0,0.0,0.0,0.0,2.2276,2.2329,0.0,0.0,0.0,0.0,0.0,0.0,0.0,0.0,0.0,0.0,0.0,0.0,1.7456,1.6685,1.6378,1.6239,1.627,1.6686,1.6916,1.6942,1.7494,1.8035,1.8517,0.0,0.0,0.0,0.0,0.0,0.0,0.0,0.0,0.0,0.0,0.0,0.0,0.0,0.0,0.0,0.0,0.0,0.0,0.0,0.0,0.0,0.0,0.0,0.0,0.0,1.6022,0.0,0.0,0.0,0.0,0.0,0.0,0.0,0.0,0.0,0.0,0.0,1.5566,1.5522,1.5522,1.5522,1.5551,1.5697,1.6262,0.0,0.0,0.0,0.0,0.0,0.0,0.0,0.0,0.0,0.0,0.0,0.0,0.0,0.0,1.9989,1.9289,1.9257,1.9272,1.9063,0.0,0.0,0.0,0.0,0.0,0.0,0.0,0.0,0.0,0.0,0.0,0.0,0.0,0.0,0.0,0.0,1.9563,0.0,0.0,0.0,0.0,0.0,0.0,0.0,0.0,2.203,2.2189,2.2432,2.2501,2.2538,0.0,2.2538,2.2412,0.0,0.0,0.0,0.0,0.0,0.0,0.0,0.0,1.8207,1.7625,1.7327,1.7059,1.6858,1.7418,1.7618,1.7398,1.7935,1.8478,1.8977,1.9225,1.9589,0.0,0.0,0.0,0.0,0.0,0.0,0.0,0.0,0.0,0.0,0.0,0.0,0.0,0.0,0.0,0.0,0.0,0.0,0.0,0.0,0.0,0.0,0.0,1.6196,0.0,0.0,0.0,0.0,0.0,0.0,0.0,0.0,0.0,1.5727,1.6008,1.6126,1.5842,1.5992,1.6082,1.587,0.0,0.0,0.0,0.0,0.0,0.0,0.0,2.0002,2.0226,1.986,1.9639,1.994,2.0296,2.0509,2.0359,0.0,0.0,2.0052,2.0013,2.0028,1.9877,1.9559,1.9356,1.9496,1.9743,1.9766,0.0,0.0,0.0,0.0,0.0,0.0,0.0,0.0,2.0147,2.0258,0.0,2.0411,0.0,0.0,0.0,0.0,0.0,0.0,0.0,0.0,2.238,2.2463,2.2549,2.2634,2.2701,2.2754,2.2735,2.2678,2.2634,2.2053,0.0,0.0,0.0,0.0,0.0,0.0,1.8982,1.7966,1.8057,1.7973,1.7667,1.7777,1.7917,1.8095,1.8229,1.8339,1.843,1.9084,1.9468,1.9485,2.019,0.0,0.0,0.0,0.0,0.0,0.0,0.0,0.0,0.0,0.0,0.0,0.0,0.0,0.0,0.0,0.0,0.0,0.0,0.0,0.0,1.6557,0.0,0.0,0.0,0.0,0.0,0.0,0.0,0.0,0.0,0.0,1.6257,1.6694,1.6934,1.6362,0.0,0.0,0.0,0.0,1.6778,1.7609,1.7801,1.8424,1.987,2.0107,2.044,2.1148,0.0,0.0,2.1119,2.1038,2.0957,2.0844,2.1087,2.1087,2.0381,2.0277,2.0208,2.0022,2.0072,2.0154,2.0227,2.0551,2.0639,2.2574,0.0,0.0,0.0,0.0,2.1955,2.1795,2.1294,2.1553,2.1568,2.1431,2.1416,0.0,0.0,0.0,0.0,0.0,0.0,2.246,2.2528,2.2542,2.2856,2.3423,2.345,2.377,2.4319,2.4322,2.4015,2.3467,2.3141,2.2551,2.1661,0.0,0.0,0.0,0.0,1.9761,1.9713,1.9334,1.8919,1.853,1.8629,1.8517,1.8263,1.8393,1.8465,1.8551,1.8747,1.8861,1.8886,1.9029,0.0,0.0,0.0,0.0,0.0,0.0,0.0,0.0,0.0,0.0,0.0,0.0,0.0,0.0,0.0,0.0,0.0,0.0,0.0,1.667,1.7157,1.7459,0.0,0.0,0.0,0.0,0.0,0.0,0.0,0.0,0.0,1.8171,1.8239,1.8228,0.0,0.0,1.8199,1.8041,1.8109,1.8491,1.9342,0.0,0.0,0.0,2.1156,2.1221,2.1354,2.134,2.1277,2.1262,2.123,2.1214,2.123,2.1371,2.1465,2.1324,2.1103,2.0958,2.091,2.0942,2.1007,2.1183,2.1293,2.1354,2.4362,2.3482,2.279,2.2391,2.2373,2.3225,2.3358,2.2947,2.3095,2.3157,2.3179,2.282,2.2918,2.3381,2.33,0.0,0.0,0.0,2.3396,2.3761,2.3744,2.4018,2.4444,2.4403,2.4649,2.51,2.5074,2.4772,2.4306,2.4067,2.3594,2.2869,0.0,0.0,2.1276,2.0825,2.0592,2.0576,2.0246,1.9823,1.9355,1.9199,1.8852,1.8363,1.8465,1.8581,1.8676,1.8705,1.8705,1.8686,1.8611,1.9007,0.0,0.0,0.0,0.0,0.0,0.0,0.0,0.0,0.0,0.0,0.0,1.818,1.8206,0.0,0.0,0.0,1.8068,1.7892,1.7741,1.8195,0.0,0.0,0.0,0.0,0.0,0.0,0.0,1.948,1.9712,1.9895,2.0015,1.9956,1.9673,1.8995,1.9156,1.9251,1.8962,0.0,1.9357,2.0189,2.0389,2.0723,2.1504,2.1634,2.1617,2.1616,2.157,2.1556,2.1525,2.1525,2.154,2.157,2.1663,2.1768,2.1812,2.1738,2.1634,2.145,2.1388,2.1402,2.1574,2.1634,2.1724,2.6934,2.6149,2.4645,2.3757,2.3444,2.4896,2.5447,2.5295,2.4826,2.5039,2.5642,2.4582,2.4608,2.5407,2.4874,0.0,0.0,2.4536,2.4923,2.5623,2.5658,2.5746,2.5785,2.5672,2.5635,2.5705,2.5547,2.5458,2.5406,2.5084,2.483,2.4679,2.2983,2.2059,2.1904,2.1921,2.1571,2.0929,2.1025,2.0777,2.0158,1.9641,1.9133,1.8625,1.8735,1.8889,1.9012,1.9013,1.8986,1.8895,1.8841,1.9381,2.0614,0.0,0.0,0.0,0.0,0.0,0.0,0.0,0.0,0.0,0.0,0.0,0.0,0.0,0.0,0.0,1.9595,0.0,1.935,1.9454,0.0,0.0,0.0,1.9337,1.8723,1.957,2.0134,1.9972,0.0,0.0,0.0,0.0,2.1066,1.9613,1.9991,2.0183,1.9556,1.9537,1.9745,2.0541,2.0619,2.0863,2.1594,2.1724,2.1753,2.1855,2.1913,2.1882,2.1882,2.1882,2.1884,2.1825,2.1926,2.2027,2.2044,2.2132,2.2166,2.1756,2.1588,2.1526,2.1664,2.1769,2.1855,3.0018,2.9676,2.9329,2.7958,2.6064,2.6894,2.7265,2.7231,2.7333,2.7482,2.7683,2.7106,2.7151,2.7594,2.6864,2.6545,2.6593,2.644,2.6463,2.6677,2.7173,2.7713,2.8283,2.8232,2.8505,2.8986,2.8852,2.846,2.7916,2.7653,2.6924,2.5824,2.5215,2.4495,2.3708,2.3646,2.3294,2.2679,2.2708,2.2212,2.1178,2.0532,2.0261,2.0378,2.0512,2.0642,2.0767,2.0246,1.9912,1.9792,1.9672,1.997,2.0734,2.1307,0.0,0.0,0.0,0.0,0.0,0.0,0.0,0.0,0.0,1.9634,1.9747,0.0,1.9916,0.0,1.9891,1.9757,1.9694,2.0209,0.0,0.0,2.0834,2.1074,2.0858,2.0995,2.1126,2.1154,2.1442,2.1634,2.1679,2.1708,2.1622,2.1229,2.1226,2.1231,2.1081,2.1108,2.1187,2.135,2.1427,2.1554,2.1718,2.1811,2.1855,2.1913,2.194,2.1984,2.1984,2.1969,2.1969,2.1969,2.2104,2.2206,2.222,2.2307,2.2335,2.2206,2.2106,2.2032,2.2125,2.2125,2.214,3.2563,3.2179,3.2441,3.169,3.0283,3.0209,3.0189,3.0209,3.0093,3.0107,3.017,2.9485,2.9138,2.9037,2.8647,2.8455,2.8442,2.834,2.8653,2.9309,2.9695,3.0098,3.0514,3.0448,3.0413,3.0427,3.0192,2.9822,2.9372,2.9117,2.852,2.7693,2.7498,2.6942,2.5997,2.4985,2.4308,2.3977,2.3606,2.2977,2.2048,2.1376,2.1016,2.1008,2.1167,2.1296,2.1384,2.1042,2.0761,2.059,2.0418,2.0629,2.1265,2.1639,2.2155,0.0,0.0,0.0,0.0,0.0,0.0,0.0,0.0,0.0,0.0,0.0,2.1078,0.0,0.0,0.0,2.0979,2.1311,2.1488,2.1384,2.1635,2.1783,2.162,2.1573,2.1572,2.1679,2.1694,2.1724,2.1738,2.1783,2.1781,2.1781,2.1739,2.1678,2.1694,2.1739,2.1738,2.1754,2.1783,2.1811,2.184,2.1869,2.1928,2.2003,2.2061,2.2104,2.2175,2.2172,2.2186,2.2229,2.236,2.2487,2.2474,2.2552,2.2605,2.2565,2.247,2.2377,2.231,2.2285,2.2254,3.4854,3.4305,3.4763,3.4935,3.4846,3.3974,3.3515,3.3272,3.2827,3.2684,3.2725,3.1696,3.0935,3.0399,3.0341,3.0287,3.0236,3.0314,3.1106,3.2363,3.2595,3.269,3.2672,3.256,3.2046,3.1207,3.0912,3.0692,3.0482,3.0189,2.9936,2.9747,2.9575,2.911,2.8271,2.63,2.5172,2.4938,2.4169,2.3473,2.2867,2.2304,2.1797,2.1356,2.1522,2.1642,2.1701,2.1657,2.1555,2.137,2.1178,2.1328,2.1902,2.1942,2.2265,0.0,2.2868,0.0,0.0,0.0,0.0,0.0,0.0,0.0,0.0,2.2487,2.2555,2.2542,2.2487,2.2446,2.2432,2.238,2.231,2.2206,2.2089,2.1882,2.1648,2.1679,2.1738,2.1811,2.1783,2.1753,2.1811,2.1842,2.1825,2.1825,2.1825,2.1825,2.1811,2.1812,2.1796,2.1796,2.1827,2.1855,2.1913,2.1928,2.202,2.2154,2.2197,2.2254,2.238,2.2374,2.2432,2.2501,2.2605,2.2699,2.2699,2.279,2.2855,2.2764,2.2632,2.2515,2.2363,2.2327,2.2313,3.7356,3.7197,3.7289,3.7273,3.7149,3.697,3.5936,3.4424,3.4675,3.4598,3.4214,3.3437,3.304,3.2926,3.2313,3.2002,3.2044,3.2616,3.3049,3.3395,3.467,3.5271,3.5275,3.5157,3.4663,3.3858,3.3546,3.3062,3.2456,3.2066,3.1582,3.0965,3.0715,3.023,0.0,0.0,0.0,0.0,2.4955,2.429,2.3698,2.3654,2.3448,2.3043,2.3236,0.0,2.3332,2.2777,2.2363,2.2177,2.2089,0.0,0.0,0.0,0.0,0.0,0.0,0.0,0.0,0.0,0.0,0.0,2.2615,2.2548,2.2552,2.2708,2.2803,2.2751,2.2721,2.2699,2.2646,2.2525,2.2405,2.2279,2.2061,2.1884,2.1783,2.1783,2.1825,2.1955,2.1955,2.194,2.1955,2.1969,2.1969,2.1969,2.1969,2.1969,2.1986,2.1884,2.1825,2.1869,2.1928,2.1969,2.1984,2.2077,2.2137,2.2197,2.2257,2.231,2.2408,2.2477,2.2515,2.2565,2.2716,2.2764,2.2725,2.2777,2.2803,2.2676,2.2579,2.2515,2.246,2.238,2.231,3.8189,0.0,3.8087,3.8,0.0,3.8018,3.7447,3.6468,3.6244,3.5856,3.537,3.4998,3.4891,3.4962,3.4573,3.4371,3.4408,3.4755,3.5158,3.556,3.6366,3.675,3.675,3.6647,3.6133,3.5306,3.504,3.4717,3.4223,3.3962,3.3402,3.257,3.2369,3.1705,3.0531,2.9232,2.7928,2.6586,2.5876,2.5204,2.4614,2.4419,2.4055,2.3575,0.0,0.0,0.0,0.0,0.0,0.0,0.0,0.0,0.0,0.0,0.0,2.3139,2.3033,2.2957,2.2944,2.2816,2.276,2.2842,2.2855,2.2829,2.2751,2.2842,2.2893,2.2855,2.2838,2.2816,2.2712,2.2623,2.2474,2.2279,2.2137,2.1991,2.1842,2.1915,2.2075,2.2217,2.2217,2.2203,2.2186,2.2231,2.2245,2.226,2.226,2.2243,2.2215,2.2044,2.1928,2.194,2.1984,2.203,2.2089,2.218,2.2254,2.2296,2.2377,2.2457,2.2542,2.2632,2.2725,2.279,2.2889,2.2982,2.2902,2.294,2.297,2.2829,2.2751,2.2703,2.2646,2.2501,2.2363,3.8372,3.8354,3.8236,3.8185,3.8219,3.834,3.8372,3.8318,0.0,0.0,0.0,3.6216,3.6208,3.6285,3.6285,3.6285,3.6303,3.645,3.6886,3.7492,3.7658,3.7713,3.7713,3.7619,3.7141,3.6261,3.6108,3.5876,3.5586,3.5425,3.4951,3.4242,3.3931,3.2945,3.1341,2.9881,2.8641,2.7599,2.6816,2.6141,2.5551,2.501,2.4432,2.3851,2.3883,2.3907,2.3917,2.3986,2.3937,2.3774,2.3631,2.3508,2.3447,2.3277,2.3175,2.3205,2.3095,2.302,2.3008,2.2927,2.2971,2.3123,2.3322,2.3287,2.2967,2.2944,2.2957,2.297,2.294,2.2906,2.2764,2.2685,2.2542,2.2276,2.2254,2.2137,2.1959,2.2089,2.2332,2.2497,2.2484,2.2443,2.246,2.2501,2.2555,2.2555,2.2538,2.2552,2.2528,2.2315,2.2144,2.2127,2.2169,2.2172,2.2265,2.2335,2.2377,2.2477,2.2538,2.2632,2.2738,2.2842,2.2944,2.3045,2.3139,2.318,2.3144,2.3144,2.3144,2.299,2.2932,2.2868,2.2773,2.2632,2.2511,3.8664,3.8645,3.8627,3.8611,3.8611,3.8627,3.8645,3.8554,3.7656,3.7266,3.7276,3.6564,3.627,3.6285,3.6285,3.6285,3.634,3.7015,3.7401,0.0,3.8212,3.8524,3.8542,3.841,3.7942,3.7247,3.7005,3.6578,3.5975,3.5654,3.5416,3.5271,3.4482,3.3179,3.1577,3.1095,3.0189,2.8706,2.7781,2.706,2.6521,2.5862,2.5271,2.4723,2.4197,2.3945,2.3986,2.4046,2.4054,2.3966,2.3845,2.3732,2.3667,2.3526,2.3383,2.3289,2.3151,2.3052,2.3008,2.2927,2.3223,2.3964,2.473,2.4554,2.313,2.3095,2.3168,2.3168,2.3174,2.3107,2.2965,2.2842,2.2685,2.2487,2.2405,2.2363,2.2315,2.2402,2.2538,2.273,2.2694,2.2676,2.2672,2.2685,2.2725,2.2751,2.2803,2.276,2.2764,2.2619,2.2525,2.2538,2.2579,2.2605,2.2592,2.2632,2.2632,2.2659,2.2672,2.2764,2.2863,2.2982,2.3082,2.3229,2.3289,2.3289,2.3277,2.318,2.3119,2.299,2.2919,2.2838,2.2803,2.2786,2.2812,3.9994,4.001,3.9994,4.001,4.001,3.9994,3.9994,3.9958,3.9559,3.8899,3.8138,3.7771,3.7606,3.7606,3.7606,3.7606,3.7624,3.7973,3.8157,3.8193,3.8542,3.8707,3.8707,3.8624,3.8425,3.8114,3.7932,3.7703,3.7353,3.7144,3.6862,3.6406,3.5058,3.3452,3.1718,3.1517,3.0869,2.9723,2.8798,2.783,2.6835,2.667,2.6075,2.5,2.4735,2.4474,2.4122,2.4134,2.4143,2.4124,2.4026,2.3927,2.3847,2.3671,2.3533,2.3464,2.3295,2.3381,2.3779,2.4189,2.4576,2.5015,2.5372,2.5314,2.4544,2.4123,2.3901,2.3883,2.3493,2.3156,2.3003,2.2919,2.2777,2.2565,2.2596,2.2592,2.2575,2.2681,2.2855,2.298,2.301,2.3033,2.3033,2.3095,2.3144,2.318,2.318,2.318,2.3163,2.3132,2.2965,2.2725,2.2672,2.2699,2.2712,2.2777,2.2803,2.2816,2.2944,2.3045,2.3114,2.3217,2.3348,2.343,2.3487,2.3517,2.3464,2.3424,2.3324,2.3247,2.3199,2.3151,2.3156,2.3193,2.318,4.1113,4.1113,4.1113,4.1113,4.1113,4.1113,4.1113,4.1113,4.1077,4.0398,3.9334,3.9258,3.9242,3.9239,3.9074,3.8964,3.8964,3.8781,3.8799,3.8964,3.8982,3.9056,3.9239,3.9239,3.9166,3.8967,3.8865,3.8742,3.8544,3.8465,3.7874,3.6843,3.5535,3.3924,3.2036,3.1941,3.1517,3.0736,3.0024,2.8976,2.7589,2.7399,2.679,2.575,2.5599,2.5344,2.4816,2.4772,2.469,2.4542,2.4457,2.4379,2.432,2.4074,2.403,2.4107,2.3969,2.4146,2.4741,2.5516,2.5959,2.5959,2.6131,2.6251,2.6198,2.5506,2.4974,2.4766,2.4221,2.3728,2.344,2.3312,2.311,2.2799,2.2998,2.3098,2.2946,2.313,2.3314,2.3312,2.3307,2.3336,2.336,2.343,2.3464,2.3476,2.3522,2.3533,2.3528,2.3517,2.3342,2.3045,2.2893,2.2919,2.2893,2.2982,2.3057,2.3045,2.3205,2.3313,2.3372,2.3505,2.3596,2.3629,2.3645,2.3656,2.3641,2.3614,2.358,2.3476,2.3453,2.3471,2.3482,2.3494,2.3476,4.1132,4.1113,4.1168,4.1113,4.1168,4.115,4.1168,4.1168,4.1132,4.104,4.0893,4.0875,4.0857,4.0765,4.0084,3.979,3.9717,3.9038,3.9111,3.9735,3.979,4.0175,4.0765,4.0838,4.0506,3.9863,3.9753,3.9352,3.875,3.8496,3.7571,3.6105,3.5765,3.4785,3.3194,3.2939,3.2478,3.1688,3.1643,3.0912,2.9463,2.8097,2.7434,2.7534,2.6851,2.651,2.6443,2.6556,2.6224,2.5551,2.5411,2.5344,2.5267,2.5142,2.5259,2.5697,2.5678,2.5661,2.5635,2.6282,2.6707,2.6743,2.74,2.7796,2.7779,2.7175,2.644,2.5854,2.561,2.5116,2.4468,2.43,2.399,2.3443,2.3862,2.403,2.3619,2.3993,2.4213,2.3553,2.3625,2.3512,2.3583,2.3552,2.3539,2.3607,2.3645,2.3656,2.3618,2.3596,2.3585,2.3441,2.3418,2.3395,2.3372,2.3418,2.3413,2.3424,2.3441,2.3499,2.3562,2.3585,2.3629,2.3721,2.3721,2.3721,2.3721,2.3696,2.3625,2.36,2.3567,2.3522,2.3573,2.3596,2.3585,4.2506,4.2506,4.2525,4.2525,4.2525,4.2506,4.2525,4.2525,4.2525,4.2525,4.2506,4.2525,4.2011,4.1095,4.0763,4.0616,4.0598,4.0267,4.0286,4.0598,4.0598,4.0799,4.1077,4.1113,4.091,4.0579,4.0168,3.9798,3.943,3.8906,3.7942,3.6757,3.6585,3.5847,3.4562,3.4425,3.4048,3.3304,3.2907,3.2288,3.1409,3.033,2.9374,2.8621,2.829,2.7661,2.691,2.6799,2.6662,2.6376,2.6291,2.6243,2.6175,2.596,2.5939,2.6104,2.639,2.6519,2.6485,2.7201,2.7632,2.7632,2.7945,2.8154,2.8154,2.7861,2.7553,2.7188,2.636,2.5641,2.5301,2.524,2.5085,2.485,2.512,2.5212,2.4998,2.5195,2.5278,2.4974,2.4581,2.427,2.421,2.3907,2.3729,2.3725,2.3739,2.3747,2.3725,2.3707,2.3714,2.3675,2.3675,2.3616,2.3533,2.3539,2.3562,2.3573,2.3629,2.3696,2.3707,2.3732,2.3747,2.38,2.3779,2.3768,2.38,2.3779,2.3725,2.3714,2.3696,2.3685,2.3707,2.3725,2.3725,4.3479,4.3479,4.3479,4.3479,4.3479,4.3479,4.3479,4.3479,4.3479,4.3479,4.3479,4.3479,4.2855,4.1846,4.1517,4.1442,4.1423,4.1187,4.1224,4.1389,4.1425,4.1554,4.1754,4.1789,4.166,4.1417,4.0983,4.0483,3.9994,3.9409,3.8407,3.7314,3.7057,3.6499,3.5498,3.523,3.4973,3.4623,3.4021,3.3549,3.3248,3.2757,3.163,3.0012,2.9854,2.9325,2.8248,2.7951,2.7749,2.7584,2.7312,2.7095,2.7024,2.6801,2.6708,2.679,2.7113,2.7335,2.7353,2.7874,2.8196,2.8196,2.8209,2.8205,2.8196,2.8209,2.8209,2.8088,2.7135,2.6449,2.6129,2.6111,2.6071,2.5913,2.6115,2.6266,2.6069,2.6201,2.6266,2.6015,2.5464,2.5056,2.4856,2.4454,2.4129,2.3857,2.3795,2.3795,2.3795,2.3795,2.3813,2.3795,2.3795,2.375,2.3616,2.3634,2.3656,2.3667,2.3725,2.3768,2.3797,2.3803,2.3795,2.3803,2.3813,2.3813,2.3803,2.3803,2.3803,2.3813,2.3795,2.3785,2.3792,2.3813,2.3813,4.3479,4.3479,4.3479,4.3479,4.3479,4.3479,4.3479,4.3479,4.3479,4.3479,4.3496,4.3496,4.346,4.3276,4.256,4.2249,4.2158,4.1535,4.1609,4.2213,4.2249,4.2653,4.3386,4.3454,4.3065,4.2382,4.2295,4.1507,4.0024,3.9816,3.8816,3.7172,3.704,3.6421,3.5588,3.4957,3.4803,3.5435,3.5012,3.4761,3.4926,3.5034,3.3918,3.189,3.158,3.1466,3.1325,3.0779,3.0047,2.9322,2.8462,2.7943,2.7856,2.7657,2.7719,2.8066,2.8125,2.8106,2.8106,2.816,2.8213,2.8209,2.8264,2.8277,2.8209,2.825,2.8264,2.8178,2.8021,2.7643,2.7072,2.696,2.6726,2.6277,2.674,2.685,2.6332,2.6922,2.6838,2.6387,2.6153,2.5768,2.5131,2.499,2.4646,2.4176,2.3886,2.3868,2.3904,2.3868,2.3795,2.3795,2.3795,2.3785,2.3774,2.3761,2.3753,2.3753,2.3771,2.3795,2.3795,2.3795,2.3795,2.3795,2.3795,2.3795,2.3795,2.3795,2.3795,2.3795,2.3795,2.3795,2.3795,2.3795,2.3795,4.3479,4.3479,4.3479,4.3479,4.3479,4.3479,4.3479,4.3479,4.3479,4.3513,4.3566,4.3565,4.3617,4.3667,4.3391,4.3194,4.3056,4.2763,4.2782,4.3074,4.3108,4.329,4.3528,4.3667,4.3625,4.3291,4.2855,4.2026,4.0938,4.0733,3.9989,3.8834,3.8431,3.7879,3.7109,3.6749,3.665,3.6601,3.648,3.6321,3.608,3.6142,3.5508,3.4191,3.3078,3.2291,3.1812,3.1515,3.1236,3.092,3.0035,2.9499,2.9308,2.8561,2.8144,2.8228,2.8209,2.8196,2.8196,2.8232,2.8259,2.8259,2.8286,2.8322,2.8259,2.825,2.8223,2.8213,2.8213,2.8017,2.7888,2.7803,2.7762,2.763,2.7815,2.792,2.7765,2.7871,2.7875,2.7563,2.7192,2.6567,2.6,2.5769,2.566,2.5353,2.49,2.4621,2.4465,2.4157,2.385,2.3795,2.3795,2.3795,2.3795,2.3795,2.3795,2.3795,2.3795,2.3795,2.3795,2.3795,2.3795,2.3795,2.3795,2.3795,2.3795,2.3795,2.3795,2.3795,2.3795,2.3795,2.3795,2.3795,2.3795,4.3479,4.3515,4.3513,4.3531,4.3549,4.3583,4.3583,4.3601,4.36,4.3617,4.3651,4.3667,4.3701,4.3788,4.3788,4.3738,4.3618,4.3583,4.3583,4.36,4.3634,4.3667,4.3684,4.3769,4.3818,4.3761,4.336,4.2622,4.1741,4.154,4.0888,3.9837,3.9589,3.9103,3.8384,3.8112,3.7883,3.7651,3.7543,3.7297,3.703,3.701,3.6692,3.5813,3.4525,3.3429,3.2611,3.2332,3.2161,3.2011,3.1221,3.0503,2.9965,2.8982,2.83,2.8227,2.8223,2.8219,2.8219,2.8304,2.8448,2.8681,2.8735,2.8775,2.8998,2.9032,2.9008,2.8945,2.8927,2.8891,2.8655,2.8625,2.8586,2.847,2.8445,2.8497,2.8536,2.8453,2.8427,2.8301,2.798,2.738,2.6771,2.6609,2.6439,2.6276,2.5697,2.5371,2.4972,2.4592,2.4041,2.386,2.3813,2.3795,2.3795,2.3795,2.3795,2.3795,2.3795,2.3795,2.3795,2.3795,2.3795,2.3795,2.3795,2.3795,2.3795,2.3795,2.3795,2.3806,2.3795,2.3795,2.3795,2.3795,2.3824,4.3496,4.3532,4.3583,4.3599,4.3634,4.3738,4.3788,4.3788,4.3788,4.3769,4.3788,4.3804,4.3786,4.382,4.3837,4.3804,4.3804,4.3804,4.3788,4.3753,4.3788,4.3804,4.3804,4.3849,4.3897,4.3897,4.3939,4.3399,4.2472,4.2214,4.1555,4.0583,4.031,3.9859,3.9031,3.8663,3.8425,3.8413,3.8033,3.7755,3.7794,3.7822,3.7474,3.6736,3.5931,3.5064,3.4191,3.3398,3.2931,3.2724,3.1918,3.0852,2.9737,2.8856,2.8313,2.8344,2.83,2.8336,2.8421,2.8551,2.9017,2.9417,2.9593,2.9839,3.0284,3.0435,3.0373,3.0243,3.0229,3.0104,2.953,2.933,2.9064,2.8546,2.8406,2.8458,2.8536,2.8536,2.851,2.8479,2.8397,2.8187,2.7646,2.7405,2.7188,2.6681,2.6331,2.6005,2.5461,2.5081,2.461,2.4114,2.385,2.3795,2.3795,2.3795,2.3795,2.3795,2.3795,2.3795,2.3795,2.3795,2.3795,2.3813,2.3863,2.3845,2.3827,2.3827,2.3837,2.3837,2.3827,2.3845,2.3855,2.3865,2.3855,4.3565,4.3565,4.3703,4.3736,4.3736,4.3788,4.3788,4.3804,4.3788,4.3818,4.3867,4.3867,4.3881,4.391,4.3926,4.3945,4.3945,4.3945,4.3899,4.3837,4.3835,4.3867,4.3883,4.3945,4.3974,4.3974,4.3989,4.3749,4.3264,4.3005,4.234,4.1432,4.1195,4.0835,4.0165,3.9591,3.9397,3.9571,3.8929,3.8608,3.8707,3.8688,3.8339,3.7662,3.7359,3.6596,3.5218,3.4259,3.371,3.3528,3.2664,3.1386,2.9927,2.9267,2.9054,2.9096,2.911,2.9434,2.9938,3.0066,3.0138,3.038,3.0438,3.0503,3.0646,3.0659,3.063,3.0547,3.0496,3.0368,3.0154,2.9715,2.9263,2.847,2.8411,2.8432,2.8505,2.8505,2.851,2.8492,2.8531,2.843,2.8279,2.8201,2.8038,2.7767,2.7345,2.6844,2.6572,2.5697,2.5009,2.4646,2.4284,2.385,2.3795,2.3795,2.3795,2.3795,2.3795,2.3795,2.3795,2.3795,2.3795,2.3834,2.3884,2.3904,2.3886,2.3896,2.3917,2.3909,2.3937,2.3937,2.3927,2.3927,2.3945,4.3634,4.3684,4.3786,4.3853,4.3835,4.3867,4.3849,4.3883,4.3865,4.3915,4.391,4.3926,4.3958,4.3989,4.4005,4.4005,4.4005,4.4005,4.3961,4.3881,4.3913,4.3945,4.3945,4.3992,4.4005,4.4005,4.4005,4.3878,4.3595,4.3425,4.2941,4.2285,4.2176,4.1869,4.1283,4.0901,4.0649,4.0237,3.9754,3.9421,3.9203,3.9188,3.8987,3.8542,3.8206,3.7522,3.6454,3.5293,3.4382,3.38,3.2889,3.1696,3.057,3.0141,2.9919,2.9972,3.0032,3.0258,3.0782,3.0802,3.1083,3.1243,3.1258,3.1379,3.15,3.1479,3.1433,3.1433,3.1515,3.1369,3.1061,3.0729,3.0104,2.9404,2.877,2.8526,2.8523,2.8549,2.8549,2.8549,2.8574,2.8587,2.86,2.86,2.86,2.8509,2.8183,2.7622,2.7351,2.6548,2.5914,2.5262,2.4664,2.4248,2.3868,2.3795,2.3795,2.3795,2.3795,2.3795,2.3795,2.3806,2.3806,2.3855,2.3922,2.3974,2.3966,2.3996,2.4026,2.4036,2.4075,2.4056,2.4074,2.4074,2.4074,4.3684,4.3804,4.3865,4.3897,4.3913,4.3976,4.4008,4.3989,4.3989,4.3989,4.3989,4.3989,4.3989,4.4005,4.4005,4.4005,4.4005,4.4005,4.402,4.4005,4.402,4.4005,4.4005,4.4005,4.4005,4.4005,4.4005,4.386,4.3631,4.3548,4.3394,4.3032,4.3014,4.2903,4.2311,4.24,4.1727,4.0807,4.05,4.0035,3.9378,3.9333,3.9367,3.9292,3.8657,3.8127,3.766,3.6341,3.4994,3.3857,3.2787,3.2141,3.183,3.1203,3.0794,3.088,3.0936,3.1041,3.1069,3.1359,3.1586,3.2155,3.2148,3.231,3.2745,3.2719,3.2688,3.2724,3.2824,3.267,3.2146,3.1851,3.1484,3.082,2.9516,2.882,2.8677,2.8659,2.8587,2.8587,2.86,2.86,2.86,2.86,2.86,2.8582,2.8527,2.8165,2.7749,2.7152,2.659,2.5939,2.528,2.4646,2.4266,2.3863,2.3863,2.3837,2.3855,2.3855,2.3824,2.3806,2.3837,2.3904,2.3986,2.4044,2.4084,2.4114,2.4172,2.4219,2.4238,2.4218,2.4237,2.4257,2.4257,4.3832,4.3883,4.3945,4.3974,4.3974,4.4008,4.4005,4.4005,4.4005,4.4005,4.4005,4.4005,4.4005,4.4005,4.4005,4.4005,4.4005,4.4005,4.407,4.4135,4.4135,4.4104,4.402,4.4005,4.4005,4.4005,4.4005,4.391,4.3734,4.3631,4.3496,4.325,4.3426,4.3454,4.3262,4.2968,4.2653,4.2126,4.1073,4.0522,4.0186,3.9672,3.9431,3.9432,3.9226,3.8783,3.8215,3.71,3.5595,3.393,3.3338,3.2734,3.2231,3.1859,3.169,3.1748,3.1798,3.2094,3.2553,3.269,3.2821,3.2961,3.288,3.2997,3.3065,3.3104,3.307,3.307,3.3086,3.3029,3.2739,3.2385,3.1809,3.1016,3.0143,2.9505,2.9391,2.8956,2.86,2.86,2.8654,2.8654,2.8672,2.8618,2.86,2.86,2.8582,2.8527,2.8129,2.7743,2.7157,2.6656,2.6023,2.5262,2.4639,2.4156,2.3904,2.3896,2.3907,2.3925,2.3876,2.3834,2.3886,2.3955,2.4106,2.4182,2.422,2.4238,2.4321,2.4393,2.4428,2.4446,2.4481,2.4488,2.4498,4.4117,4.4461,4.4138,4.4005,4.4005,4.4005,4.4005,4.4005,4.4005,4.4005,4.4005,4.4005,4.4005,4.4005,4.4005,4.402,4.407,4.4085,4.4131,4.4229,4.4226,4.418,4.4119,4.4085,4.407,4.402,4.407,4.4008,4.3897,4.3828,4.3728,4.3646,4.3728,4.3825,4.3818,4.3654,4.3285,4.2903,4.2053,4.1426,4.0659,4.0244,3.9871,3.9696,3.9558,3.92,3.8374,3.774,3.6491,3.4877,3.4156,3.3647,3.29,3.2676,3.2621,3.2632,3.2632,3.2897,3.3252,3.3393,3.3378,3.3319,3.3307,3.3262,3.3214,3.3198,3.3198,3.3183,3.3214,3.3211,3.3187,3.2871,3.2481,3.2057,3.1274,3.0708,3.0364,2.9934,2.9663,2.9554,2.9337,2.9101,2.9065,2.8835,2.8654,2.86,2.86,2.8582,2.8491,2.8118,2.7743,2.7247,2.6787,2.6102,2.5325,2.4756,2.418,2.4099,2.4037,2.4056,2.3988,2.3919,2.3978,2.4077,2.4238,2.4338,2.4364,2.4408,2.4478,2.4555,2.4613,2.4637,2.4645,2.466,2.4671,4.461,4.5231,4.4469,4.4079,4.4023,4.4005,4.4005,4.4005,4.4005,4.4005,4.4005,4.4005,4.402,4.402,4.4055,4.4104,4.4199,4.4214,4.424,4.43,4.4314,4.4266,4.4226,4.4214,4.415,4.4082,4.415,4.4116,4.407,4.4097,4.4079,4.4017,4.4079,4.4106,4.4121,4.4192,4.388,4.34,4.3113,4.2409,4.1479,4.1098,4.0772,4.0314,4.0035,3.9564,3.8881,3.8397,3.7616,3.5789,3.5302,3.471,3.3998,3.3768,3.3607,3.3523,3.3505,3.352,3.3411,3.3393,3.3393,3.3378,3.3337,3.3307,3.3307,3.3307,3.3292,3.3292,3.3349,3.3364,3.3345,3.3357,3.3266,3.3013,3.2578,3.1999,3.1437,3.1111,3.1003,3.0966,3.0292,3.0002,2.9639,2.9228,2.8708,2.86,2.86,2.8612,2.8637,2.8463,2.8167,2.7869,2.7419,2.6986,2.6169,2.5359,2.4782,2.4383,2.4256,2.4229,2.4173,2.4116,2.4144,2.4229,2.4373,2.4495,2.4545,2.4604,2.4645,2.47,2.4772,2.4746,2.4738,2.478,2.4795,4.5698,4.5268,4.5101,4.4618,4.4079,4.4005,4.4005,4.4005,4.4023,4.4079,4.4023,4.4023,4.4107,4.4206,4.4187,4.4195,4.427,4.4304,4.4333,4.4387,4.4444,4.443,4.4373,4.4314,4.427,4.4222,4.4255,4.4255,4.4255,4.4237,4.4252,4.4252,4.431,4.434,4.4368,4.4435,4.45,4.4161,4.374,4.3295,4.2787,4.2153,4.1801,4.1492,4.1062,4.0348,3.9694,3.9494,3.8881,3.7784,3.6786,3.6053,3.5505,3.5311,3.4936,3.4477,3.4335,3.4099,3.3592,3.3502,3.3429,3.3556,3.3541,3.3396,3.3364,3.3472,3.3436,3.3382,3.3378,3.3465,3.3393,3.3393,3.3393,3.3321,3.3194,3.2995,3.2705,3.1763,3.122,3.1071,3.0908,3.0509,2.9979,2.9821,2.9318,2.8799,2.8648,2.8656,2.8657,2.8694,2.8567,2.8328,2.8091,2.7658,2.6985,2.6023,2.5106,2.4598,2.4439,2.4428,2.4365,2.433,2.4338,2.4408,2.4534,2.4626,2.4692,2.473,2.4768,2.4839,2.4882,2.4875,2.4875,2.4889,2.4889,4.59,4.5788,4.5026,4.4413,4.4042,4.4005,4.4005,4.4079,4.4451,4.4631,4.4646,4.4662,4.4727,4.4766,4.4446,4.4285,4.4358,4.443,4.4454,4.451,4.4551,4.4578,4.4551,4.4496,4.444,4.4344,4.4344,4.4325,4.4373,4.4416,4.4458,4.444,4.451,4.4537,4.4537,4.4619,4.4646,4.457,4.429,4.3919,4.346,4.3127,4.2585,4.2344,4.1869,4.1306,4.0568,4.0443,3.9868,3.9,3.8208,3.7285,3.6307,3.6024,3.5669,3.5292,3.5168,3.5023,3.4591,3.4193,3.4139,3.448,3.4211,3.4262,3.4389,3.4501,3.4298,3.4081,3.3954,3.3864,3.3447,3.3393,3.3393,3.3393,3.3393,3.3393,3.3248,3.2614,3.2107,3.2017,3.185,3.1469,3.1053,3.0626,2.9987,2.9473,2.9361,2.93,2.8761,2.8822,2.8905,2.8778,2.8658,2.8292,2.7717,2.672,2.54,2.4884,2.4574,2.4578,2.4613,2.458,2.4547,2.461,2.4681,2.4761,2.4813,2.4849,2.4863,2.491,2.4957,2.4977,2.4977,2.4957,2.495,4.5992,4.6364,4.4841,4.4116,4.4005,4.4005,4.4005,4.4135,4.4782,4.4975,4.519,4.5224,4.5028,4.5122,4.4595,4.4358,4.444,4.4551,4.4605,4.4619,4.4923,4.4842,4.4785,4.4815,4.4748,4.4406,4.4426,4.4435,4.4477,4.4532,4.4592,4.4619,4.464,4.4672,4.468,4.4693,4.4706,4.4687,4.4675,4.4424,4.3945,4.3793,4.3414,4.2813,4.2635,4.2192,4.1567,4.1279,4.087,3.982,3.9576,3.8446,3.7149,3.6431,3.6173,3.6055,3.6001,3.5802,3.5478,3.5134,3.5044,3.575,3.5206,3.5098,3.5514,3.555,3.5279,3.5007,3.4736,3.4464,3.3719,3.3683,3.3592,3.3447,3.3426,3.3408,3.3408,3.3426,3.3303,3.3187,3.274,3.2319,3.1969,3.156,3.0815,3.0205,3.0092,2.9826,2.9277,2.8952,2.9055,2.9167,2.9045,2.8702,2.8137,2.7382,2.6059,2.5303,2.4895,2.4757,2.4821,2.4787,2.4738,2.4746,2.4805,2.4849,2.4903,2.4917,2.4938,2.4984,2.4984,2.4984,2.4984,2.4984,2.4984,4.6995,4.642,4.5472,4.4674,4.4061,4.4005,4.4023,4.4039,4.4343,4.4407,4.4478,4.4483,4.4651,4.4593,4.4514,4.444,4.4565,4.4646,4.4723,4.4893,4.5329,4.5442,4.5172,4.5417,4.5327,4.4791,4.4627,4.4627,4.4627,4.4667,4.4685,4.4699,4.4712,4.4725,4.4738,4.4745,4.477,4.4783,4.4821,4.4682,4.4581,4.4498,4.4245,4.3549,4.3462,4.3026,4.242,4.2143,4.1713,4.0785,4.0514,3.9649,3.86,3.8044,3.7496,3.6989,3.6814,3.6598,3.6112,3.5786,3.5659,3.5731,3.5677,3.5641,3.584,3.5894,3.5912,3.5695,3.5496,3.5225,3.4498,3.4407,3.4045,3.3698,3.3528,3.3502,3.347,3.3534,3.3629,3.3606,3.3378,3.314,3.2734,3.2324,3.1725,3.1027,3.0583,3.0165,2.9554,2.9296,2.9225,2.9341,2.9415,2.8989,2.8519,2.7739,2.6766,2.5917,2.5401,2.4981,2.4998,2.4969,2.495,2.491,2.4889,2.491,2.4931,2.4971,2.4977,2.4984,2.4984,2.4984,2.4984,2.4984,2.4984,4.6865,4.6382,4.5138,4.4395,4.4076,4.4089,4.4104,4.4175,4.4624,4.489,4.4935,4.4961,4.5015,4.4989,4.4627,4.4565,4.4627,4.4706,4.499,4.5425,4.586,4.6227,4.5892,4.6157,4.5855,4.542,4.5079,4.4757,4.4725,4.4751,4.4764,4.4757,4.4789,4.4815,4.4815,4.4833,4.4846,4.4858,4.487,4.4895,4.4895,4.4895,4.463,4.4428,4.4214,4.383,4.3206,4.298,4.2479,4.1575,4.0854,4.0212,3.9534,3.8823,3.8223,3.7784,3.7609,3.7468,3.6997,3.6743,3.6598,3.6961,3.6707,3.6689,3.6924,3.7087,3.6816,3.6435,3.5912,3.5659,3.5258,3.5222,3.4839,3.4271,3.408,3.3927,3.3694,3.3716,3.3865,3.3939,3.3732,3.3542,3.3382,3.2983,3.2559,3.1948,3.1231,3.0616,2.9986,2.9715,2.9599,2.9765,2.9861,2.9493,2.9017,2.829,2.7363,2.6511,2.5854,2.5432,2.5093,2.5018,2.5024,2.5018,2.5004,2.4972,2.4971,2.4977,2.4984,2.4984,2.4984,2.4984,2.4984,2.4984,2.4984,4.6401,4.6122,4.4652,4.4036,4.4051,4.4165,4.4214,4.436,4.492,4.5223,4.5357,4.5344,4.5359,4.5363,4.4971,4.4685,4.4738,4.4915,4.5502,4.6045,4.6632,4.7055,4.6828,4.6752,4.6209,4.5533,4.5192,4.4846,4.4802,4.4815,4.4827,4.4821,4.487,4.4895,4.4883,4.4883,4.4895,4.4895,4.4895,4.4895,4.4895,4.4895,4.4895,4.4883,4.4821,4.4474,4.3926,4.3762,4.322,4.2342,4.1516,4.0787,4.0251,3.9282,3.8658,3.8523,3.8368,3.8227,3.8009,3.7647,3.7449,3.783,3.7538,3.7683,3.7883,3.7884,3.7828,3.7267,3.6798,3.629,3.6127,3.6053,3.5685,3.5184,3.4935,3.4739,3.4059,3.3957,3.4365,3.4352,3.4117,3.3955,3.3806,3.3657,3.3241,3.2556,3.1848,3.1503,3.0901,3.0298,3.0161,3.033,3.0337,3.0021,2.9534,2.8947,2.796,2.6929,2.6276,2.5784,2.5367,2.5025,2.5063,2.5101,2.5044,2.5025,2.5012,2.4991,2.4984,2.4984,2.4984,2.4984,2.4984,2.4984,2.4984,4.6085,4.5377,4.4544,4.4184,4.4165,4.4259,4.4304,4.4318,4.4504,4.4533,4.4655,4.4711,4.4785,4.4802,4.4851,4.477,4.5004,4.5565,4.6026,4.6474,4.7416,4.7466,4.6714,4.7087,4.6259,4.5539,4.5066,4.4914,4.4858,4.4858,4.487,4.4883,4.4883,4.4895,4.4895,4.4895,4.4895,4.4895,4.4895,4.4895,4.4895,4.4895,4.4895,4.487,4.4821,4.4714,4.4467,4.4307,4.388,4.3197,4.2715,4.2058,4.1243,4.0107,3.9599,3.9192,3.8763,3.8209,3.8172,3.8009,3.7937,3.8156,3.8028,3.81,3.8172,3.8209,3.8136,3.8118,3.7846,3.7484,3.6993,3.6933,3.651,3.62,3.5941,3.5188,3.4385,3.451,3.4887,3.4641,3.4389,3.4305,3.4213,3.4091,3.3893,3.3164,3.2544,3.2144,3.1597,3.0866,3.0415,3.0496,3.0464,3.0175,2.9978,2.939,2.8632,2.7507,2.701,2.6371,2.5774,2.541,2.5149,2.518,2.5124,2.5081,2.5069,2.5044,2.5011,2.4991,2.4991,2.4991,2.4984,2.4984,2.4991,4.5682,4.5292,4.4504,4.4214,4.4274,4.431,4.434,4.4387,4.4468,4.451,4.4524,4.4619,4.4667,4.4738,4.4827,4.4846,4.5066,4.5792,4.6468,4.6771,4.758,4.7795,4.7548,4.7018,4.6127,4.5691,4.516,4.4895,4.4895,4.4895,4.4895,4.4895,4.4895,4.4895,4.4895,4.4895,4.4895,4.4895,4.4895,4.4895,4.4895,4.4895,4.487,4.4852,4.4751,4.4685,4.4587,4.4416,4.4171,4.3598,4.3095,4.2461,4.182,4.0954,4.0245,4.0139,3.9383,3.8716,3.8281,3.8245,3.8209,3.8209,3.8209,3.8191,3.8209,3.8209,3.8209,3.8191,3.8209,3.8008,3.7787,3.7782,3.7403,3.7107,3.6964,3.6397,3.5616,3.5361,3.5397,3.5011,3.4674,3.4606,3.454,3.4383,3.4266,3.3892,3.3068,3.238,3.1695,3.0844,3.054,3.0461,3.0391,3.0227,3.0097,2.9787,2.9295,2.8474,2.83,2.7548,2.6418,2.591,2.5666,2.5384,2.5245,2.5193,2.5153,2.5107,2.5063,2.5024,2.4998,2.5004,2.5011,2.4991,2.4998,4.5124,4.5084,4.4502,4.427,4.4344,4.4411,4.4454,4.4468,4.4565,4.4632,4.4646,4.4699,4.4757,4.4821,4.4889,4.4883,4.4952,4.5805,4.6468,4.6961,4.7321,4.7586,4.7321,4.6657,4.6108,4.588,4.516,4.4914,4.4895,4.4895,4.4895,4.4895,4.4895,4.4895,4.4895,4.4895,4.4895,4.4895,4.4895,4.4895,4.4895,4.4895,4.4858,4.477,4.4685,4.4565,4.4468,4.4233,4.4075,4.3862,4.3307,4.2851,4.255,4.1745,4.1136,4.0867,4.0181,3.9333,3.8753,3.8426,3.8263,3.8209,3.8209,3.8209,3.8209,3.8209,3.8209,3.8209,3.8242,3.8241,3.8272,3.832,3.8167,3.7988,3.7929,3.7562,3.7224,3.682,3.598,3.5098,3.4858,3.4894,3.4784,3.4639,3.4537,3.4438,3.3739,3.2713,3.1853,3.0989,3.0978,3.0949,3.0698,3.059,3.0478,3.0221,2.9727,2.9345,2.9168,2.8566,2.7333,2.6572,2.6236,2.5909,2.5601,2.5331,2.5282,2.5184,2.5107,2.5076,2.5038,2.5044,2.5031,2.5024,2.5024,4.4404,4.4458,4.442,4.4383,4.443,4.4537,4.4578,4.4578,4.4659,4.468,4.4712,4.4757,4.4821,4.487,4.4883,4.4895,4.4933,4.5805,4.6222,4.6582,4.6923,4.6961,4.6676,4.6241,4.5748,4.5198,4.4914,4.4914,4.4895,4.4895,4.4895,4.4895,4.4895,4.4895,4.4895,4.4895,4.4895,4.4895,4.4895,4.4895,4.4895,4.4883,4.4858,4.477,4.4672,4.4565,4.4501,4.4207,4.402,4.4002,4.3597,4.3374,4.3123,4.2442,4.1938,4.1685,4.0962,4.0166,3.9604,3.8807,3.8281,3.8227,3.8209,3.8209,3.8209,3.8209,3.8209,3.8225,3.8257,3.8307,3.8389,3.8483,3.8545,3.8626,3.86,3.8599,3.8318,3.8095,3.7148,3.5589,3.509,3.5229,3.503,3.4886,3.4706,3.4624,3.3647,3.2618,3.2135,3.146,3.164,3.16,3.1244,3.1086,3.1012,3.0624,2.999,2.9685,2.9515,2.892,2.8047,2.7489,2.7133,2.6636,2.6361,2.5851,2.5475,2.5586,2.5557,2.5235,2.508,2.5094,2.5101,2.5095,2.5088,4.4444,4.4524,4.4524,4.4524,4.4524,4.4578,4.4619,4.4672,4.4719,4.477,4.4827,4.4865,4.487,4.4895,4.4895,4.4895,4.5028,4.5786,4.607,4.6259,4.643,4.6449,4.6089,4.5653,4.5198,4.4952,4.4895,4.4895,4.4895,4.4895,4.4895,4.4895,4.4895,4.4895,4.4895,4.4895,4.4895,4.4895,4.4895,4.4895,4.4895,4.4883,4.4865,4.4738,4.4605,4.4468,4.4358,4.4101,4.4008,4.3926,4.3749,4.3666,4.3582,4.2973,4.2704,4.2541,4.1724,4.1107,4.0564,3.9604,3.877,3.8263,3.8209,3.8209,3.8209,3.8242,3.8257,3.829,3.8322,3.8403,3.8564,3.867,3.8785,3.9003,3.9165,3.9304,3.9202,3.89,3.8508,3.703,3.6161,3.5801,3.5469,3.5119,3.4939,3.4704,3.3611,3.2645,3.2132,3.1457,3.1389,3.1366,3.0988,3.083,3.0741,3.0463,3.0164,3.0013,2.9844,2.9389,2.8879,2.8763,2.8371,2.7776,2.7181,2.6809,2.6511,2.6301,2.5957,2.5426,2.5195,2.5162,2.5151,2.517,2.517,4.4524,4.4632,4.4632,4.4632,4.4632,4.4659,4.4685,4.4751,4.4815,4.4846,4.4895,4.4895,4.4895,4.4895,4.4895,4.4895,4.5028,4.5464,4.5691,4.5786,4.5786,4.5824,4.5596,4.5312,4.499,4.4895,4.4895,4.4895,4.4895,4.4895,4.4895,4.4895,4.4895,4.4895,4.4895,4.4895,4.4895,4.4895,4.4895,4.4895,4.4895,4.4895,4.4865,4.4738,4.4605,4.4496,4.4354,4.4162,4.4033,4.3989,4.3878,4.3716,4.358,4.3426,4.3233,4.2923,4.2522,4.1995,4.1379,4.0329,3.9078,3.8354,3.8209,3.8209,3.8225,3.8276,3.829,3.8323,3.8419,3.8575,3.875,3.8862,3.9017,3.9219,3.9383,3.9495,3.9493,3.9313,3.9112,3.8502,3.7734,3.6881,3.622,3.5831,3.5323,3.4812,3.3487,3.2613,3.2138,3.1339,3.0451,3.0434,3.0373,3.028,3.0221,3.026,3.0306,3.0326,3.0181,3.0134,2.981,2.9654,2.9296,2.8599,2.8089,2.7815,2.7385,2.6896,2.6208,2.549,2.5341,2.5269,2.5274,2.5279,2.5269,4.4632,4.4699,4.4699,4.4712,4.4693,4.4757,4.4783,4.4796,4.4877,4.4883,4.4895,4.4895,4.4895,4.4895,4.4895,4.4895,4.4895,4.5009,4.5066,4.5122,4.5198,4.5047,4.5028,4.4933,4.4895,4.4895,4.4895,4.4895,4.4895,4.4895,4.4895,4.4895,4.4895,4.4895,4.4895,4.4895,4.4895,4.4895,4.4895,4.4895,4.4895,4.4895,4.4865,4.4776,4.4646,4.4556,4.4411,4.4237,4.4158,4.417,4.3989,4.3862,4.383,4.3477,4.3268,4.3142,4.294,4.2448,4.1687,4.0238,3.9205,3.839,3.8209,3.8209,3.8225,3.8276,3.8338,3.8419,3.859,3.8777,3.8921,3.9073,3.9245,3.9414,3.9556,3.9663,3.9664,3.966,3.9459,3.9234,3.8796,3.8188,3.7356,3.662,3.5922,3.4964,3.3464,3.2646,3.2254,3.145,3.0517,3.0123,3.0199,3.0254,3.0329,3.0406,3.046,3.051,3.0492,3.0395,3.0239,2.9963,2.9603,2.9225,2.9028,2.8753,2.8074,2.7372,2.6513,2.5673,2.548,2.539,2.5397,2.5404,2.5376,4.4712,4.4757,4.4757,4.4783,4.4821,4.4796,4.4821,4.4858,4.4883,4.4895,4.4895,4.4895,4.4895,4.4895,4.4895,4.4895,4.4895,4.4895,4.4895,4.4895,4.4895,4.4895,4.4895,4.4895,4.4895,4.4895,4.4895,4.4895,4.4895,4.4895,4.4895,4.4895,4.4895,4.4895,4.4895,4.4895,4.4895,4.4895,4.4895,4.4895,4.4895,4.4895,4.4877,4.4815,4.4685,4.4597,4.451,4.434,4.4306,4.4331,4.4143,4.4005,4.3942,4.3594,4.3286,4.3178,4.2995,4.252,4.176,4.0672,3.9619,3.8786,3.8225,3.8242,3.8276,3.8338,3.8433,3.8606,3.8785,3.8979,3.9151,3.9298,3.9464,3.9568,3.9705,3.9781,3.9788,3.9829,3.9719,3.9502,3.915,3.8398,3.7593,3.73,3.6718,3.6049,3.4778,3.3492,3.2878,3.1928,3.099,3.0476,3.0299,3.0367,3.045,3.0479,3.053,3.0554,3.0569,3.0544,3.0384,3.0208,3.0163,2.9939,2.9823,2.9664,2.8775,2.7851,2.6689,2.5928,2.569,2.5518,2.5508,2.5498,2.5467,4.4757,4.4833,4.4852,4.4846,4.4883,4.4846,4.4858,4.4895,4.4895,4.4895,4.4895,4.4895,4.4895,4.4895,4.4895,4.4895,4.4895,4.4895,4.4895,4.4895,4.4895,4.4895,4.4895,4.4895,4.4895,4.4895,4.4895,4.4895,4.4895,4.4895,4.4895,4.4895,4.4895,4.4895,4.4895,4.4895,4.4895,4.4895,4.4895,4.4895,4.4895,4.4883,4.4889,4.4827,4.4751,4.4678,4.4592,4.4524,4.4487,4.4482,4.435,4.4158,4.3983,4.3695,4.3339,4.3196,4.2977,4.2521,4.1814,4.1052,3.9997,3.8993,3.8507,3.8307,3.8372,3.8451,3.8609,3.8773,3.8974,3.9151,3.9305,3.9477,3.9623,3.9739,3.9792,3.9867,3.9859,3.9881,3.9903,3.9675,3.9302,3.8537,3.7908,3.7806,3.7529,3.6875,3.6182,3.4967,3.3745,3.2835,3.1904,3.1245,3.0706,3.0642,3.0609,3.0525,3.0554,3.0593,3.0607,3.0616,3.0591,3.043,3.0539,3.0618,3.0366,2.9996,2.9266,2.8327,2.7296,2.6409,2.5823,2.5699,2.5621,2.5568,2.5531,4.4833,4.4895,4.4895,4.4895,4.4895,4.4883,4.4883,4.4895,4.4895,4.4895,4.4895,4.4895,4.4895,4.4895,4.4895,4.4895,4.4895,4.4895,4.4895,4.4895,4.4895,4.4895,4.4895,4.4895,4.4895,4.4895,4.4895,4.4895,4.4895,4.4895,4.4895,4.4895,4.4895,4.4895,4.4895,4.4895,4.4895,4.4895,4.4895,4.4895,4.4895,4.4895,4.4883,4.4846,4.4796,4.4776,4.4719,4.468,4.4712,4.4659,4.4519,4.4364,4.4109,4.3747,4.3443,4.3196,4.2976,4.254,4.1923,4.1159,4.0461,3.9538,3.886,3.8574,3.8481,3.8624,3.8777,3.8931,3.9137,3.9285,3.9439,3.9611,3.9781,3.9826,3.9867,3.9889,3.9881,3.9922,3.9954,3.9768,3.9412,3.8851,3.8308,3.8112,3.8247,3.8007,3.7483,3.7009,3.5771,3.4398,3.3397,3.226,3.1678,3.103,3.0945,3.111,3.0931,3.109,3.0698,3.0606,3.06,3.0621,3.0641,3.0661,3.0683,3.027,2.947,2.8782,2.8032,2.7223,2.6452,2.5829,2.5763,2.5622,2.559,4.4902,4.4895,4.4895,4.4895,4.4895,4.4895,4.4895,4.4895,4.4895,4.4895,4.4895,4.4895,4.4895,4.4895,4.4895,4.4895,4.4895,4.4895,4.4895,4.4895,4.4895,4.4895,4.4895,4.4895,4.4895,4.4895,4.4895,4.4895,4.4895,4.4895,4.4895,4.4895,4.4895,4.4895,4.4895,4.4895,4.4895,4.4895,4.4895,4.4895,4.4895,4.4895,4.4895,4.487,4.4833,4.4808,4.4802,4.4745,4.4764,4.4751,4.4532,4.435,4.4181,4.3744,4.3375,4.305,4.2903,4.2723,4.1977,4.1352,4.0679,3.9997,3.9261,3.894,3.8818,3.8848,3.8997,3.9156,3.9305,3.9446,3.9587,3.9747,3.9837,3.9878,3.99,3.9911,3.9914,3.9986,4.0008,3.9833,3.948,3.9404,3.8858,3.8753,3.8875,3.8878,3.8711,3.8273,3.7649,3.6227,3.5011,3.3845,3.3153,3.2681,3.2193,3.2232,3.1839,3.1519,3.1127,3.0763,3.0649,3.0669,3.0668,3.0687,3.0704,3.0279,2.9622,2.9004,2.8573,2.7963,2.721,2.647,2.5883,2.576,2.5634,4.4895,4.4895,4.4938,4.4962,4.4967,4.4967,4.4967,4.4967,4.4938,4.4895,4.4895,4.4895,4.4895,4.4895,4.4895,4.4895,4.4895,4.4895,4.4895,4.4895,4.4895,4.4895,4.4895,4.4895,4.4895,4.4895,4.4895,4.4895,4.4895,4.4895,4.4895,4.4895,4.4895,4.4895,4.4895,4.4895,4.4895,4.4895,4.4895,4.4895,4.4895,4.4895,4.4895,4.4883,4.4846,4.4833,4.484,4.477,4.4796,4.4815,4.4587,4.4407,4.4196,4.3777,4.3392,4.3105,4.305,4.2759,4.2137,4.1486,4.0856,4.0193,3.9551,3.9281,3.9183,3.9183,3.9277,3.9389,3.9495,3.9635,3.9758,3.9856,3.9878,3.99,3.9922,3.9943,3.9996,4.0058,3.9967,3.985,3.9791,3.9827,3.9704,3.9547,3.938,3.9224,3.9048,3.8802,3.8468,3.7818,3.6671,3.5588,3.5014,3.4517,3.4042,3.3465,3.2966,3.2428,3.1706,3.1327,3.0964,3.0707,3.068,3.0685,3.0707,3.032,2.9988,2.9598,2.9151,2.86,2.8045,2.7287,2.6523,2.5866,2.5743,4.4907,4.4907,4.4986,4.5026,4.5103,4.5091,4.5091,4.5091,4.4967,4.4926,4.4919,4.4919,4.4919,4.4919,4.4919,4.4907,4.4895,4.4895,4.4895,4.4895,4.4895,4.4895,4.4895,4.4895,4.4895,4.4895,4.4895,4.4895,4.4895,4.4895,4.4895,4.4895,4.4895,4.4895,4.4895,4.4895,4.4895,4.4895,4.4895,4.4895,4.4895,4.4895,4.4895,4.4895,4.4883,4.4883,4.4883,4.4883,4.4895,4.484,4.4725,4.4505,4.4136,4.3825,4.3461,4.3322,4.3268,4.2716,4.2176,4.1567,4.0918,4.0295,3.9714,3.9514,3.9452,3.942,3.9452,3.9539,3.9658,3.9717,3.9815,3.9878,3.9889,3.9933,3.9965,4.0027,4.008,4.0148,4.0168,4.0106,4.0207,4.0165,3.9696,3.9493,3.9518,3.9389,3.9066,3.8896,3.8974,3.8725,3.8125,3.717,3.6968,3.6459,3.5834,3.5199,3.4268,3.3531,3.2643,3.1546,3.0928,3.0741,3.0706,3.0727,3.0745,3.0767,3.0524,3.0141,2.9821,2.9556,2.8939,2.8142,2.7337,2.6571,2.5876,4.4967,4.4998,4.5057,4.5072,4.5103,4.5103,4.5103,4.5103,4.508,4.5038,4.5038,4.5057,4.5033,4.4979,4.4955,4.4943,4.4926,4.4895,4.4895,4.4895,4.4895,4.4895,4.4895,4.4895,4.4895,4.4895,4.4895,4.4895,4.4895,4.4895,4.4895,4.4895,4.4895,4.4895,4.4895,4.4895,4.4895,4.4895,4.4895,4.4895,4.4895,4.4895,4.4895,4.4895,4.4895,4.4895,4.4895,4.4895,4.4895,4.4858,4.468,4.4407,4.4005,4.3779,4.3597,4.3479,4.3493,4.2859,4.2068,4.1553,4.1036,4.016,3.9621,3.9679,3.9658,3.9587,3.9587,3.9701,3.977,3.9815,3.9848,3.99,3.9933,3.9975,4.0038,4.0099,4.0187,4.0281,4.0358,4.0465,4.0604,4.0287,3.981,3.9633,3.958,3.9256,3.8732,3.8597,3.9116,3.9155,3.9146,3.854,3.8888,3.8471,3.7773,3.6953,3.6045,3.4738,3.3701,3.2423,3.0996,3.0811,3.0737,3.0757,3.0795,3.08,3.0786,3.07,3.0434,3.0185,2.9838,2.9041,2.8439,2.7753,2.6685,4.5057,4.5038,4.5114,4.5159,4.52,4.5192,4.52,4.52,4.5192,4.5181,4.517,4.5136,4.508,4.5026,4.5003,4.4979,4.495,4.4926,4.4895,4.4895,4.4895,4.4895,4.4895,4.4895,4.4895,4.4895,4.4895,4.4895,4.4895,4.4895,4.4895,4.4895,4.4895,4.4895,4.4895,4.4895,4.4895,4.4895,4.4895,4.4895,4.4895,4.4895,4.4895,4.4895,4.4895,4.4895,4.4895,4.4895,4.4895,4.4858,4.4719,4.4532,4.4244,4.4057,4.3934,4.3873,4.3704,4.3246,4.2188,4.1591,4.1226,4.0284,3.9691,3.9815,3.9804,3.9747,3.9747,3.9815,3.9826,3.9859,3.9943,3.9994,4.0048,4.009,4.0196,4.0307,4.0417,4.0518,4.0578,4.0661,4.0723,4.0663,4.0327,4.0338,4.0198,3.9631,3.9005,3.8578,3.9048,3.9296,3.9364,3.9558,3.9685,3.9981,3.9568,3.8727,3.7847,3.6441,3.4811,3.2966,3.1446,3.1025,3.079,3.0799,3.0786,3.0789,3.0795,3.0801,3.0786,3.0556,3.0284,2.9934,2.9369,2.8805,2.7943,4.5125,4.5136,4.5181,4.5235,4.5297,4.5277,4.5277,4.5297,4.5297,4.5297,4.5286,4.5189,4.5125,4.5091,4.5068,4.5033,4.4998,4.4962,4.4919,4.4895,4.4895,4.4895,4.4895,4.4895,4.4895,4.4895,4.4895,4.4895,4.4895,4.4895,4.4895,4.4895,4.4895,4.4895,4.4895,4.4895,4.4895,4.4895,4.4895,4.4895,4.4895,4.4895,4.4895,4.4895,4.4895,4.4895,4.4895,4.4895,4.4895,4.4846,4.477,4.4613,4.4491,4.4327,4.4269,4.421,4.421,4.3469,4.2599,4.2291,4.145,4.0606,4.0223,4.011,4.0173,4.0108,4.0116,4.01,4.01,4.0,4.0083,4.0155,4.0215,4.0309,4.0443,4.0561,4.0677,4.0784,4.0839,4.089,4.0886,4.0877,4.0888,4.0917,4.0572,4.0025,3.9571,3.9171,3.8941,3.8972,3.9031,3.9459,3.9843,4.0205,4.0615,3.9948,3.8879,3.7637,3.5869,3.3673,3.196,3.1552,3.1153,3.0801,3.0786,3.081,3.0811,3.0814,3.0817,3.0799,3.0625,3.0332,3.0019,2.9472,2.912,4.5222,4.5265,4.5286,4.5297,4.5277,4.5277,4.5277,4.5277,4.5277,4.5277,4.5297,4.5286,4.5254,4.5162,4.517,4.5125,4.5026,4.4979,4.495,4.4914,4.4919,4.4907,4.4907,4.4919,4.4895,4.4895,4.4895,4.4895,4.4895,4.4895,4.4895,4.4895,4.4895,4.4895,4.4895,4.4895,4.4895,4.4895,4.4895,4.4895,4.4895,4.4895,4.4895,4.4895,4.4895,4.4895,4.4895,4.4895,4.4895,4.487,4.4821,4.4719,4.464,4.4573,4.4513,4.4486,4.4505,4.395,4.3288,4.3051,4.2252,4.1652,4.1377,4.1298,4.1237,4.0972,4.0956,4.0935,4.0813,4.0437,4.0412,4.0492,4.0567,4.0713,4.085,4.0956,4.1074,4.1133,4.1202,4.1175,4.114,4.1135,4.1095,4.106,4.0924,4.0424,4.0038,3.9653,3.9337,3.9068,3.8786,3.9335,3.9922,4.0388,4.0758,4.031,3.9374,3.8263,3.6867,3.4653,3.2993,3.2123,3.1658,3.1032,3.0818,3.082,3.082,3.084,3.084,3.0839,3.0817,3.0638,3.0381,3.0123,2.9708]}]]